[[{"header":{"parameterUnit":"m.s-1","parameterCategory":1,"la1":31.0,"la2":29.5877,"lo1":-88.7671,"lo2":-86.6584,"dy":0.0162,"dx":0.0185,"nx":115,"ny":88,"refTime":"2024-08-13T12:00:00:Z","depth":0,"parameterNumber":2,"parameterNumberName":"U-component_of_WINDS"},"data":[0.0,0.0,0.0,0.0,0.0,0.0,0.0,0.0,0.0,0.0,0.0,0.0,0.0,0.0,0.0,0.0,0.0,0.0,0.0,0.0,0.0,0.0,0.0,0.0,0.0,0.0,0.0,0.0,0.0,0.0,0.0,0.0,0.0,0.0,0.0,0.0,0.0,0.0,0.0,0.0,0.0,0.0,0.0,0.0,0.0,0.0,0.0,0.0,0.0,0.0,0.0,0.0,0.0,0.0,0.0,0.0,0.0,0.0,0.0,0.0,0.0,0.0,0.0,0.0,0.0,0.0,0.0,0.0,0.0,0.0,0.0,0.0,0.0,0.0,0.0,0.0,0.0,0.0,0.0,0.0,0.0,0.0,0.0,0.0,0.0,0.0,0.0,0.0,0.0,0.0,0.0,0.0,0.0,0.0,0.0,0.0,0.0,0.0,0.0,0.0,0.0,0.0,0.0,0.0,0.0,0.0,0.0,0.0,0.0,0.0,0.0,0.0,0.0,0.0,0.0,0.0,0.0,0.0,0.0,0.0,0.0,0.0,0.0,0.0,0.0,0.0,0.0,0.0,0.0,0.0,0.0,0.0,0.0,0.0,0.0,0.0,0.0,0.0,0.0,0.0,0.0,0.0,0.0,0.0,0.0,0.0,0.0,0.0,0.0,0.0,0.0,0.0,0.0,0.0,0.0,0.0,0.0,0.0,0.0,0.0,0.0,0.0,0.0,0.0,0.0,0.0,0.0,0.0,0.0,0.0,0.0,0.0,0.0,0.0,0.0,0.0,0.0,0.0,0.0,0.0,0.0,0.0,0.0,0.0,0.0,0.0,0.0,0.0,0.0,0.0,0.0,0.0,0.0,0.0,0.0,0.0,0.0,0.0,0.0,0.0,0.0,0.0,0.0,0.0,0.0,0.0,0.0,0.0,0.0,0.0,0.0,0.0,0.0,0.0,0.0,0.0,0.0,0.0,0.0,0.0,0.0,0.0,0.0,0.0,0.0,0.0,0.0,0.0,0.0,0.0,0.0,0.0,0.0,0.0,0.0,0.0,0.0,0.0,0.0,0.0,0.0,0.0,0.0,0.0,0.0,0.0,0.0,0.0,0.0,0.0,0.0,0.0,0.0,0.0,0.0,0.0,0.0,0.0,0.0,0.0,0.0,0.0,0.0,0.0,0.0,0.0,0.0,0.0,0.0,0.0,0.0,0.0,0.0,0.0,0.0,0.0,0.0,0.0,0.0,0.0,0.0,0.0,0.0,0.0,0.0,0.0,0.0,0.0,0.0,0.0,0.0,0.0,0.0,0.0,0.0,0.0,0.0,0.0,0.0,0.0,0.0,0.0,0.0,0.0,0.0,0.0,0.0,0.0,0.0,0.0,0.0,0.0,0.0,0.0,0.0,0.0,0.0,0.0,0.0,0.0,0.0,0.0,0.0,0.0,0.0,0.0,0.0,0.0,0.0,0.0,0.0,0.0,0.0,0.0,0.0,0.0,0.0,0.0,0.0,0.0,0.0,0.0,0.0,0.0,0.0,0.0,0.0,0.0,0.0,0.0,0.0,0.0,0.0,0.0,0.0,0.0,0.0,0.0,0.0,0.0,0.0,0.0,0.0,0.0,0.0,0.0,0.0,0.0,0.0,0.0,0.0,0.0,0.0,0.0,0.0,0.0,0.0,0.0,0.0,0.0,0.0,0.0,0.0,0.0,0.0,0.0,0.0,0.0,0.0,0.0,0.0,0.0,0.0,0.0,0.0,0.0,0.0,0.0,0.0,0.0,0.0,0.0,0.0,0.0,0.0,0.0,0.0,0.0,0.0,0.0,0.0,0.0,0.0,0.0,0.0,0.0,0.0,0.0,0.0,0.0,0.0,0.0,0.0,0.0,0.0,0.0,0.0,0.0,0.0,0.0,0.0,0.0,0.0,0.0,0.0,0.0,0.0,0.0,0.0,0.0,0.0,0.0,0.0,0.0,0.0,0.0,0.0,0.0,0.0,0.0,0.0,0.0,0.0,0.0,0.0,0.0,0.0,0.0,0.0,0.0,0.0,0.0,0.0,0.0,0.0,0.0,0.0,0.0,0.0,0.0,0.0,0.0,0.0,0.0,0.0,0.0,0.0,0.0,0.0,0.0,0.0,0.0,0.0,0.0,0.0,0.0,0.0,0.0,0.0,0.0,0.0,0.0,0.0,0.0,0.0,0.0,0.0,0.0,0.0,0.0,0.0,0.0,0.0,0.0,0.0,0.0,0.0,0.0,0.0,0.0,0.0,0.0,0.0,0.0,0.0,0.0,0.0,0.0,0.0,0.0,0.0,0.0,0.0,0.0,0.0,0.0,0.0,0.0,0.0,0.0,0.0,0.0,0.0,0.0,0.0,0.0,0.0,0.0,0.0,0.0,0.0,0.0,0.0,0.0,0.0,0.0,0.0,0.0,0.0,0.0,0.0,0.0,0.0,0.0,0.0,0.0,0.0,0.0,0.0,0.0,0.0,0.0,0.0,0.0,0.0,0.0,0.0,0.0,0.0,0.0,0.0,0.0,0.0,0.0,0.0,0.0,0.0,0.0,0.0,0.0,0.0,0.0,0.0,0.0,0.0,0.0,0.0,0.0,0.0,0.0,0.0,0.0,0.0,0.0,0.0,0.0,0.0,0.0,0.0,0.0,0.0,0.0,0.0,0.0,0.0,0.0,0.0,0.0,0.0,0.0,0.0,0.0,0.0,0.0,0.0,0.0,0.0,0.0,0.0,0.0,0.0,0.0,0.0,0.0,0.0,0.0,0.0,0.0,0.0,0.0,0.0,0.0,0.0,0.0,0.0,0.0,0.0,0.0,0.0,0.0,0.0,0.0,0.0,0.0,0.0,0.0,0.0,0.0,0.0,0.0,0.0,0.0,0.0,0.0,0.0,0.0,0.0,0.0,0.0,0.0,0.0,0.0,0.0,0.0,0.0,0.0,0.0,0.0,0.0,0.0,0.0,0.0,0.0,0.0,0.0,0.0,0.0,0.0,0.0,0.0,0.0,0.0,0.0,0.0,0.0,0.0,0.0,0.0,0.0,0.0,0.0,0.0,0.0,0.0,0.0,0.0,0.0,0.0,0.0,0.0,0.0,0.0,0.0,0.0,0.0,0.0,0.0,0.0,0.0,0.0,0.0,0.0,0.0,0.0,0.0,0.0,0.0,0.0,0.0,0.0,0.0,0.0,0.0,0.0,0.0,0.0,0.0,0.0,0.0,0.0,0.0,0.0,0.0,0.0,0.0,0.0,0.0,0.0,0.0,0.0,0.0,0.0,0.0,0.0,0.0,0.0,0.0,0.0,0.0,0.0,0.0,0.0,0.0,0.0,0.0,0.0,0.0,0.0,0.0,0.0,0.0,0.0,0.0,0.0,0.0,0.0,0.0,0.0,0.0,0.0,0.0,0.0,0.0,0.0,0.0,0.0,0.0,0.0,0.0,0.0,0.0,0.0,0.0,0.0,0.0,0.0,0.0,0.0,0.0,0.0,0.0,0.0,0.0,0.0,0.0,0.0,0.0,0.0,0.0,0.0,0.0,0.0,0.0,0.0,0.0,0.0,0.0,0.0,0.0,0.0,0.0,0.0,0.0,0.0,0.0,0.0,0.0,0.0,0.0,0.0,0.0,0.0,0.0,0.0,0.0,0.0,0.0,0.0,0.0,0.0,0.0,0.0,0.0,0.0,0.0,0.0,0.0,0.0,0.0,0.0,0.0,0.0,0.0,0.0,0.0,0.0,0.0,0.0,0.0,0.0,0.0,0.0,0.0,0.0,0.0,0.0,0.0,0.0,0.0,0.0,0.0,0.0,0.0,0.0,0.0,0.0,0.0,0.0,0.0,0.0,0.0,0.0,0.0,0.0,0.0,0.0,0.0,0.0,0.0,0.0,0.0,0.0,0.0,0.0,0.0,0.0,0.0,0.0,0.0,0.0,0.0,0.0,0.0,0.0,0.0,0.0,0.0,0.0,0.0,0.0,0.0,0.0,0.0,0.0,0.0,0.0,0.0,0.0,0.0,0.0,0.0,0.0,0.0,0.0,0.0,0.0,0.0,0.0,0.0,0.0,0.0,0.0,0.0,0.0,0.0,0.0,0.0,0.0,0.0,0.0,0.0,0.0,0.0,0.0,0.0,0.0,0.0,0.0,0.0,0.0,0.0,0.0,0.0,0.0,0.0,0.0,0.0,0.0,0.0,0.0,0.0,0.0,0.0,0.0,0.0,0.0,0.0,0.0,0.0,0.0,0.0,0.0,0.0,0.0,0.0,0.0,2.0728,0.0,0.0,0.0,0.0,0.0,0.0,0.0,0.0,0.0,0.0,0.0,0.0,0.0,0.0,0.0,0.0,0.0,0.0,0.0,0.0,0.0,0.0,0.0,0.0,0.0,0.0,0.0,0.0,0.0,0.0,0.0,0.0,0.0,0.0,0.0,0.0,0.0,0.0,0.0,0.0,0.0,0.0,0.0,0.0,0.0,0.0,0.0,0.0,0.0,0.0,0.0,0.0,0.0,0.0,0.0,0.0,0.0,0.0,0.0,0.0,0.0,0.0,0.0,0.0,0.0,0.0,0.0,0.0,0.0,0.0,0.0,0.0,0.0,0.0,0.0,0.0,0.0,0.0,0.0,0.0,0.0,0.0,0.0,0.0,0.0,0.0,0.0,0.0,0.0,0.0,0.0,0.0,0.0,0.0,0.0,0.0,0.0,0.0,0.0,0.0,0.0,0.0,0.0,0.0,0.0,0.0,0.0,0.0,0.0,0.0,2.1257,2.1387,2.1335,2.0769,1.9636,0.0,0.0,0.0,0.0,0.0,0.0,0.0,0.0,0.0,0.0,0.0,0.0,0.0,0.0,0.0,0.0,0.0,0.0,0.0,0.0,0.0,0.0,0.0,0.0,0.0,0.0,0.0,0.0,0.0,0.0,0.0,0.0,0.0,0.0,0.0,0.0,0.0,0.0,0.0,0.0,0.0,0.0,0.0,0.0,0.0,0.0,0.0,0.0,0.0,0.0,0.0,0.0,0.0,0.0,0.0,0.0,0.0,0.0,0.0,0.0,0.0,0.0,0.0,0.0,0.0,0.0,0.0,0.0,0.0,0.0,0.0,0.0,0.0,0.0,0.0,0.0,0.0,0.0,0.0,0.0,0.0,0.0,0.0,0.0,0.0,0.0,0.0,0.0,0.0,0.0,0.0,0.0,0.0,0.0,0.0,0.0,0.0,0.0,0.0,0.0,0.0,0.0,0.0,0.0,0.0,0.0,0.0,0.0,0.0,0.0,0.0,0.0,2.1267,2.0496,1.8319,0.0,0.0,0.0,0.0,0.0,0.0,0.0,0.0,0.0,0.0,0.0,0.0,0.0,0.0,0.0,0.0,0.0,0.0,0.0,0.0,0.0,0.0,0.0,0.0,0.0,0.0,0.0,0.0,0.0,0.0,0.0,0.0,0.0,0.0,0.0,0.0,0.0,0.0,0.0,0.0,0.0,0.0,0.0,0.0,0.0,0.0,0.0,0.0,0.0,0.0,0.0,0.0,0.0,0.0,0.0,0.0,0.0,0.0,0.0,0.0,0.0,0.0,0.0,0.0,0.0,0.0,0.0,0.0,0.0,0.0,0.0,0.0,0.0,0.0,0.0,0.0,0.0,0.0,0.0,0.0,0.0,0.0,0.0,0.0,0.0,0.0,0.0,0.0,0.0,0.0,0.0,0.0,0.0,0.0,0.0,0.0,0.0,0.0,0.0,0.0,0.0,0.0,0.0,0.0,0.0,0.0,0.0,0.0,0.0,0.0,1.8928,1.9561,2.1253,0.0,1.7671,0.0,0.0,0.0,0.0,0.0,0.0,0.0,0.0,0.0,0.0,0.0,0.0,0.0,0.0,0.0,0.0,0.0,0.0,0.0,0.0,0.0,0.0,0.0,0.0,0.0,0.0,0.0,0.0,0.0,0.0,0.0,0.0,0.0,0.0,0.0,0.0,0.0,0.0,0.0,0.0,0.0,0.0,0.0,0.0,0.0,0.0,0.0,0.0,0.0,0.0,0.0,0.0,0.0,0.0,0.0,0.0,0.0,0.0,0.0,0.0,0.0,0.0,0.0,0.0,0.0,0.0,0.0,0.0,0.0,0.0,0.0,0.0,0.0,0.0,0.0,0.0,0.0,0.0,0.0,0.0,0.0,0.0,0.0,0.0,0.0,0.0,0.0,0.0,0.0,0.0,0.0,0.0,0.0,0.0,0.0,0.0,0.0,0.0,0.0,0.0,0.0,0.0,0.0,0.0,0.0,0.0,0.0,0.0,0.0,0.0,0.0,1.7792,1.8142,1.7473,0.0,0.0,0.0,0.0,0.0,0.0,0.0,0.0,0.0,0.0,0.0,0.0,0.0,0.0,0.0,0.0,0.0,0.0,0.0,0.0,0.0,0.0,0.0,0.0,0.0,0.0,0.0,0.0,0.0,0.0,0.0,0.0,0.0,0.0,0.0,0.0,0.0,0.0,0.0,0.0,0.0,0.0,0.0,0.0,0.0,0.0,0.0,0.0,0.0,0.0,0.0,0.0,0.0,0.0,0.0,0.0,0.0,0.0,0.0,0.0,0.0,0.0,0.0,0.0,0.0,0.0,0.0,0.0,0.0,0.0,0.0,0.0,0.0,0.0,0.0,0.0,0.0,0.0,0.0,0.0,0.0,0.0,0.0,0.0,0.0,0.0,0.0,0.0,0.0,0.0,0.0,0.0,0.0,0.0,0.0,0.0,0.0,0.0,0.0,0.0,0.0,0.0,0.0,0.0,0.0,0.0,0.0,0.0,0.0,0.0,1.5882,0.0,1.6148,1.6141,1.5624,1.4625,0.0,0.0,0.0,0.0,0.0,0.0,0.0,0.0,0.0,0.0,0.0,0.0,0.0,0.0,0.0,0.0,0.0,0.0,0.0,0.0,0.0,0.0,0.0,0.0,0.0,0.0,0.0,0.0,0.0,0.0,0.0,0.0,0.0,0.0,0.0,0.0,0.0,0.0,0.0,0.0,0.0,0.0,0.0,0.0,0.0,0.0,0.0,0.0,0.0,0.0,0.0,0.0,0.0,0.0,0.0,0.0,0.0,0.0,0.0,0.0,0.0,0.0,0.0,0.0,0.0,0.0,0.0,0.0,0.0,0.0,0.0,0.0,0.0,0.0,0.0,0.0,0.0,0.0,0.0,0.0,0.0,0.0,0.0,0.0,0.0,0.0,0.0,0.0,0.0,0.0,0.0,0.0,0.0,0.0,0.0,0.0,0.0,0.0,0.0,0.0,0.0,0.0,0.0,0.0,0.0,0.0,0.0,0.0,0.0,1.4991,1.5014,1.4766,1.6464,1.655,0.0,0.0,0.0,0.0,0.0,0.0,0.0,0.0,0.0,0.0,0.0,0.0,0.0,0.0,0.0,0.0,0.0,0.0,0.0,0.0,0.0,0.0,0.0,0.0,0.0,0.0,0.0,0.0,0.0,0.0,0.0,0.0,0.0,0.0,0.0,0.0,0.0,0.0,0.0,0.0,0.0,0.0,0.0,0.0,0.0,0.0,0.0,0.0,0.0,0.0,0.0,0.0,0.0,0.0,0.0,0.0,0.0,0.0,0.0,0.0,0.0,0.0,0.0,0.0,0.0,0.0,0.0,0.0,0.0,0.0,0.0,0.0,0.0,0.0,0.0,0.0,0.0,0.0,0.0,0.0,0.0,0.0,0.0,0.0,0.0,0.0,0.0,0.0,0.0,0.0,0.0,0.0,0.0,0.0,0.0,0.0,0.0,0.0,0.0,0.0,0.0,0.0,0.0,0.0,0.0,0.0,0.0,0.0,0.0,1.2354,1.133,1.1082,1.1536,1.2681,1.331,0.0,0.0,0.0,0.0,0.0,0.0,0.0,0.0,0.0,0.0,0.0,0.0,0.0,0.0,0.0,0.0,0.0,0.0,0.0,0.0,0.0,0.0,0.0,0.0,0.0,0.0,0.0,0.0,0.0,0.0,0.0,0.0,0.0,0.0,0.0,0.0,0.0,0.0,0.0,0.0,0.0,0.0,0.0,0.0,0.0,0.0,0.0,0.0,0.0,0.0,0.0,0.0,0.0,0.0,0.0,0.0,0.0,0.0,0.0,0.0,0.0,0.0,0.0,0.0,0.0,0.0,0.0,0.0,0.0,0.0,0.0,0.0,0.0,0.0,0.0,0.0,0.0,0.0,0.0,0.0,0.0,0.0,0.0,0.0,0.0,0.0,0.0,0.0,0.0,0.0,0.0,0.0,0.0,0.0,0.0,0.0,0.0,0.0,0.0,0.0,0.0,0.0,0.0,0.0,0.0,0.0,0.0,0.0,0.0,0.9793,0.0,0.5456,0.0,0.8526,1.0297,0.0,0.0,0.0,0.0,0.0,0.0,0.0,0.0,0.0,0.0,0.0,0.0,0.0,0.0,0.0,0.0,0.0,0.0,0.0,0.0,0.0,0.0,0.0,0.0,0.0,0.0,0.0,0.0,0.0,0.0,0.0,0.0,0.0,0.0,0.0,0.0,0.0,0.0,0.0,0.0,0.0,0.0,0.0,0.0,0.0,0.0,0.0,0.0,0.0,0.0,0.0,0.0,0.0,0.0,0.0,0.0,0.0,0.0,0.0,0.0,0.0,0.0,0.0,0.0,0.0,0.0,0.0,0.0,0.0,0.0,0.0,0.0,0.0,0.0,0.0,0.0,0.0,0.0,0.0,0.0,0.0,0.0,0.0,0.0,0.0,0.0,0.0,0.0,0.0,0.0,0.0,0.0,0.0,0.0,0.0,0.0,0.0,0.0,0.0,0.0,0.0,0.0,0.0,0.0,0.0,0.0,0.0,0.0,1.4598,0.7203,0.0557,-0.1543,0.0815,0.4238,0.7627,0.0,0.0,0.0,0.0,0.0,0.0,0.0,0.0,0.0,0.0,0.0,0.0,0.0,0.0,0.0,0.0,0.0,0.0,0.0,0.0,0.0,0.0,0.0,0.0,0.0,0.0,0.0,0.0,0.0,0.0,0.0,0.0,0.0,0.0,0.0,0.0,0.0,0.0,0.0,0.0,0.0,0.0,0.0,0.0,0.0,0.0,0.0,0.0,0.0,0.0,0.0,0.0,0.0,0.0,0.0,0.0,0.0,0.0,0.0,0.0,0.0,0.0,0.0,0.0,0.0,0.0,0.0,0.0,0.0,0.0,0.0,0.0,0.0,0.0,0.0,0.0,0.0,0.0,0.0,0.0,0.0,0.0,0.0,0.0,0.0,0.0,0.0,0.0,0.0,0.0,0.0,0.0,0.0,0.0,0.0,0.0,0.0,0.0,0.0,0.0,0.0,0.0,0.0,0.0,0.0,0.0,0.0,0.0,0.0,-0.2884,-0.5288,-0.6022,-0.4723,-0.106,0.2382,0.0,0.0,0.0,0.0,0.0,0.0,0.0,0.0,0.0,0.0,0.0,0.0,0.0,0.0,0.0,0.0,0.0,0.0,0.0,0.0,0.0,0.0,0.0,0.0,0.0,0.0,0.0,0.0,0.0,0.0,0.0,0.0,0.0,0.0,0.0,0.0,0.0,0.0,0.0,0.0,0.0,0.0,0.0,0.0,0.0,0.0,0.0,0.0,0.0,0.0,0.0,0.0,0.0,0.0,0.0,0.0,0.0,0.0,0.0,0.0,0.0,0.0,0.0,0.0,0.0,0.0,0.0,0.0,0.0,0.0,0.0,0.0,0.0,0.0,0.0,0.0,0.0,0.0,0.0,0.0,0.0,0.0,0.0,0.0,0.0,0.0,0.0,0.0,0.0,0.0,0.0,0.0,0.0,0.0,0.0,0.0,0.0,0.0,0.0,0.0,0.0,0.0,0.0,0.0,0.0,0.0,0.0,0.0,0.0,-1.1234,-1.1698,-1.167,-1.0834,-0.6243,-0.1811,0.2207,0.0,0.0,0.0,0.0,0.0,0.0,0.0,0.0,0.0,0.0,0.0,0.0,0.0,0.0,0.0,0.0,0.0,0.0,0.0,0.0,0.0,0.0,0.0,0.0,0.0,0.0,0.0,0.0,0.0,0.0,0.0,0.0,0.0,0.0,0.0,0.0,0.0,0.0,0.0,0.0,0.0,0.0,0.0,0.0,0.0,0.0,0.0,0.0,0.0,0.0,0.0,0.0,0.0,0.0,0.0,0.0,0.0,0.0,0.0,0.0,0.0,0.0,0.0,0.0,0.0,0.0,0.0,0.0,0.0,0.0,0.0,0.0,0.0,0.0,0.0,0.0,0.0,0.0,0.0,0.0,0.0,0.0,0.0,0.0,0.0,0.0,0.0,0.0,0.0,0.0,0.0,0.0,0.0,0.0,0.0,0.0,0.0,0.0,0.0,0.0,0.0,0.0,0.0,0.0,0.0,0.0,0.0,0.0,-1.7228,-1.8051,-1.7873,-1.6674,-1.099,-0.5102,0.0,0.0,0.0,0.0,0.0,0.0,0.0,0.0,0.0,0.0,0.0,0.0,0.0,0.0,0.0,0.0,0.0,0.0,0.0,0.0,0.0,0.0,0.0,0.0,0.0,0.0,0.0,0.0,0.0,0.0,0.0,0.0,0.0,0.0,0.0,0.0,0.0,0.0,0.0,0.0,0.0,0.0,0.0,0.0,0.0,0.0,0.0,0.0,0.0,0.0,0.0,0.0,0.0,0.0,0.0,0.0,0.0,0.0,0.0,0.0,0.0,0.0,0.0,0.0,0.0,0.0,0.0,0.0,0.0,0.0,0.0,0.0,0.0,0.0,0.0,0.0,0.0,0.0,0.0,0.0,0.0,0.0,0.0,0.0,0.0,0.0,0.0,0.0,0.0,0.0,0.0,0.0,0.0,0.0,0.0,0.0,0.0,0.0,0.0,0.0,0.0,0.0,0.0,0.0,0.0,0.0,0.0,0.0,0.0,-1.7412,-1.8813,-1.8785,-1.7067,-1.3041,-0.8523,0.0,0.0,0.0,0.0,0.0,0.0,0.0,0.0,0.0,0.0,0.0,0.0,0.0,0.0,0.0,0.0,0.0,0.0,0.0,0.0,0.0,0.0,0.0,0.0,0.0,0.0,0.0,0.0,0.0,0.0,0.0,0.0,0.0,0.0,0.0,0.0,0.0,0.0,0.0,0.0,0.0,0.0,0.0,0.0,0.0,0.0,0.0,0.0,0.0,0.0,0.0,0.0,0.0,0.0,0.0,0.0,0.0,0.0,0.0,0.0,0.0,0.0,0.0,0.0,0.0,0.0,0.0,0.0,0.0,0.0,0.0,0.0,0.0,0.0,0.0,0.0,0.0,0.0,0.0,0.0,0.0,0.0,0.0,0.0,0.0,0.0,0.0,0.0,0.0,0.0,0.0,0.0,0.0,0.0,0.0,0.0,0.0,0.0,0.0,0.0,0.0,0.0,0.0,0.0,0.0,0.0,0.0,0.0,-1.6414,-1.7873,-1.9286,-1.9261,-1.7691,-1.4178,-0.9886,0.0,0.0,0.0,0.0,0.0,0.0,0.0,0.0,0.0,0.0,0.0,0.0,0.0,0.0,0.0,0.0,0.0,0.0,0.0,0.0,0.0,0.0,0.0,0.0,0.0,0.0,0.0,0.0,0.0,0.0,0.0,0.0,0.0,0.0,0.0,0.0,0.0,0.0,0.0,0.0,0.0,0.0,0.0,0.0,0.0,0.0,0.0,0.0,0.0,0.0,0.0,0.0,0.0,0.0,0.0,0.0,0.0,0.0,0.0,0.0,0.0,0.0,0.0,0.0,0.0,0.0,0.0,0.0,0.0,0.0,0.0,0.0,0.0,0.0,0.0,0.0,0.0,0.0,0.0,0.0,0.0,0.0,0.0,0.0,0.0,0.0,0.0,0.0,0.0,0.0,0.0,0.0,0.0,0.0,0.0,0.0,0.0,0.0,0.0,0.0,0.0,0.0,0.0,0.0,0.0,0.0,0.0,0.0,-1.5321,-1.8454,-1.936,-1.9301,-1.8216,-1.4667,-1.0132,0.0,0.0,0.0,0.0,0.0,0.0,0.0,0.0,0.0,0.0,0.0,0.0,0.0,0.0,0.0,0.0,0.0,0.0,0.0,0.0,0.0,0.0,0.0,0.0,0.0,0.0,0.0,0.0,0.0,0.0,0.0,0.0,0.0,0.0,0.0,0.0,0.0,0.0,0.0,0.0,0.0,0.0,0.0,0.0,0.0,0.0,0.0,0.0,0.0,0.0,0.0,0.0,0.0,0.0,0.0,0.0,0.0,0.0,0.0,0.0,0.0,0.0,0.0,0.0,0.0,0.0,0.0,0.0,0.0,0.0,0.0,0.0,0.0,0.0,0.0,0.0,0.0,0.0,0.0,0.0,0.0,0.0,0.0,0.0,0.0,0.0,0.0,0.0,0.0,0.0,0.0,0.0,0.0,0.0,0.0,0.0,0.0,0.0,0.0,0.0,0.0,0.0,0.0,0.0,0.0,0.0,0.0,0.0,-1.7659,-1.8096,-1.8271,-1.8258,-1.8067,-1.4622,-1.1411,0.0,0.0,0.0,0.0,0.0,0.0,0.0,0.0,0.0,0.0,0.0,0.0,0.0,0.0,0.0,0.0,0.0,0.0,0.0,0.0,0.0,0.0,0.0,0.0,0.0,0.0,0.0,0.0,0.0,0.0,0.0,0.0,0.0,0.0,0.0,0.0,0.0,0.0,0.0,0.0,0.0,0.0,0.0,0.0,0.0,0.0,0.0,0.0,1.7658,0.0,0.0,0.0,0.0,0.0,0.0,0.0,0.0,0.0,0.0,0.0,0.0,0.0,0.0,0.0,0.0,0.0,0.0,0.0,0.0,0.0,0.0,0.0,0.0,0.0,0.0,0.0,0.0,0.0,0.0,0.0,0.0,0.0,0.0,0.0,0.0,0.0,0.0,0.0,0.0,0.0,0.0,0.0,0.0,0.0,0.0,0.0,0.0,0.0,0.0,0.0,0.0,0.0,0.0,0.0,0.0,0.0,0.0,0.0,-1.8624,-1.7966,-1.7945,-1.7861,-1.7592,-1.5018,-1.2056,0.0,0.0,0.0,0.0,0.0,0.0,0.0,0.0,0.0,0.0,0.0,0.0,0.0,0.0,0.0,0.0,0.0,0.0,0.0,0.0,0.0,0.0,0.0,0.0,0.0,0.0,0.0,0.0,0.0,0.0,0.0,0.0,0.0,0.0,0.0,0.0,0.0,0.0,0.0,0.0,0.0,0.0,0.0,0.0,0.0,0.0,0.0,0.0,0.0,0.0,0.0,0.0,0.0,0.0,0.0,0.0,0.0,0.0,0.0,0.0,0.0,0.0,0.0,0.0,0.0,0.0,0.0,0.0,0.0,0.0,0.0,0.0,0.0,0.0,0.0,0.0,0.0,0.0,0.0,0.0,0.0,0.0,0.0,0.0,0.0,0.0,0.0,0.0,0.0,0.0,0.0,0.0,0.0,0.0,0.0,0.0,0.0,0.0,0.0,0.0,0.0,0.0,0.0,0.0,0.0,0.0,0.0,-1.783,-1.8882,-1.8006,-1.7941,-1.7704,-1.7205,-1.5431,-1.2538,-0.8494,0.0,0.0,0.0,0.0,0.0,0.0,0.0,0.0,0.0,0.0,0.0,0.0,0.0,0.0,0.0,0.0,0.0,0.0,0.0,0.0,0.0,0.0,0.0,0.0,0.0,0.0,0.0,0.0,0.0,0.0,0.0,0.0,0.0,0.0,0.0,0.0,0.0,0.0,1.7449,1.7083,0.0,0.0,0.0,0.0,0.0,0.0,0.0,0.0,1.6763,0.0,0.0,0.0,0.0,0.0,0.0,0.0,0.0,0.0,0.0,0.0,0.0,0.0,0.0,0.0,0.0,0.0,0.0,0.0,0.0,0.0,0.0,0.0,0.0,0.0,0.0,0.0,0.0,0.0,0.0,0.0,0.0,0.0,0.0,0.0,0.0,0.0,0.0,0.0,0.0,0.0,0.0,0.0,0.0,0.0,0.0,0.0,0.0,0.0,0.0,0.0,0.0,0.0,0.0,0.0,0.0,-1.5995,-1.8349,-1.9106,-1.8259,-1.7814,-1.7353,-1.6856,-1.5175,-1.3222,-1.0923,0.0,0.0,0.0,0.0,0.0,0.0,0.0,0.0,0.0,0.0,0.0,0.0,0.0,0.0,0.0,0.0,0.0,0.0,0.0,0.0,0.0,0.0,0.0,0.0,0.0,0.0,0.0,0.0,0.0,0.0,0.0,0.0,0.0,0.0,0.0,0.0,0.0,0.0,0.0,1.5124,1.4056,0.0,0.0,0.0,0.0,0.0,0.0,0.0,0.0,1.4588,0.0,0.0,0.0,0.0,0.0,0.0,0.0,0.0,0.0,0.0,0.0,0.0,0.0,0.0,0.0,0.0,0.0,0.0,0.0,0.0,0.0,0.0,0.0,0.0,0.0,0.0,0.0,0.0,0.0,0.0,0.0,0.0,0.0,0.0,0.0,0.0,0.0,0.0,0.0,0.0,0.0,0.0,0.0,0.0,0.0,0.0,0.0,0.0,0.0,0.0,0.0,0.0,0.0,0.0,0.0,-1.739,-1.9552,-1.9722,-1.7814,-1.7611,-1.7093,-1.6137,-1.4883,-1.4021,0.0,0.0,0.0,0.0,0.0,0.0,0.0,0.0,0.0,0.0,0.0,0.0,0.0,0.0,0.0,0.0,0.0,0.0,0.0,0.0,0.0,0.0,0.0,0.0,0.0,0.0,0.0,0.0,0.0,0.0,0.0,0.0,0.0,0.0,0.0,0.0,0.0,0.0,0.0,0.0,1.4694,1.3376,1.2902,0.0,0.0,0.0,0.0,0.0,0.0,0.8077,0.9052,0.0,0.0,0.0,0.0,0.0,0.0,0.0,0.0,0.0,0.0,0.0,0.0,0.0,0.0,0.0,0.0,0.0,0.0,0.0,0.0,0.0,0.0,0.0,0.0,0.0,0.0,0.0,0.0,0.0,0.0,0.0,0.0,0.0,0.0,0.0,0.0,0.0,0.0,0.0,0.0,0.0,0.0,0.0,0.0,0.0,0.0,0.0,0.0,0.0,0.0,0.0,0.0,0.0,0.0,0.0,-1.8564,-2.0559,-2.0229,-1.7441,-1.7492,-1.6852,-1.5315,-1.4451,-1.4109,0.0,0.0,0.0,0.0,0.0,0.0,0.0,0.0,0.0,0.0,0.0,0.0,0.0,0.0,0.0,0.0,0.0,0.0,0.0,0.0,0.0,0.0,0.0,0.0,0.0,0.0,0.0,0.0,0.0,0.0,0.0,0.0,0.0,0.0,0.0,0.0,0.0,0.0,0.0,0.0,0.0,1.2844,1.2627,1.0008,0.0,0.0,0.0,0.0,0.169,0.1936,0.0,0.0,0.0,0.0,0.0,0.0,0.0,0.0,0.0,0.0,0.0,0.0,0.0,0.0,0.0,0.0,0.0,0.0,0.0,0.0,0.0,0.0,0.0,0.0,0.0,0.0,0.0,0.0,0.0,0.0,0.0,0.0,0.0,0.0,0.0,0.0,0.0,0.0,0.0,0.0,0.0,0.0,0.0,0.0,0.0,0.0,0.0,0.0,0.0,0.0,0.0,0.0,0.0,0.0,0.0,0.0,-1.9202,-2.0679,-2.0171,-1.7699,-1.7587,-1.6576,-1.4504,-1.3704,-1.2426,0.0,0.0,0.0,0.0,0.0,0.0,0.0,0.0,0.0,0.0,0.0,0.0,0.0,0.0,0.0,0.0,0.0,0.0,0.0,0.0,0.0,0.0,0.0,0.0,0.0,0.0,0.0,0.0,0.0,0.0,0.0,0.0,0.0,0.0,0.0,0.0,0.0,0.0,0.0,0.0,0.0,1.1358,1.3208,0.7539,0.2658,0.0,0.0,-0.1879,-0.1519,-0.2163,0.0,0.0,0.0,0.0,0.0,0.0,0.0,0.0,0.0,0.0,0.0,0.0,0.0,0.0,0.0,0.0,0.0,0.0,0.0,0.0,0.0,0.0,0.0,0.0,0.0,0.0,0.0,0.0,0.0,0.0,0.0,0.0,0.0,0.0,0.0,0.0,0.0,0.0,0.0,0.0,0.0,0.0,0.0,0.0,0.0,0.0,0.0,0.0,0.0,0.0,0.0,0.0,0.0,0.0,0.0,-1.9259,-1.9734,-2.1311,-2.0673,-1.7722,-1.7418,-1.6331,-1.4295,-1.3455,-1.1814,0.0,0.0,0.0,0.0,0.0,0.0,0.0,0.0,0.0,0.0,0.0,0.0,0.0,0.0,0.0,0.0,0.0,0.0,0.0,0.0,0.0,0.0,0.0,0.0,0.0,0.0,0.0,0.0,0.0,0.0,0.0,0.0,0.0,0.0,0.0,0.0,0.0,0.0,0.0,0.0,0.0,0.0,0.4806,0.0975,0.0,0.0,0.0,-0.5966,-0.7218,0.0,0.0,0.0,0.0,0.0,0.0,0.0,0.0,0.0,0.0,0.0,0.0,0.0,0.0,0.0,0.0,0.0,0.0,0.0,0.0,0.0,0.0,0.0,0.0,0.0,0.0,0.0,0.0,0.0,0.0,0.0,0.0,0.0,0.0,0.0,0.0,0.0,0.0,0.0,0.0,0.0,0.0,0.0,0.0,0.0,0.0,0.0,0.0,0.0,0.0,0.0,0.0,0.0,0.0,0.0,0.0,0.0,-2.0079,-2.1581,-2.0841,-1.7767,-1.7248,-1.6077,-1.4071,-1.3239,0.0,0.0,0.0,0.0,0.0,0.0,0.0,0.0,0.0,0.0,0.0,0.0,0.0,0.0,0.0,0.0,0.0,0.0,0.0,0.0,0.0,0.0,0.0,0.0,0.0,0.0,0.0,0.7693,0.0,0.0,0.0,0.0,0.0,0.0,0.0,0.0,0.0,0.0,0.0,0.0,0.0,0.0,0.0757,-0.2381,-0.4534,-0.568,0.0,0.0,-0.9546,-1.1459,-1.0722,-0.9108,0.0,0.0,0.0,0.0,0.0,0.0,0.0,0.0,0.0,0.0,0.0,0.0,0.0,0.0,0.0,0.0,0.0,0.0,0.0,0.0,0.0,0.0,0.0,0.0,0.0,0.0,0.0,0.0,0.0,0.0,0.0,0.0,0.0,0.0,0.0,0.0,0.0,0.0,0.0,0.0,0.0,0.0,0.0,0.0,0.0,0.0,0.0,0.0,0.0,0.0,0.0,0.0,0.0,0.0,0.0,-2.0175,-2.1056,-2.0302,-1.788,-1.7212,-1.581,-1.3539,-1.2914,-1.1271,0.0,0.0,0.0,0.0,0.0,0.0,0.0,0.0,0.0,0.0,0.0,0.0,0.0,0.0,0.0,0.0,0.0,0.0,0.0,0.0,0.0,0.0,0.0,0.0,0.0,0.0,0.0,0.0,0.0,0.0,0.0,0.0,0.0,0.0,0.0,0.0,0.0,0.0,0.0,0.0,0.0,-0.6291,-0.428,-0.6751,-0.9364,0.0,0.0,-1.2727,-1.223,-1.1044,-0.9835,-0.8838,0.0,0.0,0.0,0.0,0.0,0.0,0.0,0.0,0.0,0.0,0.0,0.0,0.0,0.0,0.0,0.0,0.0,0.0,0.0,0.0,0.0,0.0,0.0,0.0,0.0,0.0,0.0,0.0,0.0,0.0,0.0,0.0,0.0,0.0,0.0,0.0,0.0,0.0,0.0,0.0,0.0,0.0,0.0,0.0,0.0,0.0,0.0,0.0,0.0,0.0,0.0,0.0,0.0,-1.9648,-2.009,-2.1111,-2.027,-1.7481,-1.6539,-1.5029,-1.2837,-1.2304,-1.0881,0.0,0.0,0.0,0.0,0.0,0.0,0.0,0.0,0.0,0.0,0.0,0.0,0.0,0.0,0.0,0.0,0.0,0.0,0.0,0.0,0.0,0.0,0.0,0.0,0.0,0.0,0.0,0.0,0.5826,0.5962,0.6466,0.0,0.0,0.0,0.0,0.0,0.0,0.0,0.0,0.0,0.0,-1.1667,-1.2744,-1.34,0.0,0.0,-1.2611,-1.2538,-1.2352,-1.1397,-1.0001,-0.8209,-0.6781,0.0,0.0,0.0,0.0,0.0,0.0,0.0,0.0,0.0,0.0,0.0,0.0,0.0,0.0,0.0,0.0,0.0,0.0,0.0,0.0,0.0,0.0,0.0,0.0,0.0,0.0,0.0,0.0,0.0,0.0,0.0,0.0,0.0,0.0,0.0,0.0,0.0,0.0,0.0,0.0,0.0,0.0,0.0,0.0,0.0,0.0,0.0,0.0,0.0,0.0,0.0,0.0,-1.9821,-2.0271,-2.0811,-1.9517,-1.6331,-1.5741,-1.4421,-1.229,-1.185,-1.0664,0.0,0.0,0.0,0.0,0.0,0.0,0.0,0.0,0.0,0.0,0.0,0.0,0.0,0.0,0.0,0.0,0.0,0.0,0.0,0.0,0.0,0.0,0.0,0.0,0.0,0.0,0.0,0.0,0.4011,0.4539,0.6028,0.0,0.0,0.0,0.0,0.0,0.0,0.0,0.0,0.0,0.0,-1.6915,-1.8689,-1.8129,-1.6652,-1.4306,-1.352,-1.3149,-1.2905,-1.192,-1.0486,-0.8468,0.0,0.0,0.0,0.0,0.0,0.0,0.0,0.0,0.0,0.0,0.0,0.0,0.0,0.0,0.0,0.0,0.0,0.0,0.0,0.0,0.0,0.0,0.0,0.0,0.0,0.0,0.0,0.0,0.0,0.0,-1.032,0.0,0.0,0.0,0.0,0.0,0.0,0.0,0.0,0.0,0.0,0.0,0.0,0.0,0.0,0.0,0.0,0.0,0.0,0.0,0.0,0.0,0.0,-1.9562,-2.0809,-1.9964,-1.7814,-1.4507,-1.4856,-1.4017,-1.1817,-1.1628,-1.0661,-0.8709,0.0,0.0,0.0,0.0,0.0,0.0,0.0,0.0,0.0,0.0,0.0,0.0,0.0,0.0,0.0,0.0,0.0,0.0,0.0,0.0,0.0,0.0,0.0,0.0,0.0,0.0,0.0162,0.1626,0.327,0.0,0.0,0.0,0.0,0.0,0.0,0.0,0.0,0.0,0.0,-2.2818,-2.211,-2.0398,-1.97,-1.8503,-1.6276,-1.5668,-1.5162,-1.412,-1.2714,-1.1312,0.0,0.0,0.0,0.0,0.0,0.0,0.0,0.0,0.0,0.0,0.0,0.0,0.0,0.0,0.0,0.0,0.0,0.0,0.0,0.0,0.0,0.0,0.0,0.0,0.0,0.0,0.0,-1.4149,-1.3452,0.0,0.0,0.0,0.0,0.0,0.0,0.0,0.0,0.0,0.0,0.0,-1.7412,-1.7279,0.0,0.0,0.0,0.0,0.0,0.0,0.0,0.0,0.0,0.0,0.0,0.0,-1.8974,-1.9662,-1.9512,-1.7497,-1.3683,-1.3976,-1.3252,-1.1217,-1.1135,-0.991,-0.7339,0.0,0.0,0.0,0.0,0.0,0.0,0.0,0.0,0.0,0.0,0.0,0.0,0.0,0.0,0.0,0.0,0.0,0.0,0.0,0.0,0.0,0.0,0.0,0.0,0.0,-0.2546,0.0,0.0,0.0,0.0,0.0,0.0,0.0,0.0,0.0,0.0,0.0,-2.3987,-2.4174,-2.3889,-2.3088,-2.155,-2.0649,-1.9568,0.0,0.0,0.0,0.0,0.0,0.0,0.0,0.0,0.0,0.0,0.0,0.0,0.0,0.0,-1.0316,-1.039,-1.0992,-1.2034,-1.3769,0.0,0.0,0.0,0.0,0.0,0.0,0.0,0.0,0.0,0.0,0.0,0.0,0.0,0.0,-1.5114,0.0,-1.4007,0.0,0.0,0.0,0.0,0.0,0.0,0.0,0.0,-1.7026,-1.7272,-1.8137,-1.8016,-1.8102,0.0,-1.9021,-1.9339,0.0,0.0,0.0,0.0,0.0,0.0,0.0,0.0,-1.8659,-1.8555,-1.8529,-1.6796,-1.3334,-1.3318,-1.256,-1.0787,-1.0206,-0.8822,-0.6457,-0.6409,-0.5768,0.0,0.0,0.0,0.0,0.0,0.0,0.0,0.0,0.0,0.0,0.0,0.0,0.0,0.0,0.0,0.0,0.0,0.0,0.0,0.0,0.0,0.0,0.0,-0.513,0.0,0.0,0.0,0.0,0.0,0.0,0.0,0.0,0.0,-2.1583,-2.2777,-2.3707,-2.4189,-2.3607,-2.283,-2.1923,0.0,0.0,0.0,0.0,0.0,0.0,0.0,-1.3708,-1.178,-1.1759,-1.1803,-1.1153,-1.2161,-1.3185,-1.3606,0.0,0.0,-1.3459,-1.3423,-1.3564,-1.405,-1.4731,-1.539,-1.5832,-1.6244,-1.6528,0.0,0.0,0.0,0.0,0.0,0.0,0.0,0.0,-1.6114,-1.5586,0.0,-1.525,0.0,0.0,0.0,0.0,0.0,0.0,0.0,0.0,-1.8075,-1.763,-1.7461,-1.7899,-1.7998,-1.7827,-1.9408,-2.0203,-2.0164,-1.9264,0.0,0.0,0.0,0.0,0.0,0.0,-1.8547,-1.7558,-1.7122,-1.5684,-1.3284,-1.2869,-1.1946,-1.0381,-0.8956,-0.7555,-0.62,-0.6514,-0.5989,-0.4337,-0.4505,0.0,0.0,0.0,0.0,0.0,0.0,0.0,0.0,0.0,0.0,0.0,0.0,0.0,0.0,0.0,0.0,0.0,0.0,0.0,0.0,-0.7182,0.0,0.0,0.0,0.0,0.0,0.0,0.0,0.0,0.0,0.0,-2.2362,-2.3317,-2.3801,-2.3296,0.0,0.0,0.0,0.0,-2.0363,-1.9923,-1.9233,-1.8391,-1.7322,-1.6317,-1.5225,-1.3987,0.0,0.0,-1.3525,-1.3777,-1.3945,-1.3798,-1.4033,-1.4375,-1.4463,-1.3641,-1.3392,-1.4381,-1.4681,-1.5129,-1.6151,-1.6361,-1.646,-1.8158,0.0,0.0,0.0,0.0,-1.6636,-1.6391,-1.6391,-1.6391,-1.6036,-1.5406,-1.5576,0.0,0.0,0.0,0.0,0.0,0.0,-1.8594,-1.947,-1.8108,-1.7901,-1.8734,-1.7662,-1.7379,-1.7873,-1.8735,-1.9216,-1.9288,-1.902,-1.8899,-1.8983,0.0,0.0,0.0,0.0,-1.7548,-1.7337,-1.6768,-1.5352,-1.3093,-1.258,-1.146,-0.9598,-0.8428,-0.7288,-0.6154,-0.6134,-0.5649,-0.461,-0.4525,0.0,0.0,0.0,0.0,0.0,0.0,0.0,0.0,0.0,0.0,0.0,0.0,0.0,0.0,0.0,0.0,0.0,0.0,0.0,-0.8859,-0.9133,-0.9438,0.0,0.0,0.0,0.0,0.0,0.0,0.0,0.0,0.0,-2.2151,-2.2914,-2.3379,0.0,0.0,-2.1956,-2.1947,-2.1046,-2.0203,-1.9752,0.0,0.0,0.0,-1.6685,-1.5832,-1.4652,-1.3825,-1.3273,-1.3105,-1.3184,-1.3204,-1.3138,-1.3247,-1.3337,-1.3429,-1.3841,-1.4113,-1.4133,-1.4383,-1.4911,-1.5654,-1.5842,-1.5979,-1.768,-1.7463,-1.7347,-1.7305,-1.7271,-1.6723,-1.6528,-1.6528,-1.6528,-1.6333,-1.6026,-1.6255,-1.6294,-1.6231,-1.6417,0.0,0.0,0.0,-1.8465,-1.914,-1.763,-1.7347,-1.8056,-1.7056,-1.68,-1.7291,-1.8086,-1.8488,-1.8574,-1.8721,-1.8718,-1.86,0.0,0.0,-1.7194,-1.7183,-1.6973,-1.6534,-1.6012,-1.4855,-1.312,-1.1984,-1.0605,-0.8906,-0.7917,-0.6984,-0.601,-0.5767,-0.5248,-0.4397,-0.4365,-0.4132,0.0,0.0,0.0,0.0,0.0,0.0,0.0,0.0,0.0,0.0,0.0,-0.279,-0.3439,0.0,0.0,0.0,-0.8,-1.0046,-1.1163,-1.1759,0.0,0.0,0.0,0.0,0.0,0.0,0.0,-2.104,-2.1271,-2.1334,-2.1636,-2.2051,-2.2345,-2.2345,-2.193,-2.1681,-2.1673,0.0,-1.9904,-1.9649,-1.8387,-1.7436,-1.7313,-1.6471,-1.5492,-1.4499,-1.3552,-1.2934,-1.2886,-1.2662,-1.2559,-1.2774,-1.2666,-1.2554,-1.2827,-1.3525,-1.3967,-1.3815,-1.4071,-1.453,-1.5129,-1.5229,-1.5339,-1.6951,-1.6552,-1.7034,-1.7229,-1.7194,-1.6723,-1.6528,-1.6528,-1.6528,-1.6528,-1.6515,-1.7034,-1.7229,-1.7271,-1.774,0.0,0.0,-1.802,-1.8046,-1.8044,-1.6904,-1.6338,-1.6297,-1.631,-1.6261,-1.6253,-1.7432,-1.8018,-1.8066,-1.8384,-1.8104,-1.7319,-1.774,-1.7471,-1.6558,-1.6994,-1.6682,-1.5518,-1.5069,-1.4229,-1.3019,-1.1143,-0.9585,-0.8382,-0.7499,-0.6677,-0.5841,-0.5441,-0.4833,-0.3931,-0.4165,-0.4094,-0.3621,0.0,0.0,0.0,0.0,0.0,0.0,0.0,0.0,0.0,0.0,0.0,0.0,0.0,0.0,0.0,-1.1375,0.0,-1.2861,-1.4566,0.0,0.0,0.0,-1.6368,-1.7811,-1.8397,-1.9257,-2.0661,0.0,0.0,-2.0805,0.0,-2.0773,-2.0773,-2.0846,-2.0894,-2.0846,-2.002,-1.947,-1.9339,-1.7751,-1.6639,-1.6864,-1.5683,-1.4517,-1.3941,-1.3294,-1.2881,-1.2779,-1.229,-1.2129,-1.251,-1.2187,-1.1873,-1.2622,-1.2671,-1.2905,-1.3384,-1.3618,-1.3887,-1.4466,-1.4627,-1.4654,-1.6644,-1.6515,-1.6631,-1.6674,-1.6674,-1.6552,-1.6528,-1.6528,-1.6528,-1.6528,-1.6522,-1.6631,-1.6674,-1.6716,-1.6831,-1.7111,-1.7463,-1.7504,-1.77,-1.8057,-1.7301,-1.6709,-1.6303,-1.6203,-1.5987,-1.5778,-1.6807,-1.7378,-1.7497,-1.7706,-1.7658,-1.7319,-1.7028,-1.6763,-1.6519,-1.6655,-1.6532,-1.623,-1.4937,-1.3368,-1.1496,-1.0321,-0.9386,-0.8605,-0.7852,-0.6965,-0.5909,-0.5318,-0.4751,-0.4295,-0.3952,-0.3711,-0.359,-0.3591,0.0,0.0,0.0,0.0,0.0,0.0,0.0,0.0,0.0,-0.4875,-0.5535,0.0,-0.8192,0.0,-1.2149,-1.3802,-1.4187,-1.5045,0.0,0.0,-1.6434,-1.693,-1.7415,-1.8224,-1.8914,-1.9272,-1.9345,-1.9338,-1.9338,-1.8993,-1.8797,-1.879,-1.9455,-1.9768,-1.9374,-1.8821,-1.8313,-1.7838,-1.6765,-1.5864,-1.548,-1.4422,-1.3572,-1.3756,-1.3283,-1.273,-1.2189,-1.195,-1.172,-1.1371,-1.117,-1.1116,-1.1325,-1.1325,-1.1375,-1.1562,-1.2368,-1.3303,-1.3884,-1.3987,-1.4127,-1.6528,-1.6528,-1.6528,-1.6337,-1.6145,-1.6386,-1.6528,-1.6528,-1.6528,-1.6528,-1.6528,-1.6528,-1.6528,-1.6528,-1.6528,-1.6674,-1.6964,-1.6951,-1.7111,-1.7354,-1.6758,-1.6315,-1.6049,-1.5966,-1.5788,-1.5634,-1.6448,-1.6874,-1.6944,-1.7044,-1.6903,-1.6538,-1.6002,-1.57,-1.57,-1.5964,-1.6253,-1.6478,-1.3786,-1.1839,-1.0715,-0.9971,-0.9224,-0.8491,-0.7684,-0.6742,-0.5674,-0.5168,-0.4582,-0.3954,-0.3716,-0.3447,-0.3086,-0.3068,-0.3205,0.0,0.0,0.0,0.0,0.0,0.0,0.0,0.0,0.0,0.0,0.0,-1.0045,0.0,-1.3736,0.0,-1.5482,-1.6195,-1.6759,-1.7068,-1.7383,-1.7577,-1.7626,-1.8143,-1.8471,-1.8478,-1.8486,-1.8464,-1.8486,-1.8281,-1.7824,-1.7196,-1.7545,-1.7958,-1.8019,-1.7328,-1.6572,-1.625,-1.5195,-1.4169,-1.3627,-1.3281,-1.3003,-1.2717,-1.2532,-1.2152,-1.1456,-1.1082,-1.0864,-1.0817,-1.0564,-1.0462,-1.0716,-1.0813,-1.0813,-1.0914,-1.1379,-1.203,-1.239,-1.2459,-1.2585,-1.6262,-1.625,-1.6287,-1.5958,-1.5543,-1.6058,-1.6337,-1.638,-1.638,-1.638,-1.6374,-1.6386,-1.6386,-1.6386,-1.6466,-1.6472,-1.638,-1.6472,-1.6528,-1.6454,-1.6019,-1.5762,-1.5706,-1.5768,-1.5727,-1.5601,-1.6125,-1.6355,-1.6256,-1.6435,-1.6151,-1.5466,-1.4824,-1.4556,-1.4698,-1.5141,-1.5568,-1.5928,-1.2112,-1.0155,-1.0303,-0.9756,-0.9068,-0.8188,-0.7359,-0.6415,-0.5354,-0.5094,-0.4488,-0.3425,-0.3424,-0.3221,-0.2718,-0.2805,-0.3118,0.0,-0.4506,0.0,0.0,0.0,0.0,0.0,0.0,0.0,0.0,-1.0224,-1.2208,-1.4681,-1.5421,-1.5974,-1.6481,-1.7396,-1.7933,-1.7807,-1.786,-1.786,-1.7814,-1.7854,-1.7907,-1.79,-1.7854,-1.7767,-1.7726,-1.772,-1.7082,-1.5894,-1.553,-1.5742,-1.6373,-1.5562,-1.4775,-1.4693,-1.3406,-1.2327,-1.1812,-1.2136,-1.2202,-1.1387,-1.1474,-1.1458,-1.0767,-1.0214,-0.9965,-1.0368,-1.0016,-0.9865,-1.0415,-1.0517,-1.0521,-1.0462,-1.0517,-1.0665,-1.0914,-1.0965,-1.0813,-1.5017,-1.5068,-1.5017,-1.4977,-1.4886,-1.4977,-1.5332,-1.5776,-1.577,-1.5776,-1.577,-1.577,-1.5764,-1.582,-1.6281,-1.6232,-1.5814,-1.6281,-1.6528,-1.6515,-1.6366,-1.6132,-1.5737,-1.6158,-1.5867,-1.5031,-1.5527,-1.5492,-1.5068,-1.6049,-1.594,-1.4875,-1.3796,-1.3761,-1.4641,0.0,0.0,0.0,-1.0473,-0.9212,-0.9639,-0.9164,-0.8579,-0.7966,-0.7809,0.0,-0.5392,-0.5352,-0.4798,-0.3584,-0.3132,0.0,0.0,0.0,0.0,0.0,0.0,0.0,0.0,0.0,0.0,0.0,-0.7465,-0.785,-0.8699,-1.1155,-1.3298,-1.4684,-1.5709,-1.635,-1.6503,-1.7088,-1.7079,-1.6219,-1.6514,-1.6606,-1.6139,-1.6508,-1.6795,-1.6795,-1.6373,-1.6096,-1.6089,-1.5646,-1.5148,-1.4559,-1.4026,-1.3639,-1.3513,-1.3595,-1.3639,-1.3558,-1.223,-1.11,-1.0507,-1.0391,-1.0521,-1.0466,-1.078,-1.0687,-1.006,-0.9858,-0.9558,-0.9302,-0.9057,-0.9008,-0.9155,-0.9159,-0.9148,-0.9208,-0.9159,-0.9514,-1.0564,-1.0762,-1.0813,-1.4713,0.0,-1.4496,-1.4211,0.0,-1.4255,-1.4384,-1.4423,-1.4941,-1.5147,-1.5141,-1.5173,-1.5167,-1.5152,-1.5492,-1.5441,-1.5186,-1.5466,-1.5605,-1.5611,-1.5611,-1.5469,-1.5219,-1.5487,-1.5298,-1.4756,-1.5038,-1.5011,-1.472,-1.532,-1.5135,-1.4242,-1.333,-1.3042,-1.3253,-1.3339,-1.2827,-1.1841,-1.0028,-0.9151,-0.9248,-0.8776,-0.8326,-0.7927,0.0,0.0,0.0,0.0,0.0,0.0,0.0,0.0,0.0,0.0,0.0,-0.5361,-0.6108,-0.6637,-0.6822,-0.713,-0.7551,-0.8078,-0.8558,-0.9289,-1.0307,-1.2257,-1.3782,-1.465,-1.5263,-1.5576,-1.5599,-1.5846,-1.5784,-1.5236,-1.5421,-1.5472,-1.5236,-1.5427,-1.5611,-1.5605,-1.5332,-1.5147,-1.5141,-1.492,-1.43,-1.3482,-1.3057,-1.239,-1.1359,-1.1494,-1.168,-1.1145,-1.051,-0.9794,-0.9464,-0.9212,-0.8977,-0.9082,-0.9056,-0.8854,-0.8305,-0.8227,-0.8072,-0.7774,-0.7726,-0.772,-0.7717,-0.7726,-0.772,-0.7723,-0.7723,-0.7877,-0.8633,-0.9273,-0.9707,-1.4206,-1.4136,-1.3801,-1.3363,-1.2866,-1.3406,-1.3417,-1.3028,0.0,0.0,0.0,-1.4546,-1.4557,-1.4525,-1.4671,-1.466,-1.4566,-1.4652,-1.4703,-1.4703,-1.4703,-1.4703,-1.4703,-1.4731,-1.4634,-1.4571,-1.4564,-1.4408,-1.4231,-1.4321,-1.3979,-1.3299,-1.2779,-1.2201,-1.1688,-1.2227,-1.2018,-1.0972,-0.9899,-0.9283,-0.9021,-0.8531,-0.8055,-0.7699,-0.6908,-0.6154,-0.5428,-0.5096,-0.4713,-0.423,-0.4254,-0.4268,-0.427,-0.437,-0.4661,-0.5142,-0.5743,-0.6476,-0.728,-0.7923,-0.8448,-0.8791,-0.9413,-1.0384,-1.179,-1.282,-1.3658,-1.4106,-1.4267,-1.4411,-1.4503,-1.4549,-1.4509,-1.452,-1.4652,-1.4703,-1.4566,-1.4652,-1.4698,-1.4549,-1.4411,-1.4307,-1.4111,-1.3966,-1.3544,-1.232,-1.1961,-1.1446,-0.9849,-0.9755,-0.9744,-0.8952,-0.8627,-0.8394,-0.8212,-0.8013,-0.775,-0.7367,-0.7285,-0.7053,-0.6715,-0.6584,-0.6597,-0.6748,-0.6591,-0.6642,-0.6645,-0.6699,-0.6591,-0.6591,-0.6591,-0.6591,-0.6699,-0.7563,-0.8209,-1.2363,-1.2032,-1.1972,-1.1909,-1.1821,-1.1904,-1.2084,-1.2436,-1.344,-1.3915,-1.3909,-1.394,-1.394,-1.3956,-1.4444,-1.4444,-1.3962,-1.4474,-1.4703,0.0,-1.4703,-1.4703,-1.4715,-1.4723,-1.4433,-1.3936,-1.3904,-1.33,-1.2384,-1.2866,-1.2511,-1.1375,-1.1116,-1.1065,-1.0977,-1.106,-1.0736,-0.9995,-0.9258,-0.8845,-0.8736,-0.8231,-0.7641,-0.6969,-0.6801,-0.6208,-0.5014,-0.5035,-0.4826,-0.4221,-0.4391,-0.4458,-0.4455,-0.4985,-0.5362,-0.5464,-0.6114,-0.6564,-0.6699,-0.7396,-0.8115,-0.8748,-0.9413,-1.0136,-1.0944,-1.167,-1.2087,-1.2153,-1.2696,-1.3296,-1.3752,-1.3799,-1.3763,-1.3899,-1.4376,-1.4463,-1.3962,-1.4277,-1.4318,-1.381,-1.3385,-1.2807,-1.2294,-1.1828,-1.1266,-1.0435,-1.0438,-1.0002,-0.8933,-0.8703,-0.863,-0.8053,-0.7522,-0.7061,-0.67,-0.6258,-0.6123,-0.5984,-0.6205,-0.6308,-0.6292,-0.628,-0.6343,-0.6561,-0.6428,-0.6485,-0.6482,-0.6591,-0.6482,-0.6428,-0.6431,-0.6485,-0.6431,-0.6753,-0.6861,-1.1995,-1.1654,-1.1342,-1.0922,-1.0557,-1.0553,-1.0831,-1.1278,-1.1886,-1.2609,-1.3281,-1.3329,-1.3329,-1.3329,-1.361,-1.3563,-1.3329,-1.3615,-1.37,-1.3705,-1.3316,-1.3331,-1.3652,-1.2929,-1.2628,-1.2706,-1.26,-1.2095,-1.1438,-1.2351,-1.2195,-1.0876,-1.0462,-1.0052,-0.9681,-0.9687,-0.9165,-0.8066,-0.7747,-0.7712,-0.7898,-0.7299,-0.6734,-0.6258,-0.6022,-0.5592,-0.505,-0.4861,-0.4637,-0.4372,-0.444,-0.4477,-0.4527,-0.4798,-0.5119,-0.5487,-0.5814,-0.6202,-0.6588,-0.6912,-0.7238,-0.7616,-0.7865,-0.8383,-0.9065,-1.0442,-1.1258,-1.124,-1.1548,-1.1787,-1.2113,-1.2118,-1.2127,-1.2146,-1.2429,-1.2473,-1.2239,-1.2381,-1.2459,-1.2162,-1.1881,-1.1594,-1.124,-1.0952,-1.059,-1.0041,-0.943,-0.8576,-0.7953,-0.7468,-0.7118,-0.6895,-0.6443,-0.6019,-0.5688,-0.539,-0.5204,-0.513,-0.5123,-0.5121,-0.5197,-0.5293,-0.5375,-0.5425,-0.5466,-0.5468,-0.5466,-0.5468,-0.5466,-0.5464,-0.5468,-0.5468,-0.5468,-0.5466,-0.5629,-1.1567,-1.1244,-1.072,-1.0198,-0.9645,-0.9645,-0.9896,-1.0349,-1.0574,-1.1351,-1.2353,-1.2412,-1.2407,-1.2412,-1.2412,-1.2417,-1.2412,-1.2417,-1.2461,-1.2363,-1.1828,-1.1877,-1.2255,-1.1262,-1.1044,-1.1525,-1.1403,-1.1103,-1.0799,-1.1813,-1.1532,-0.9982,-0.9318,-0.88,-0.8215,-0.8293,-0.7716,-0.6642,-0.6269,-0.6455,-0.7069,-0.6584,-0.613,-0.5741,-0.5463,-0.5181,-0.4977,-0.4632,-0.4312,-0.4025,-0.3978,-0.3979,-0.397,-0.4312,-0.4752,-0.5226,-0.5281,-0.5548,-0.6032,-0.614,-0.6251,-0.6591,-0.6591,-0.6858,-0.7501,-0.8901,-0.999,-1.0257,-1.0301,-1.034,-1.0336,-1.0175,-1.0128,-1.0281,-1.0328,-1.0481,-1.0543,-1.0543,-1.0555,-1.0559,-1.0458,-1.0293,-1.014,-0.9931,-0.9621,-0.908,-0.809,-0.7271,-0.7125,-0.629,-0.5763,-0.5768,-0.5515,-0.5132,-0.4997,-0.4666,-0.453,-0.4499,-0.4319,-0.4031,-0.3841,-0.378,-0.3941,-0.394,-0.3979,-0.3976,-0.3981,-0.3981,-0.3978,-0.3974,-0.3974,-0.3979,-0.3976,-0.3976,-0.4371,-1.0171,-0.9713,-0.9702,-0.9607,-0.947,-0.9474,-0.9776,-1.0176,-1.0233,-1.0528,-1.096,-1.1028,-1.1023,-1.0973,-1.1019,-1.1074,-1.1074,-1.1015,-1.1019,-1.107,-1.0918,-1.0918,-1.1065,-1.0847,-1.0801,-1.0864,-1.0785,-1.0379,-0.9865,-1.0546,-0.9658,-0.727,-0.6934,-0.6902,-0.6799,-0.6864,-0.6756,-0.6588,-0.5348,-0.5339,-0.6556,-0.6607,-0.622,-0.5547,-0.5686,-0.5389,-0.4555,-0.4536,-0.3868,-0.2566,-0.2455,-0.2399,-0.2566,-0.3697,-0.4494,-0.4546,-0.4601,-0.4639,-0.471,-0.4694,-0.5247,-0.6421,-0.6534,-0.6534,-0.6645,-0.6851,-0.7605,-0.862,-0.8911,-0.8891,-0.8835,-0.8348,-0.8282,-0.884,-0.8892,-0.914,-0.9578,-0.9786,-0.9805,-0.9858,-0.9214,-0.8682,-0.8175,-0.77,-0.7208,-0.7312,-0.6716,-0.624,-0.6319,-0.5638,-0.506,-0.5058,-0.4879,-0.4532,-0.4163,-0.3884,-0.3738,-0.3899,-0.3855,-0.328,-0.2578,-0.1913,-0.2094,-0.1934,-0.24,-0.24,-0.2401,-0.24,-0.24,-0.2403,-0.2404,-0.2405,-0.2402,-0.2176,-0.2622,-0.9987,-0.9631,-0.9491,-0.9105,-0.8602,-0.8768,-0.8969,-0.9157,-0.9293,-0.9446,-0.9599,-0.9614,-1.006,-1.0813,-1.0813,-1.0813,-1.0813,-1.0813,-1.0813,-1.0762,-1.0415,-1.0419,-1.0712,-0.9938,-0.9839,-1.0056,-0.9239,-0.8722,-0.856,-0.8418,-0.7596,-0.6377,-0.646,-0.6367,-0.6036,-0.6384,-0.623,-0.5348,-0.4787,-0.4791,-0.5244,-0.5352,-0.5236,-0.4961,-0.5035,-0.4418,-0.3407,-0.3984,-0.422,-0.3479,-0.1903,-0.0894,-0.0893,-0.2293,-0.3136,-0.3132,-0.3132,-0.3522,-0.4411,-0.4463,-0.4743,-0.5362,-0.536,-0.535,-0.538,-0.5372,-0.5968,-0.7187,-0.7495,-0.7481,-0.7427,-0.721,-0.7149,-0.7402,-0.7458,-0.7561,-0.7832,-0.7885,-0.7891,-0.7856,-0.7643,-0.7379,-0.7069,-0.6802,-0.6588,-0.6524,-0.6024,-0.5718,-0.5905,-0.5227,-0.4725,-0.4546,-0.3901,-0.3477,-0.3578,-0.3016,-0.2661,-0.2794,-0.357,-0.3477,-0.095,0.1061,0.1663,0.0553,-0.0223,-0.0725,-0.0893,-0.0894,-0.0895,-0.0895,-0.0895,-0.0896,-0.0894,0.0558,0.1116,-0.9694,-0.9463,-0.9101,-0.8393,-0.7592,-0.7828,-0.7916,-0.7934,-0.8125,-0.8209,-0.8209,-0.8209,-0.8715,-0.9622,-1.0049,-1.0265,-1.0265,-1.0269,-1.0151,-0.9891,-0.9444,-0.9381,-0.9518,-0.8705,-0.8452,-0.8656,-0.7756,-0.723,-0.7171,-0.6632,-0.6025,-0.5625,-0.5869,-0.5771,-0.5334,-0.58,-0.5538,-0.4593,-0.4482,-0.4317,-0.3979,-0.4263,-0.4315,-0.3973,-0.4266,-0.3985,-0.291,-0.3143,-0.326,-0.3204,-0.1177,-0.0,-0.0,-0.1007,-0.1567,-0.1619,-0.1618,-0.2066,-0.319,-0.3246,-0.3471,-0.3812,-0.3871,-0.386,-0.3895,-0.3885,-0.4551,-0.5789,-0.5662,-0.5536,-0.6559,-0.6277,-0.6003,-0.6,-0.5996,-0.6043,-0.6027,-0.6145,-0.6421,-0.6534,-0.6647,-0.6273,-0.6055,-0.5948,-0.5948,-0.5832,-0.5502,-0.5287,-0.5299,-0.4572,-0.3737,-0.3352,-0.2238,-0.2394,-0.3318,-0.2232,-0.1357,-0.052,-0.1156,-0.1397,0.0591,0.2915,0.435,0.2394,0.1673,0.106,0.0669,0.0615,0.0616,0.0616,0.0615,0.0616,0.0615,0.2578,0.3652,-0.8847,-0.8742,-0.8084,-0.7351,-0.6717,-0.672,-0.673,-0.6768,-0.6797,-0.6753,-0.6804,-0.6804,-0.6745,-0.706,-0.8306,-0.8903,-0.8903,-0.8896,-0.8521,-0.7978,-0.7874,-0.745,-0.6797,-0.6717,-0.6773,-0.7009,-0.6753,-0.6369,-0.6013,-0.5695,-0.5198,-0.4636,-0.4677,-0.4641,-0.4529,-0.4652,-0.4608,-0.4496,-0.4038,-0.3583,-0.2514,-0.3592,-0.3534,-0.24,-0.3648,-0.4166,-0.3825,-0.1569,-0.0224,-0.0224,-0.0056,-0.0,0.0056,-0.0056,-0.0112,-0.0112,-0.0112,-0.0112,-0.0279,-0.0446,-0.0947,-0.2008,-0.2289,-0.2287,-0.2286,-0.2283,-0.3067,-0.449,-0.3684,-0.3901,-0.5711,-0.515,-0.4596,-0.4593,-0.4589,-0.4568,-0.4709,-0.5269,-0.5873,-0.6263,-0.5943,-0.5346,-0.465,-0.4605,-0.448,-0.4421,-0.443,-0.4317,-0.4028,-0.3128,-0.1894,-0.0723,-0.0332,-0.1043,-0.3272,-0.1706,0.1171,0.2186,0.184,0.1605,0.2448,0.3239,0.3917,0.4317,0.3809,0.3132,0.24,0.2121,0.2124,0.2124,0.2123,0.2124,0.2127,0.2123,0.302,-0.743,-0.7399,-0.7128,-0.6861,-0.6588,-0.6591,-0.6591,-0.6591,-0.6591,-0.6591,-0.6583,-0.6563,-0.6568,-0.6647,-0.7141,-0.7408,-0.7396,-0.7399,-0.7235,-0.7023,-0.702,-0.6858,-0.6642,-0.6576,-0.6573,-0.6534,-0.615,-0.5605,-0.5066,-0.4904,-0.4743,-0.4579,-0.448,-0.4033,-0.3355,-0.4036,-0.4501,-0.4104,-0.0892,0.1561,0.1787,0.0613,0.0111,0.0501,-0.0837,-0.1173,-0.0223,0.1788,0.2407,0.1452,0.1396,0.1396,0.1396,0.1396,0.1396,0.1396,0.1395,0.1394,0.1283,0.0502,-0.0223,-0.067,-0.0782,-0.0783,-0.0783,-0.0893,-0.1788,-0.3712,-0.4051,-0.3987,-0.353,-0.3302,-0.302,-0.3019,-0.3016,-0.335,-0.4249,-0.4696,-0.4976,-0.5026,-0.4293,-0.34,-0.307,-0.302,-0.2679,-0.1834,-0.1612,-0.1612,-0.1555,-0.1055,-0.0167,0.1169,0.2231,0.2503,0.1705,0.1094,0.2139,0.3419,0.3788,0.351,0.3859,0.3967,0.4475,0.4582,0.4591,0.4369,0.3347,0.3297,0.3412,0.3414,0.3469,0.3355,0.3704,0.3516,0.3793,-0.6413,-0.6228,-0.623,-0.6056,-0.5851,-0.5912,-0.5934,-0.5934,-0.5934,-0.5937,-0.593,-0.5912,-0.5914,-0.5932,-0.5889,-0.5946,-0.5996,-0.6374,-0.648,-0.6253,-0.6253,-0.615,-0.5934,-0.5939,-0.5946,-0.5834,-0.5449,-0.4912,-0.448,-0.3971,-0.3803,-0.3751,-0.4212,-0.3473,-0.2008,-0.2569,-0.2855,-0.1507,0.2233,0.4443,0.4335,0.3473,0.296,0.2791,0.1952,0.1896,0.2906,0.3984,0.4042,0.3132,0.2963,0.2963,0.2963,0.2963,0.2963,0.2907,0.2963,0.2907,0.2851,0.201,0.1228,0.0781,0.0726,0.0727,0.0671,0.0279,-0.1063,-0.2639,-0.4064,-0.3776,-0.202,-0.1511,-0.1507,-0.1395,-0.1059,-0.1226,-0.2176,-0.2734,-0.2955,-0.2841,-0.2169,-0.139,-0.089,-0.0779,-0.0278,0.0666,0.1055,0.1446,0.1444,0.15,0.1722,0.2788,0.3692,0.4087,0.3721,0.3314,0.3153,0.4174,0.4572,0.4584,0.4696,0.4748,0.4855,0.4849,0.4794,0.4689,0.4586,0.4536,0.4539,0.4539,0.4309,0.4133,0.4468,0.4739,0.4952,-0.603,-0.5392,-0.5468,-0.5083,-0.4524,-0.4627,-0.4572,-0.468,-0.4627,-0.4739,-0.4791,-0.4625,-0.4734,-0.4629,-0.4745,-0.4579,-0.4917,-0.5716,-0.5928,-0.5544,-0.5492,-0.5169,-0.4686,-0.4693,-0.4582,-0.447,-0.4485,-0.4379,-0.4039,-0.2849,-0.2175,-0.2456,-0.3308,-0.2292,0.0056,0.0111,0.0669,0.1952,0.3698,0.4496,0.4497,0.4324,0.426,0.4309,0.4193,0.4198,0.4381,0.4438,0.4437,0.4379,0.4325,0.4437,0.4322,0.4266,0.4379,0.4322,0.4383,0.444,0.4381,0.4211,0.3413,0.2513,0.2232,0.2233,0.2065,0.1172,0.0279,-0.0503,-0.2244,-0.2985,-0.0504,-0.0,0.0112,0.0224,0.123,0.1788,0.1504,0.0777,-0.0,0.0055,0.0222,0.0721,0.1726,0.1952,0.2062,0.2343,0.3189,0.3981,0.3913,0.391,0.4312,0.4473,0.4748,0.4967,0.5013,0.4946,0.4844,0.4853,0.4851,0.4908,0.5177,0.5283,0.5502,0.555,0.5553,0.5449,0.5232,0.5181,0.5069,0.5014,0.4903,0.4958,0.5283,0.5605,0.5803,-0.4835,-0.477,-0.4818,-0.4656,-0.4402,-0.45,-0.4462,-0.4463,-0.4468,-0.4472,-0.447,-0.4465,-0.4472,-0.4484,-0.4485,-0.4487,-0.4433,-0.3955,-0.3952,-0.4581,-0.4754,-0.4641,-0.4482,-0.443,-0.3922,-0.3072,-0.2905,-0.2345,-0.1505,-0.0891,-0.0668,-0.0668,-0.0111,0.1114,0.285,0.3132,0.3416,0.3752,0.426,0.4485,0.4484,0.4477,0.4472,0.4467,0.4467,0.4468,0.4472,0.4472,0.4473,0.4529,0.4472,0.4473,0.4473,0.4473,0.4472,0.4473,0.4473,0.4472,0.4472,0.4477,0.4312,0.3859,0.3749,0.3811,0.3756,0.3303,0.2514,0.1729,0.0613,0.067,0.1284,0.1508,0.1902,0.2978,0.3486,0.3254,0.2568,0.2679,0.3072,0.3072,0.3072,0.3355,0.3638,0.3754,0.3803,0.3744,0.4312,0.4705,0.5073,0.5179,0.5452,0.583,0.5884,0.5723,0.5771,0.5873,0.5932,0.5778,0.5668,0.5504,0.5662,0.5975,0.6195,0.6256,0.6256,0.6095,0.5932,0.5771,0.566,0.5771,0.5887,0.6048,0.6206,0.6352,0.6546,-0.4404,-0.4485,-0.4488,-0.444,-0.4351,-0.4448,-0.4473,-0.4475,-0.448,-0.4198,-0.3744,-0.3631,-0.3633,-0.364,-0.3644,-0.3304,-0.2794,-0.1784,-0.1616,-0.2233,-0.3359,-0.3355,-0.2901,-0.2844,-0.2061,-0.0835,-0.0557,-0.0111,0.078,0.1393,0.1672,0.1896,0.2625,0.3413,0.4432,0.4492,0.4489,0.4482,0.4479,0.4472,0.4525,0.4736,0.4842,0.4895,0.4942,0.5109,0.5283,0.5452,0.5344,0.5005,0.4895,0.4895,0.484,0.4625,0.4462,0.4462,0.4462,0.4462,0.4462,0.4468,0.4472,0.4475,0.448,0.4484,0.4484,0.4485,0.3974,0.3294,0.2961,0.302,0.302,0.3076,0.3531,0.4327,0.4389,0.4099,0.3355,0.3916,0.4369,0.4364,0.4584,0.4807,0.4862,0.5197,0.525,0.5297,0.5299,0.5348,0.5767,0.5919,0.6246,0.6527,0.6372,0.6372,0.6532,0.6691,0.6961,0.6804,0.6593,0.6374,0.6317,0.6722,0.6983,0.7007,0.7015,0.6691,0.6475,0.6372,0.6317,0.6593,0.6758,0.6743,0.673,0.698,0.7177,-0.4325,-0.437,-0.4363,-0.4077,-0.3897,-0.4105,-0.4208,-0.4322,-0.4494,-0.3584,-0.2345,-0.1563,-0.1674,-0.184,-0.1731,-0.1115,-0.0056,0.039,0.1003,0.1058,-0.0167,-0.0834,0.0111,0.0277,0.0944,0.195,0.2176,0.223,0.2399,0.3469,0.4497,0.4147,0.4149,0.443,0.4534,0.4532,0.4636,0.4629,0.468,0.4734,0.4791,0.5275,0.5544,0.5542,0.5749,0.6077,0.6372,0.6828,0.6719,0.5762,0.5594,0.5599,0.5435,0.4952,0.4736,0.4789,0.4625,0.4679,0.4625,0.4572,0.457,0.4627,0.4574,0.4462,0.4467,0.4581,0.4584,0.4302,0.4366,0.4432,0.4378,0.443,0.4539,0.4646,0.4759,0.4593,0.4589,0.4632,0.4851,0.4901,0.5166,0.554,0.5601,0.6098,0.632,0.6431,0.6384,0.6379,0.6586,0.6681,0.6673,0.6843,0.7128,0.7184,0.7399,0.756,0.772,0.767,0.7509,0.7345,0.7128,0.7481,0.7735,0.7759,0.7765,0.7391,0.7182,0.7235,0.713,0.7241,0.7286,0.7213,0.7362,0.7623,0.7782,-0.2653,-0.2776,-0.2831,-0.2769,-0.2701,-0.2785,-0.2794,-0.2963,-0.3991,-0.2797,-0.0612,0.1788,0.19,0.1114,0.1003,0.1282,0.1783,0.2736,0.3416,0.3755,0.3246,0.2904,0.324,0.3296,0.3409,0.3809,0.3754,0.3922,0.3913,0.4309,0.4534,0.4472,0.4582,0.4525,0.452,0.5009,0.522,0.5328,0.5823,0.5989,0.6043,0.615,0.631,0.6312,0.6418,0.6527,0.6696,0.7244,0.7249,0.6423,0.6308,0.6312,0.6256,0.6095,0.5934,0.5878,0.5494,0.5492,0.5712,0.5117,0.4787,0.5109,0.4897,0.4517,0.4519,0.495,0.4954,0.4737,0.4903,0.5067,0.4745,0.4961,0.5393,0.5887,0.5614,0.5285,0.5334,0.5716,0.6043,0.6043,0.6206,0.6256,0.6364,0.6529,0.6699,0.6699,0.6756,0.6866,0.7235,0.7393,0.7439,0.8037,0.8318,0.8268,0.8321,0.8427,0.848,0.848,0.8427,0.8421,0.8259,0.8359,0.8468,0.8537,0.8669,0.8448,0.8359,0.8368,0.8262,0.8143,0.8137,0.8227,0.8299,0.8464,0.8461,-0.1144,-0.1249,-0.1285,-0.0548,0.0557,0.0613,0.0279,-0.0445,-0.1226,-0.078,0.1226,0.3422,0.3994,0.3245,0.3132,0.3186,0.3296,0.4089,0.443,0.448,0.4366,0.4368,0.4428,0.4484,0.448,0.448,0.4482,0.4641,0.4849,0.4903,0.478,0.4709,0.5105,0.5391,0.5443,0.5714,0.5925,0.6036,0.6423,0.6591,0.6591,0.6912,0.7071,0.713,0.7292,0.7509,0.7616,0.7937,0.7937,0.756,0.7238,0.7074,0.702,0.6748,0.6591,0.6588,0.6202,0.6145,0.6369,0.5771,0.5605,0.5821,0.555,0.5441,0.5443,0.5767,0.5712,0.5553,0.5764,0.571,0.555,0.5764,0.6145,0.6423,0.647,0.6303,0.6036,0.6312,0.6534,0.6645,0.6861,0.7074,0.7079,0.7345,0.7503,0.756,0.767,0.783,0.8096,0.815,0.8309,0.8791,0.8956,0.8794,0.8742,0.8847,0.9099,0.9155,0.9357,0.9361,0.9106,0.9057,0.9057,0.911,0.9409,0.9562,0.9361,0.9312,0.9402,0.934,0.9295,0.9096,0.9005,0.9057,0.9113,0.0208,0.0204,0.0217,0.1788,0.3821,0.4337,0.3364,0.2569,0.2176,0.2233,0.2738,0.3878,0.4386,0.4492,0.4204,0.443,0.4418,0.442,0.4581,0.4631,0.4684,0.4743,0.4969,0.4794,0.4847,0.4903,0.4734,0.5115,0.5492,0.5653,0.5354,0.5231,0.6023,0.6652,0.6717,0.6817,0.6699,0.675,0.6964,0.7074,0.7184,0.7563,0.7877,0.8084,0.8524,0.8636,0.8695,0.8804,0.8791,0.8735,0.8146,0.783,0.772,0.7182,0.6966,0.6912,0.6853,0.6745,0.6807,0.681,0.6645,0.6645,0.6647,0.6647,0.6482,0.6586,0.6583,0.6372,0.6642,0.6691,0.6642,0.6696,0.6858,0.7074,0.7506,0.7396,0.7017,0.6802,0.6804,0.6858,0.7453,0.7726,0.8096,0.8415,0.8896,0.8911,0.8974,0.9079,0.9187,0.9239,0.9242,0.9302,0.9309,0.9155,0.9155,0.9159,0.951,0.9817,1.0163,1.0214,0.9714,0.9562,0.951,0.9614,0.9932,1.0083,0.9965,1.0068,1.0257,1.0198,0.9962,0.9587,0.9319,0.9517,0.9618,0.1723,0.173,0.1703,0.2069,0.2844,0.3984,0.4325,0.3981,0.3982,0.3866,0.4039,0.4374,0.4536,0.4527,0.4579,0.4468,0.4631,0.4631,0.4734,0.5273,0.5273,0.5658,0.588,0.5655,0.5601,0.5932,0.6098,0.6204,0.6367,0.6359,0.6303,0.6288,0.6668,0.7225,0.8153,0.7854,0.7456,0.7563,0.8046,0.8312,0.8309,0.8474,0.8834,0.9239,0.9506,0.9263,0.9012,0.9316,0.9322,0.8926,0.8698,0.8633,0.8521,0.8418,0.8309,0.82,0.7824,0.7771,0.8052,0.7738,0.7319,0.7557,0.7518,0.7055,0.6699,0.7233,0.7179,0.6912,0.7077,0.7501,0.7658,0.7506,0.7824,0.8249,0.8468,0.8524,0.8368,0.8315,0.8259,0.8315,0.8474,0.8788,0.9246,0.9347,0.9762,1.0214,1.0316,1.0368,1.0269,1.0167,1.0064,0.9913,0.9961,0.9858,0.9909,0.9965,1.0269,1.058,1.0927,1.1174,1.0677,1.0419,1.0474,1.0494,1.0569,1.0604,1.0673,1.0738,1.0923,1.0753,1.0569,1.0344,1.0162,1.0194,1.0269,0.3255,0.3271,0.329,0.3298,0.3403,0.4146,0.4485,0.448,0.448,0.4479,0.4586,0.4792,0.495,0.5003,0.532,0.5487,0.5498,0.55,0.566,0.5982,0.6036,0.6416,0.6958,0.6743,0.6635,0.6696,0.6591,0.675,0.7009,0.7084,0.7209,0.7706,0.8029,0.8852,0.9597,0.9267,0.9228,0.9273,0.9496,0.9714,0.9769,0.9766,0.9814,1.0163,1.0265,1.0064,0.9865,1.0064,1.021,1.0045,0.985,0.9647,0.9529,0.9592,0.971,0.9658,0.944,0.9277,0.9451,0.935,0.9079,0.9117,0.903,0.8666,0.8339,0.8501,0.8504,0.8287,0.8498,0.8813,0.9117,0.9166,0.9433,0.9599,0.971,0.9718,0.9658,0.9462,0.9263,0.9312,0.9562,0.9862,1.0167,1.0265,1.0372,1.0669,1.0669,1.0673,1.0614,1.0517,1.0614,1.0564,1.0665,1.0712,1.0762,1.0868,1.1128,1.1438,1.1755,1.2004,1.1904,1.1697,1.1584,1.1405,1.1221,1.1456,1.1521,1.1526,1.1509,1.1358,1.1213,1.1095,1.0918,1.0709,1.086,0.4495,0.4507,0.4472,0.4485,0.4477,0.4477,0.4582,0.468,0.4679,0.4847,0.4901,0.5425,0.5699,0.5806,0.6232,0.6568,0.6529,0.6534,0.6475,0.6748,0.675,0.7233,0.7717,0.7871,0.7812,0.7114,0.7329,0.7649,0.81,0.8038,0.844,0.913,0.9925,1.0478,1.0977,1.083,1.0497,1.0328,1.045,1.0681,1.0736,1.0728,1.0665,1.0665,1.0914,1.0817,1.0716,1.0821,1.1095,1.1466,1.1259,1.0944,1.0764,1.0624,1.0813,1.0762,1.0493,1.0391,1.0513,1.0677,1.0732,1.0821,1.0712,1.0462,1.0009,0.9803,0.9803,0.9806,0.9858,1.0056,1.0716,1.0505,1.0555,1.0712,1.0762,1.0813,1.0716,1.0312,1.0214,1.0012,1.0218,1.0517,1.0762,1.096,1.1019,1.1074,1.1078,1.1078,1.1023,1.1124,1.1279,1.1429,1.1584,1.1638,1.1688,1.1688,1.1895,1.2004,1.2372,1.2524,1.2681,1.2471,1.2157,1.1945,1.185,1.2044,1.2197,1.2281,1.2164,1.2003,1.1909,1.1859,1.158,1.1202,1.1469,0.4503,0.4476,0.451,0.4467,0.4522,0.4519,0.4842,0.5271,0.5326,0.5664,0.6164,0.6372,0.6404,0.6502,0.6519,0.6637,0.6804,0.6858,0.7071,0.7453,0.761,0.7984,0.8573,0.9082,0.9284,0.934,0.9225,0.9533,0.9824,0.9972,0.9789,1.0422,1.0998,1.1661,1.1903,1.1497,1.0843,1.0818,1.0893,1.1145,1.1331,1.1204,1.1019,1.107,1.1421,1.1375,1.112,1.1362,1.1607,1.1544,1.2187,1.2403,1.2183,1.1471,1.1065,1.096,1.0772,1.0822,1.1015,1.1234,1.1124,1.0935,1.0918,1.0864,1.0661,1.0614,1.0614,1.0665,1.0669,1.0762,1.0762,1.1019,1.0864,1.0864,1.0969,1.0969,1.1019,1.1124,1.1174,1.0922,1.0973,1.1074,1.1425,1.1674,1.1787,1.19,1.2004,1.2058,1.2107,1.221,1.2368,1.2515,1.2613,1.2618,1.2671,1.2573,1.2622,1.252,1.2681,1.2681,1.2837,1.2886,1.2676,1.2417,1.2368,1.2569,1.2725,1.2827,1.272,1.2496,1.254,1.2633,1.2288,1.1997,1.2176,0.4946,0.5534,0.5162,0.5222,0.555,0.5607,0.5769,0.6034,0.6091,0.6263,0.665,0.6969,0.7173,0.7272,0.7602,0.772,0.772,0.7723,0.794,0.8318,0.8616,0.8932,0.9357,1.0016,1.0517,1.0712,1.0868,1.0767,1.0801,1.0555,1.0706,1.0985,1.1692,1.2471,1.2721,1.2271,1.1783,1.1648,1.1774,1.1963,1.2212,1.1963,1.1895,1.199,1.2138,1.2147,1.2044,1.2098,1.2339,1.2335,1.2657,1.3065,1.3147,1.2871,1.2209,1.1927,1.1648,1.1643,1.1837,1.2099,1.2139,1.1954,1.1846,1.1683,1.1416,1.1308,1.1321,1.1371,1.1787,1.1891,1.194,1.1837,1.1895,1.19,1.1846,1.1841,1.1945,1.2201,1.2049,1.1796,1.195,1.2103,1.225,1.2456,1.2564,1.272,1.2886,1.2886,1.2886,1.2886,1.2886,1.2886,1.2876,1.2968,1.2925,1.2929,1.3138,1.3138,1.2934,1.2934,1.2929,1.2973,1.2929,1.2783,1.2886,1.3022,1.2886,1.2881,1.2886,1.2886,1.2822,1.2764,1.2827,1.2886,1.2886,0.5594,0.6551,0.5971,0.6036,0.6534,0.6591,0.6694,0.6804,0.6804,0.6964,0.713,0.7616,0.794,0.8099,0.8577,0.8959,0.9012,0.9054,0.9155,0.9103,0.9603,0.9965,1.0163,1.0661,1.1212,1.1512,1.1877,1.1724,1.1466,1.1342,1.1281,1.1576,1.253,1.2886,1.2842,1.2744,1.2886,1.2886,1.2886,1.2929,1.3065,1.32,1.3248,1.3243,1.3253,1.3291,1.3276,1.3089,1.3122,1.3107,1.317,1.3387,1.3952,1.4019,1.3737,1.3334,1.3074,1.2934,1.2876,1.2832,1.2744,1.2676,1.2832,1.2515,1.2241,1.2026,1.203,1.2129,1.2398,1.2774,1.2676,1.2832,1.2832,1.2783,1.2783,1.2886,1.273,1.2779,1.2725,1.2676,1.2886,1.2832,1.2725,1.2725,1.2774,1.2774,1.2886,1.2886,1.2886,1.2886,1.2886,1.2886,1.2929,1.3017,1.3017,1.2968,1.3332,1.3693,1.3278,1.2968,1.3012,1.3055,1.3017,1.2978,1.32,1.3291,1.3113,1.2934,1.2886,1.2886,1.2886,1.2886,1.2886,1.2886,1.2886,0.6423,0.6583,0.6529,0.6532,0.6645,0.6699,0.702,0.756,0.756,0.7937,0.8418,0.859,0.8692,0.8896,0.9406,0.9662,0.981,1.0115,1.0064,0.981,1.0364,1.0665,1.0813,1.1366,1.1724,1.2026,1.2447,1.2715,1.2461,1.2437,1.2535,1.2642,1.2749,1.2988,1.3153,1.3172,1.2886,1.2929,1.2925,1.32,1.3695,1.4154,1.4335,1.4381,1.4381,1.4346,1.4212,1.3925,1.3747,1.3845,1.3732,1.3815,1.4128,1.4475,1.4549,1.4193,1.3622,1.2934,1.3035,1.3118,1.3113,1.3162,1.307,1.2876,1.2754,1.2662,1.2666,1.2774,1.2881,1.2881,1.2886,1.2886,1.2886,1.2886,1.2886,1.2886,1.2886,1.2886,1.2886,1.2886,1.2886,1.2886,1.2832,1.2886,1.2886,1.2886,1.2934,1.2934,1.2978,1.3022,1.3113,1.3157,1.3387,1.352,1.3563,1.3425,1.3636,1.4168,1.3805,1.3238,1.3276,1.3324,1.3109,1.3157,1.3425,1.3557,1.343,1.3253,1.3027,1.2886,1.2886,1.2886,1.2886,1.2886,1.2886,0.8537,0.7827,0.7396,0.7453,0.7833,0.7833,0.7996,0.8265,0.8315,0.8735,0.9256,0.9357,0.9562,0.9917,1.0265,1.0364,1.0407,1.0712,1.0665,1.0564,1.1019,1.1371,1.1521,1.2039,1.2403,1.2456,1.2725,1.2827,1.2934,1.2934,1.2886,1.3036,1.3565,1.4,1.3815,1.3884,1.3481,1.333,1.3523,1.4009,1.434,1.4566,1.4749,1.4749,1.4749,1.4749,1.4703,1.452,1.4223,1.4193,1.4166,1.4731,1.5181,1.5322,1.5192,1.5174,1.4795,1.4339,1.4003,1.3931,1.3842,1.3884,1.3889,1.3789,1.3467,1.3152,1.2929,1.2886,1.2886,1.2934,1.2978,1.2886,1.2886,1.2934,1.307,1.3022,1.3027,1.2934,1.2886,1.2886,1.2983,1.307,1.3162,1.3113,1.3113,1.3017,1.3017,1.3022,1.3157,1.3334,1.3377,1.3457,1.3784,1.4154,1.4201,1.4154,1.4195,1.4518,1.4477,1.4014,1.3815,1.3726,1.3557,1.3658,1.4014,1.4019,1.3842,1.3658,1.3425,1.3205,1.2886,1.2929,1.2978,1.2886,1.2886,1.021,0.9256,0.8715,0.8768,0.9312,0.9316,0.9309,0.9305,0.9312,0.9614,0.9913,1.006,1.0415,1.0918,1.1015,1.1065,1.1061,1.122,1.117,1.1371,1.1674,1.203,1.2241,1.2666,1.2832,1.2934,1.2881,1.3022,1.3089,1.3021,1.3001,1.3215,1.4121,1.4625,1.4771,1.4608,1.4174,1.3701,1.4602,1.5017,1.5028,1.5107,1.5203,1.5209,1.5164,1.517,1.5107,1.4966,1.4767,1.4925,1.4863,1.5385,1.6048,1.5969,1.5832,1.5826,1.5652,1.5531,1.5101,1.4886,1.4749,1.4703,1.4703,1.4381,1.4107,1.3563,1.3339,1.3478,1.3478,1.343,1.3339,1.3435,1.3525,1.3525,1.3483,1.3387,1.3344,1.3435,1.3573,1.371,1.3705,1.3568,1.3615,1.3478,1.3387,1.3195,1.3152,1.3152,1.3425,1.3742,1.3873,1.4009,1.419,1.4606,1.4835,1.4875,1.492,1.492,1.4886,1.4789,1.4544,1.4359,1.4236,1.4422,1.4601,1.4514,1.4381,1.4102,1.3868,1.3557,1.3286,1.306,1.3017,1.2978,1.2929,1.0762,1.0669,1.0606,1.0555,1.0614,1.0661,1.0614,1.0462,1.0568,1.061,1.0712,1.0817,1.122,1.162,1.1724,1.1715,1.1765,1.2456,1.2197,1.2143,1.2403,1.2666,1.2774,1.2871,1.2978,1.2978,1.3162,1.3425,1.3564,1.3465,1.3575,1.4025,1.4712,1.4965,1.5114,1.5103,1.4966,1.4784,1.5611,1.5903,1.5824,1.592,1.6207,1.6256,1.6306,1.6343,1.6331,1.5826,1.5688,1.5977,1.572,1.5744,1.6337,1.6355,1.6293,1.6293,1.6293,1.6201,1.5976,1.5427,1.4886,1.4749,1.4749,1.4789,1.4646,1.4612,1.4525,1.4387,1.4253,1.434,1.4433,1.4566,1.4294,1.4201,1.4118,1.4118,1.4113,1.4253,1.4387,1.4525,1.4433,1.4206,1.416,1.4025,1.3931,1.3789,1.3737,1.3784,1.4154,1.4427,1.456,1.4652,1.4692,1.5011,1.5371,1.546,1.5466,1.5472,1.5478,1.5421,1.5315,1.5141,1.5011,1.4966,1.5056,1.5011,1.4966,1.4926,1.4646,1.405,1.3642,1.3329,1.3152,1.3065,1.3065,1.2107,1.2103,1.2103,1.1592,1.0813,1.0813,1.0813,1.0813,1.0813,1.1065,1.1471,1.1886,1.2206,1.2407,1.2461,1.2452,1.2501,1.272,1.2662,1.2608,1.2774,1.2886,1.2973,1.3238,1.3467,1.3515,1.3795,1.4071,1.4272,1.4187,1.4586,1.5056,1.5476,1.5813,1.5954,1.5796,1.5774,1.5856,1.6181,1.6312,1.6324,1.6337,1.6528,1.6528,1.6528,1.6528,1.6436,1.6293,1.6343,1.6386,1.6232,1.6324,1.6423,1.6485,1.6528,1.6528,1.6522,1.6522,1.6528,1.602,1.5838,1.5694,1.5511,1.5236,1.5236,1.4977,1.4749,1.4703,1.4795,1.488,1.4744,1.4703,1.4612,1.4703,1.4749,1.4841,1.4886,1.4977,1.4977,1.5022,1.4841,1.4566,1.4612,1.4612,1.452,1.4376,1.4376,1.4468,1.4835,1.5107,1.5197,1.5332,1.5377,1.5517,1.5926,1.597,1.5976,1.5976,1.6026,1.592,1.5814,1.6008,1.5926,1.5738,1.565,1.57,1.5794,1.58,1.5427,1.4641,1.4003,1.351,1.3377,1.3291,1.3382,1.343,1.3435,1.3435,1.2677,1.1479,1.1434,1.1438,1.1429,1.1479,1.1683,1.2183,1.2671,1.2886,1.2886,1.2886,1.2881,1.2827,1.2886,1.2886,1.2973,1.306,1.3157,1.3387,1.3673,1.4057,1.4206,1.4435,1.4699,1.496,1.5211,1.5446,1.58,1.628,1.6429,1.6461,1.6523,1.6528,1.6528,1.6528,1.6528,1.6479,1.6485,1.6528,1.6528,1.6528,1.6528,1.6528,1.6436,1.6436,1.6485,1.6479,1.6485,1.6528,1.6528,1.6528,1.6558,1.6631,1.6674,1.6565,1.6485,1.6479,1.6293,1.6107,1.5914,1.5732,1.5478,1.5427,1.5394,1.5293,1.5192,1.5197,1.5383,1.5433,1.5573,1.5522,1.5567,1.5517,1.5561,1.5472,1.5472,1.5338,1.5389,1.5389,1.5478,1.5203,1.5197,1.5332,1.5377,1.5517,1.5744,1.5826,1.5964,1.6058,1.625,1.6485,1.6343,1.6207,1.625,1.625,1.6194,1.6188,1.6423,1.6472,1.6151,1.6157,1.6436,1.6392,1.6213,1.5744,1.5141,1.4555,1.4014,1.3967,1.3972,1.4019,1.4612,1.4652,1.4612,1.3925,1.2856,1.2876,1.2818,1.2798,1.2856,1.2861,1.2944,1.3065,1.307,1.307,1.321,1.3205,1.3205,1.3109,1.3113,1.3296,1.361,1.3789,1.3994,1.4296,1.4662,1.4681,1.4959,1.5268,1.5582,1.554,1.5866,1.6256,1.6504,1.6566,1.6528,1.6491,1.6528,1.6528,1.6528,1.6528,1.6607,1.6656,1.6705,1.6759,1.6801,1.6844,1.6844,1.6837,1.6831,1.6756,1.6788,1.6782,1.6678,1.6746,1.6716,1.6716,1.707,1.7034,1.665,1.6565,1.6607,1.6565,1.6374,1.6454,1.6429,1.6343,1.625,1.6032,1.6163,1.6256,1.6343,1.6337,1.6256,1.6213,1.6163,1.6113,1.6064,1.602,1.5932,1.5888,1.6207,1.6436,1.6392,1.6343,1.602,1.6014,1.6244,1.6293,1.6201,1.6201,1.6238,1.6287,1.638,1.6429,1.6528,1.6528,1.6485,1.6528,1.6479,1.638,1.6374,1.6479,1.6479,1.6429,1.6429,1.6485,1.6528,1.6485,1.602,1.5599,1.5107,1.4658,1.4652,1.4646,1.4692,1.4703,1.4703,1.4703,1.4474,1.4113,1.4113,1.4113,1.4113,1.4113,1.4066,1.4113,1.4071,1.4066,1.4113,1.4025,1.4019,1.4071,1.4118,1.4118,1.4118,1.434,1.4387,1.4577,1.4949,1.5277,1.5421,1.5596,1.5866,1.6194,1.6021,1.6164,1.6503,1.671,1.6795,1.6601,1.6528,1.6528,1.6528,1.6522,1.6637,1.6999,1.717,1.7295,1.7476,1.7463,1.7463,1.7429,1.7429,1.7354,1.7274,1.7348,1.7354,1.7315,1.7328,1.7504,1.7504,1.778,1.774,1.7585,1.7551,1.7188,1.6921,1.6844,1.6873,1.6607,1.6528,1.6485,1.6565,1.6644,1.6644,1.6485,1.6472,1.6429,1.6436,1.6392,1.6392,1.6386,1.6392,1.6349,1.6343,1.6485,1.6528,1.6528,1.6528,1.63,1.625,1.6386,1.6436,1.6392,1.6392,1.6429,1.6436,1.6479,1.6485,1.6528,1.6644,1.6644,1.6637,1.6565,1.6479,1.6485,1.6528,1.6485,1.6479,1.6485,1.6528,1.6528,1.6485,1.6429,1.6107,1.5605,1.5158,1.4977,1.5101,1.527,1.5136,1.5338,1.5338,1.5332,1.5248,1.488,1.4703,1.4703,1.4703,1.4703,1.4703,1.4703,1.4658,1.4658,1.4703,1.4703,1.4703,1.4703,1.4709,1.4749,1.4966,1.4966,1.5186,1.5594,1.5882,1.6051,1.6244,1.6485,1.6429,1.6485,1.6479,1.6552,1.6886,1.7326,1.7229,1.7229,1.6776,1.6837,1.694,1.6881,1.7369,1.7781,1.7936,1.8014,1.802,1.8059,1.8059,1.8085,1.8078,1.8004,1.8011,1.8085,1.8011,1.8011,1.8145,1.8099,1.7958,1.809,1.8235,1.8246,1.782,1.7271,1.7429,1.7394,1.716,1.7194,1.7153,1.7111,1.6993,1.6915,1.6837,1.6795,1.6795,1.6801,1.6801,1.6801,1.7041,1.7076,1.7083,1.6999,1.6765,1.6723,1.6565,1.6528,1.6436,1.6485,1.6485,1.6528,1.6528,1.6528,1.6528,1.6522,1.668,1.6801,1.6837,1.6873,1.6873,1.6795,1.6716,1.6686,1.6528,1.6528,1.6528,1.6528,1.6528,1.6528,1.6528,1.6485,1.6436,1.638,1.6145,1.5738,1.5383,1.5511,1.5776,1.603,1.6495,1.6484,1.6478,1.6324,1.5487,1.4966,1.4841,1.4795,1.4841,1.4841,1.4926,1.4977,1.488,1.4841,1.4932,1.4977,1.4932,1.4977,1.5062,1.5466,1.5549,1.5776,1.6145,1.6293,1.6436,1.6528,1.6528,1.6528,1.6528,1.6528,1.6522,1.6716,1.7534,1.7921,1.7929,1.7437,1.7511,1.7598,1.7611,1.8099,1.8375,1.8439,1.8454,1.8412,1.8412,1.8412,1.8412,1.8482,1.8457,1.8411,1.846,1.8414,1.8293,1.8205,1.8097,1.7954,1.8359,1.8729,1.8783,1.8593,1.821,1.8178,1.8185,1.7987,1.782,1.774,1.774,1.774,1.7544,1.7429,1.7388,1.7305,1.7312,1.7305,1.7504,1.782,1.79,1.79,1.7747,1.7347,1.7111,1.6759,1.6637,1.662,1.6528,1.6528,1.6528,1.6528,1.6528,1.6522,1.6601,1.6795,1.7188,1.7229,1.7223,1.7305,1.7305,1.7076,1.6964,1.6765,1.6723,1.6964,1.6999,1.6686,1.6565,1.6522,1.6528,1.6485,1.6429,1.6361,1.6287,1.5888,1.6026,1.6293,1.6349,1.6915,1.6922,1.7203,1.7552,1.7259,1.6725,1.6058,1.597,1.5976,1.597,1.5976,1.5876,1.5976,1.6014,1.5976,1.597,1.597,1.6014,1.6058,1.6014,1.6188,1.6287,1.6386,1.6528,1.6522,1.6522,1.6528,1.6522,1.6522,1.6522,1.6528,1.6896,1.78,1.8327,1.8683,1.8422,1.8355,1.8351,1.856,1.8612,1.8798,1.8929,1.9027,1.9095,1.9095,1.9095,1.9132,1.9228,1.9258,1.9288,1.9347,1.9339,1.9273,1.9244,1.9244,1.9163,1.9236,1.9398,1.9413,1.9288,1.9162,1.9132,1.8688,1.8412,1.8217,1.8217,1.8295,1.8334,1.8138,1.798,1.79,1.7867,1.7867,1.7907,1.8059,1.8295,1.8412,1.8373,1.8138,1.778,1.7429,1.707,1.6827,1.6803,1.662,1.6565,1.6637,1.6565,1.6565,1.6644,1.6716,1.7025,1.7468,1.7578,1.7599,1.7773,1.782,1.7592,1.7435,1.751,1.751,1.7585,1.747,1.7236,1.6879,1.6515,1.6601,1.6844,1.6595,1.6497,1.6515,1.6534,1.6547,1.654,1.6297,1.704,1.7081,1.7477,1.8037,1.8099,1.7659,1.7146,1.6915,1.6844,1.6788,1.6801,1.6716,1.6509,1.6625,1.6667,1.6436,1.6392,1.6386,1.6386,1.6565,1.6479,1.6485,1.6565,1.668,1.6674,1.6674,1.6637,1.6759,1.6769,1.6805,1.6577,1.7181,1.7732,1.8152,1.8534,1.8855,1.8979,1.9201,1.941,1.9346,1.9207,1.945,1.961,1.9697,1.9697,1.9697,1.9697,1.9697,1.9697,1.9697,1.9697,1.9697,1.969,1.969,1.961,1.9603,1.9595,1.9654,1.9654,1.9697,1.9697,1.9697,1.9369,1.9088,1.8885,1.8885,1.8885,1.881,1.8688,1.8535,1.8412,1.8419,1.8426,1.8458,1.8535,1.865,1.8772,1.865,1.8451,1.8138,1.778,1.7489,1.7212,1.7051,1.7041,1.7149,1.7356,1.7072,1.6759,1.6837,1.6951,1.7365,1.776,1.7894,1.8097,1.8278,1.8331,1.802,1.798,1.8138,1.8099,1.794,1.786,1.778,1.7442,1.7109,1.7201,1.7305,1.705,1.7012,1.7187,1.7037,1.6702,1.6683,1.6021,1.7061,1.7204,1.7657,1.8113,1.8253,1.8256,1.8138,1.7713,1.7388,1.7388,1.7347,1.7111,1.6993,1.7188,1.7111,1.6999,1.6879,1.6801,1.6607,1.6879,1.6837,1.6716,1.6674,1.707,1.7118,1.7144,1.7218,1.7338,1.7381,1.7155,1.6725,1.7529,1.8161,1.8505,1.8311,1.8668,1.9442,1.956,1.9641,1.9662,1.9661,1.9697,1.9697,1.9697,1.9697,1.9697,1.9697,1.9697,1.9697,1.9697,1.9697,1.9697,1.9697,1.9697,1.9697,1.9697,1.9697,1.9697,1.9697,1.9697,1.9697,1.9697,1.961,1.945,1.9369,1.9332,1.9332,1.9251,1.9169,1.9043,1.8968,1.8968,1.8975,1.8968,1.9088,1.9169,1.9244,1.9169,1.8938,1.8657,1.8302,1.7954,1.7754,1.7523,1.7531,1.7578,1.782,1.7732,1.7203,1.7223,1.734,1.7781,1.8254,1.8503,1.8669,1.8852,1.8829,1.8545,1.8489,1.8688,1.8528,1.8256,1.8256,1.8224,1.8128,1.7916,1.7861,1.776,1.7752,1.776,1.7963,1.7716,1.7274,1.6925,1.609,1.6889,1.7895,1.8429,1.8612,1.9111,1.9273,1.9288,1.8741,1.8256,1.794,1.79,1.782,1.7666,1.78,1.776,1.7666,1.7463,1.7429,1.7388,1.7429,1.7305,1.7271,1.7388,1.77,1.7908,1.8003,1.8017,1.8178,1.8049,1.788,1.7755,1.821,1.8507,1.9078,1.8652,1.8774,1.9639,1.9697,1.9697,1.9697,1.9697,1.9697,1.9697,1.9697,1.9697,1.9697,1.9697,1.9697,1.9697,1.9697,1.9697,1.9697,1.9697,1.9697,1.9697,1.9697,1.9697,1.9697,1.9697,1.9697,1.9697,1.9697,1.9697,1.9697,1.9697,1.9697,1.9697,1.969,1.9566,1.9522,1.9486,1.9442,1.9442,1.9442,1.9566,1.9682,1.9654,1.9617,1.9376,1.9102,1.8786,1.8426,1.8238,1.8087,1.7975,1.7963,1.8057,1.8168,1.7918,1.7946,1.8118,1.838,1.8748,1.9014,1.9163,1.928,1.9368,1.9199,1.9214,1.9244,1.9088,1.8885,1.8779,1.8717,1.8599,1.8443,1.8126,1.8111,1.8296,1.837,1.8474,1.8363,1.7969,1.7553,1.6142,1.6819,1.7832,1.8276,1.8354,1.8972,1.9256,1.9258,1.9244,1.9088,1.8793,1.857,1.8344,1.8221,1.8338,1.8278,1.8196,1.8099,1.786,1.782,1.794,1.786,1.79,1.802,1.8217,1.8415,1.8634,1.8729,1.8931,1.8694,1.8496,1.8696,1.8824,1.9033,1.962,1.9133,1.9031,1.9667,1.969,1.9697,1.9697,1.9697,1.9697,1.9697,1.9697,1.9697,1.9697,1.9697,1.9697,1.9697,1.9697,1.9697,1.9697,1.9697,1.9697,1.9697,1.9697,1.9697,1.9697,1.9697,1.9697,1.9697,1.9697,1.9697,1.9697,1.9697,1.9697,1.9697,1.9697,1.961,1.9646,1.961,1.961,1.961,1.961,1.9654,1.969,1.9697,1.9493,1.9132,1.8855,1.8535,1.8341,1.8458,1.8309,1.827,1.8256,1.8708,1.8727,1.8617,1.8677,1.8736,1.893,1.914,1.9354,1.9471,1.9595,1.969,1.9697,1.9617,1.9486,1.9566,1.9566,1.9332,1.9177,1.9177,1.8975,1.8696,1.8772,1.9021,1.8991,1.8921,1.8779,1.8657,1.8361,1.6121,1.6652,1.7294,1.7563,1.7667,1.8306,1.8583,1.8657,1.9159,1.9383,1.9233,1.8919,1.8588,1.8624,1.8714,1.856,1.851,1.8598,1.8412,1.8256,1.8373,1.8334,1.8334,1.8373,1.8696,1.8893,1.9042,1.9285,1.9529,1.9242,1.9214,1.9617,1.9697,1.9705,1.9697,1.969,1.969,1.969,1.9697,1.9697,1.9697,1.9697,1.9697,1.9697,1.9697,1.9697,1.9697,1.9697,1.9697,1.9697,1.9697,1.9697,1.9697,1.9697,1.9697,1.9697,1.9697,1.9697,1.9697,1.9697,1.9697,1.9697,1.9697,1.9697,1.9697,1.9697,1.9697,1.9697,1.9697,1.9697,1.9697,1.9697,1.9697,1.9726,1.9726,1.9726,1.9726,1.9726,1.9406,1.9043,1.8688,1.8373,1.8295,1.8451,1.8535,1.8451,1.875,1.9266,1.9544,1.9339,1.9229,1.9199,1.9221,1.9457,1.9646,1.9654,1.9697,1.9697,1.9697,1.9697,1.9697,1.969,1.969,1.969,1.9574,1.9493,1.953,1.9376,1.953,1.9566,1.945,1.9303,1.9339,1.9229,1.9146,1.5866,1.6002,1.6622,1.6898,1.6995,1.7593,1.7876,1.7891,1.8011,1.8063,1.8298,1.8683,1.8885,1.9391,1.9449,1.9347,1.9185,1.9207,1.9013,1.8824,1.905,1.8968,1.893,1.8968,1.9376,1.9457,1.945,1.9611,1.9693,1.9589,1.9566,1.9697,1.9697,1.9697,1.9697,1.9697,1.9697,1.9697,1.9697,1.9697,1.9697,1.9697,1.9697,1.9697,1.9697,1.9697,1.9697,1.9697,1.9697,1.9697,1.9697,1.9697,1.9697,1.9697,1.9697,1.9697,1.9697,1.9697,1.9697,1.9697,1.9697,1.9697,1.9697,1.9697,1.9697,1.9697,1.9697,1.9697,1.9697,1.9697,1.9697,1.9697,1.9733,1.9754,1.9782,1.9818,1.9846,1.9739,1.9515,1.9155,1.8772,1.8373,1.794,1.8138,1.8373,1.8454,1.8727,1.9214,1.9675,1.969,1.9697,1.9625,1.9552,1.9589,1.9697,1.969,1.9697,1.9697,1.9697,1.9697,1.9697,1.9697,1.9697,1.9697,1.9697,1.9654,1.9697,1.9697,1.9697,1.9654,1.969,1.9654,1.9727,1.9736,1.959]},{"header":{"parameterUnit":"m.s-1","parameterCategory":1,"la1":31.0,"la2":29.5877,"lo1":-88.7671,"lo2":-86.6584,"dy":0.0162,"dx":0.0185,"nx":115,"ny":88,"refTime":"2024-08-13T12:00:00:Z","depth":0,"parameterNumber":3,"parameterNumberName":"V-component_of_WINDS"},"data":[0.0,0.0,0.0,0.0,0.0,0.0,0.0,0.0,0.0,0.0,0.0,0.0,0.0,0.0,0.0,0.0,0.0,0.0,0.0,0.0,0.0,0.0,0.0,0.0,0.0,0.0,0.0,0.0,0.0,0.0,0.0,0.0,0.0,0.0,0.0,0.0,0.0,0.0,0.0,0.0,0.0,0.0,0.0,0.0,0.0,0.0,0.0,0.0,0.0,0.0,0.0,0.0,0.0,0.0,0.0,0.0,0.0,0.0,0.0,0.0,0.0,0.0,0.0,0.0,0.0,0.0,0.0,0.0,0.0,0.0,0.0,0.0,0.0,0.0,0.0,0.0,0.0,0.0,0.0,0.0,0.0,0.0,0.0,0.0,0.0,0.0,0.0,0.0,0.0,0.0,0.0,0.0,0.0,0.0,0.0,0.0,0.0,0.0,0.0,0.0,0.0,0.0,0.0,0.0,0.0,0.0,0.0,0.0,0.0,0.0,0.0,0.0,0.0,0.0,0.0,0.0,0.0,0.0,0.0,0.0,0.0,0.0,0.0,0.0,0.0,0.0,0.0,0.0,0.0,0.0,0.0,0.0,0.0,0.0,0.0,0.0,0.0,0.0,0.0,0.0,0.0,0.0,0.0,0.0,0.0,0.0,0.0,0.0,0.0,0.0,0.0,0.0,0.0,0.0,0.0,0.0,0.0,0.0,0.0,0.0,0.0,0.0,0.0,0.0,0.0,0.0,0.0,0.0,0.0,0.0,0.0,0.0,0.0,0.0,0.0,0.0,0.0,0.0,0.0,0.0,0.0,0.0,0.0,0.0,0.0,0.0,0.0,0.0,0.0,0.0,0.0,0.0,0.0,0.0,0.0,0.0,0.0,0.0,0.0,0.0,0.0,0.0,0.0,0.0,0.0,0.0,0.0,0.0,0.0,0.0,0.0,0.0,0.0,0.0,0.0,0.0,0.0,0.0,0.0,0.0,0.0,0.0,0.0,0.0,0.0,0.0,0.0,0.0,0.0,0.0,0.0,0.0,0.0,0.0,0.0,0.0,0.0,0.0,0.0,0.0,0.0,0.0,0.0,0.0,0.0,0.0,0.0,0.0,0.0,0.0,0.0,0.0,0.0,0.0,0.0,0.0,0.0,0.0,0.0,0.0,0.0,0.0,0.0,0.0,0.0,0.0,0.0,0.0,0.0,0.0,0.0,0.0,0.0,0.0,0.0,0.0,0.0,0.0,0.0,0.0,0.0,0.0,0.0,0.0,0.0,0.0,0.0,0.0,0.0,0.0,0.0,0.0,0.0,0.0,0.0,0.0,0.0,0.0,0.0,0.0,0.0,0.0,0.0,0.0,0.0,0.0,0.0,0.0,0.0,0.0,0.0,0.0,0.0,0.0,0.0,0.0,0.0,0.0,0.0,0.0,0.0,0.0,0.0,0.0,0.0,0.0,0.0,0.0,0.0,0.0,0.0,0.0,0.0,0.0,0.0,0.0,0.0,0.0,0.0,0.0,0.0,0.0,0.0,0.0,0.0,0.0,0.0,0.0,0.0,0.0,0.0,0.0,0.0,0.0,0.0,0.0,0.0,0.0,0.0,0.0,0.0,0.0,0.0,0.0,0.0,0.0,0.0,0.0,0.0,0.0,0.0,0.0,0.0,0.0,0.0,0.0,0.0,0.0,0.0,0.0,0.0,0.0,0.0,0.0,0.0,0.0,0.0,0.0,0.0,0.0,0.0,0.0,0.0,0.0,0.0,0.0,0.0,0.0,0.0,0.0,0.0,0.0,0.0,0.0,0.0,0.0,0.0,0.0,0.0,0.0,0.0,0.0,0.0,0.0,0.0,0.0,0.0,0.0,0.0,0.0,0.0,0.0,0.0,0.0,0.0,0.0,0.0,0.0,0.0,0.0,0.0,0.0,0.0,0.0,0.0,0.0,0.0,0.0,0.0,0.0,0.0,0.0,0.0,0.0,0.0,0.0,0.0,0.0,0.0,0.0,0.0,0.0,0.0,0.0,0.0,0.0,0.0,0.0,0.0,0.0,0.0,0.0,0.0,0.0,0.0,0.0,0.0,0.0,0.0,0.0,0.0,0.0,0.0,0.0,0.0,0.0,0.0,0.0,0.0,0.0,0.0,0.0,0.0,0.0,0.0,0.0,0.0,0.0,0.0,0.0,0.0,0.0,0.0,0.0,0.0,0.0,0.0,0.0,0.0,0.0,0.0,0.0,0.0,0.0,0.0,0.0,0.0,0.0,0.0,0.0,0.0,0.0,0.0,0.0,0.0,0.0,0.0,0.0,0.0,0.0,0.0,0.0,0.0,0.0,0.0,0.0,0.0,0.0,0.0,0.0,0.0,0.0,0.0,0.0,0.0,0.0,0.0,0.0,0.0,0.0,0.0,0.0,0.0,0.0,0.0,0.0,0.0,0.0,0.0,0.0,0.0,0.0,0.0,0.0,0.0,0.0,0.0,0.0,0.0,0.0,0.0,0.0,0.0,0.0,0.0,0.0,0.0,0.0,0.0,0.0,0.0,0.0,0.0,0.0,0.0,0.0,0.0,0.0,0.0,0.0,0.0,0.0,0.0,0.0,0.0,0.0,0.0,0.0,0.0,0.0,0.0,0.0,0.0,0.0,0.0,0.0,0.0,0.0,0.0,0.0,0.0,0.0,0.0,0.0,0.0,0.0,0.0,0.0,0.0,0.0,0.0,0.0,0.0,0.0,0.0,0.0,0.0,0.0,0.0,0.0,0.0,0.0,0.0,0.0,0.0,0.0,0.0,0.0,0.0,0.0,0.0,0.0,0.0,0.0,0.0,0.0,0.0,0.0,0.0,0.0,0.0,0.0,0.0,0.0,0.0,0.0,0.0,0.0,0.0,0.0,0.0,0.0,0.0,0.0,0.0,0.0,0.0,0.0,0.0,0.0,0.0,0.0,0.0,0.0,0.0,0.0,0.0,0.0,0.0,0.0,0.0,0.0,0.0,0.0,0.0,0.0,0.0,0.0,0.0,0.0,0.0,0.0,0.0,0.0,0.0,0.0,0.0,0.0,0.0,0.0,0.0,0.0,0.0,0.0,0.0,0.0,0.0,0.0,0.0,0.0,0.0,0.0,0.0,0.0,0.0,0.0,0.0,0.0,0.0,0.0,0.0,0.0,0.0,0.0,0.0,0.0,0.0,0.0,0.0,0.0,0.0,0.0,0.0,0.0,0.0,0.0,0.0,0.0,0.0,0.0,0.0,0.0,0.0,0.0,0.0,0.0,0.0,0.0,0.0,0.0,0.0,0.0,0.0,0.0,0.0,0.0,0.0,0.0,0.0,0.0,0.0,0.0,0.0,0.0,0.0,0.0,0.0,0.0,0.0,0.0,0.0,0.0,0.0,0.0,0.0,0.0,0.0,0.0,0.0,0.0,0.0,0.0,0.0,0.0,0.0,0.0,0.0,0.0,0.0,0.0,0.0,0.0,0.0,0.0,0.0,0.0,0.0,0.0,0.0,0.0,0.0,0.0,0.0,0.0,0.0,0.0,0.0,0.0,0.0,0.0,0.0,0.0,0.0,0.0,0.0,0.0,0.0,0.0,0.0,0.0,0.0,0.0,0.0,0.0,0.0,0.0,0.0,0.0,0.0,0.0,0.0,0.0,0.0,0.0,0.0,0.0,0.0,0.0,0.0,0.0,0.0,0.0,0.0,0.0,0.0,0.0,0.0,0.0,0.0,0.0,0.0,0.0,0.0,0.0,0.0,0.0,0.0,0.0,0.0,0.0,0.0,0.0,0.0,0.0,0.0,0.0,0.0,0.0,0.0,0.0,0.0,0.0,0.0,0.0,0.0,0.0,0.0,0.0,0.0,0.0,0.0,0.0,0.0,0.0,0.0,0.0,0.0,0.0,0.0,0.0,0.0,0.0,0.0,0.0,0.0,0.0,0.0,0.0,0.0,0.0,0.0,0.0,0.0,0.0,0.0,0.0,0.0,0.0,0.0,0.0,0.0,0.0,0.0,0.0,0.0,0.0,0.0,0.0,0.0,0.0,0.0,0.0,0.0,0.0,0.0,0.0,0.0,0.0,0.0,0.0,0.0,0.0,0.0,0.0,0.0,0.0,0.0,0.0,0.0,0.0,0.0,0.0,0.0,0.0,0.0,0.0,0.0,0.0,0.0,0.0,0.0,0.0,0.0,0.0,0.0,0.0,0.0,0.0,0.0,0.0,0.0,0.0,0.0,0.0,0.0,0.0,0.0,0.0,0.0,0.0,0.0,0.0,0.0,0.0,0.0,0.0,-0.9666,0.0,0.0,0.0,0.0,0.0,0.0,0.0,0.0,0.0,0.0,0.0,0.0,0.0,0.0,0.0,0.0,0.0,0.0,0.0,0.0,0.0,0.0,0.0,0.0,0.0,0.0,0.0,0.0,0.0,0.0,0.0,0.0,0.0,0.0,0.0,0.0,0.0,0.0,0.0,0.0,0.0,0.0,0.0,0.0,0.0,0.0,0.0,0.0,0.0,0.0,0.0,0.0,0.0,0.0,0.0,0.0,0.0,0.0,0.0,0.0,0.0,0.0,0.0,0.0,0.0,0.0,0.0,0.0,0.0,0.0,0.0,0.0,0.0,0.0,0.0,0.0,0.0,0.0,0.0,0.0,0.0,0.0,0.0,0.0,0.0,0.0,0.0,0.0,0.0,0.0,0.0,0.0,0.0,0.0,0.0,0.0,0.0,0.0,0.0,0.0,0.0,0.0,0.0,0.0,0.0,0.0,0.0,0.0,0.0,0.0,-1.2088,-1.1733,-1.1106,-1.0754,-1.0661,0.0,0.0,0.0,0.0,0.0,0.0,0.0,0.0,0.0,0.0,0.0,0.0,0.0,0.0,0.0,0.0,0.0,0.0,0.0,0.0,0.0,0.0,0.0,0.0,0.0,0.0,0.0,0.0,0.0,0.0,0.0,0.0,0.0,0.0,0.0,0.0,0.0,0.0,0.0,0.0,0.0,0.0,0.0,0.0,0.0,0.0,0.0,0.0,0.0,0.0,0.0,0.0,0.0,0.0,0.0,0.0,0.0,0.0,0.0,0.0,0.0,0.0,0.0,0.0,0.0,0.0,0.0,0.0,0.0,0.0,0.0,0.0,0.0,0.0,0.0,0.0,0.0,0.0,0.0,0.0,0.0,0.0,0.0,0.0,0.0,0.0,0.0,0.0,0.0,0.0,0.0,0.0,0.0,0.0,0.0,0.0,0.0,0.0,0.0,0.0,0.0,0.0,0.0,0.0,0.0,0.0,0.0,0.0,0.0,0.0,0.0,0.0,-1.1547,-1.1186,-1.1336,0.0,0.0,0.0,0.0,0.0,0.0,0.0,0.0,0.0,0.0,0.0,0.0,0.0,0.0,0.0,0.0,0.0,0.0,0.0,0.0,0.0,0.0,0.0,0.0,0.0,0.0,0.0,0.0,0.0,0.0,0.0,0.0,0.0,0.0,0.0,0.0,0.0,0.0,0.0,0.0,0.0,0.0,0.0,0.0,0.0,0.0,0.0,0.0,0.0,0.0,0.0,0.0,0.0,0.0,0.0,0.0,0.0,0.0,0.0,0.0,0.0,0.0,0.0,0.0,0.0,0.0,0.0,0.0,0.0,0.0,0.0,0.0,0.0,0.0,0.0,0.0,0.0,0.0,0.0,0.0,0.0,0.0,0.0,0.0,0.0,0.0,0.0,0.0,0.0,0.0,0.0,0.0,0.0,0.0,0.0,0.0,0.0,0.0,0.0,0.0,0.0,0.0,0.0,0.0,0.0,0.0,0.0,0.0,0.0,0.0,-1.2001,-1.2462,-1.227,0.0,-1.0935,0.0,0.0,0.0,0.0,0.0,0.0,0.0,0.0,0.0,0.0,0.0,0.0,0.0,0.0,0.0,0.0,0.0,0.0,0.0,0.0,0.0,0.0,0.0,0.0,0.0,0.0,0.0,0.0,0.0,0.0,0.0,0.0,0.0,0.0,0.0,0.0,0.0,0.0,0.0,0.0,0.0,0.0,0.0,0.0,0.0,0.0,0.0,0.0,0.0,0.0,0.0,0.0,0.0,0.0,0.0,0.0,0.0,0.0,0.0,0.0,0.0,0.0,0.0,0.0,0.0,0.0,0.0,0.0,0.0,0.0,0.0,0.0,0.0,0.0,0.0,0.0,0.0,0.0,0.0,0.0,0.0,0.0,0.0,0.0,0.0,0.0,0.0,0.0,0.0,0.0,0.0,0.0,0.0,0.0,0.0,0.0,0.0,0.0,0.0,0.0,0.0,0.0,0.0,0.0,0.0,0.0,0.0,0.0,0.0,0.0,0.0,-1.4089,-1.3242,-1.2349,0.0,0.0,0.0,0.0,0.0,0.0,0.0,0.0,0.0,0.0,0.0,0.0,0.0,0.0,0.0,0.0,0.0,0.0,0.0,0.0,0.0,0.0,0.0,0.0,0.0,0.0,0.0,0.0,0.0,0.0,0.0,0.0,0.0,0.0,0.0,0.0,0.0,0.0,0.0,0.0,0.0,0.0,0.0,0.0,0.0,0.0,0.0,0.0,0.0,0.0,0.0,0.0,0.0,0.0,0.0,0.0,0.0,0.0,0.0,0.0,0.0,0.0,0.0,0.0,0.0,0.0,0.0,0.0,0.0,0.0,0.0,0.0,0.0,0.0,0.0,0.0,0.0,0.0,0.0,0.0,0.0,0.0,0.0,0.0,0.0,0.0,0.0,0.0,0.0,0.0,0.0,0.0,0.0,0.0,0.0,0.0,0.0,0.0,0.0,0.0,0.0,0.0,0.0,0.0,0.0,0.0,0.0,0.0,0.0,0.0,-1.3867,0.0,-1.5059,-1.4031,-1.2765,-1.1324,0.0,0.0,0.0,0.0,0.0,0.0,0.0,0.0,0.0,0.0,0.0,0.0,0.0,0.0,0.0,0.0,0.0,0.0,0.0,0.0,0.0,0.0,0.0,0.0,0.0,0.0,0.0,0.0,0.0,0.0,0.0,0.0,0.0,0.0,0.0,0.0,0.0,0.0,0.0,0.0,0.0,0.0,0.0,0.0,0.0,0.0,0.0,0.0,0.0,0.0,0.0,0.0,0.0,0.0,0.0,0.0,0.0,0.0,0.0,0.0,0.0,0.0,0.0,0.0,0.0,0.0,0.0,0.0,0.0,0.0,0.0,0.0,0.0,0.0,0.0,0.0,0.0,0.0,0.0,0.0,0.0,0.0,0.0,0.0,0.0,0.0,0.0,0.0,0.0,0.0,0.0,0.0,0.0,0.0,0.0,0.0,0.0,0.0,0.0,0.0,0.0,0.0,0.0,0.0,0.0,0.0,0.0,0.0,0.0,-1.4477,-1.469,-1.5091,-1.4566,-1.3047,0.0,0.0,0.0,0.0,0.0,0.0,0.0,0.0,0.0,0.0,0.0,0.0,0.0,0.0,0.0,0.0,0.0,0.0,0.0,0.0,0.0,0.0,0.0,0.0,0.0,0.0,0.0,0.0,0.0,0.0,0.0,0.0,0.0,0.0,0.0,0.0,0.0,0.0,0.0,0.0,0.0,0.0,0.0,0.0,0.0,0.0,0.0,0.0,0.0,0.0,0.0,0.0,0.0,0.0,0.0,0.0,0.0,0.0,0.0,0.0,0.0,0.0,0.0,0.0,0.0,0.0,0.0,0.0,0.0,0.0,0.0,0.0,0.0,0.0,0.0,0.0,0.0,0.0,0.0,0.0,0.0,0.0,0.0,0.0,0.0,0.0,0.0,0.0,0.0,0.0,0.0,0.0,0.0,0.0,0.0,0.0,0.0,0.0,0.0,0.0,0.0,0.0,0.0,0.0,0.0,0.0,0.0,0.0,0.0,-1.3541,-1.6256,-1.7822,-1.802,-1.5943,-1.3783,0.0,0.0,0.0,0.0,0.0,0.0,0.0,0.0,0.0,0.0,0.0,0.0,0.0,0.0,0.0,0.0,0.0,0.0,0.0,0.0,0.0,0.0,0.0,0.0,0.0,0.0,0.0,0.0,0.0,0.0,0.0,0.0,0.0,0.0,0.0,0.0,0.0,0.0,0.0,0.0,0.0,0.0,0.0,0.0,0.0,0.0,0.0,0.0,0.0,0.0,0.0,0.0,0.0,0.0,0.0,0.0,0.0,0.0,0.0,0.0,0.0,0.0,0.0,0.0,0.0,0.0,0.0,0.0,0.0,0.0,0.0,0.0,0.0,0.0,0.0,0.0,0.0,0.0,0.0,0.0,0.0,0.0,0.0,0.0,0.0,0.0,0.0,0.0,0.0,0.0,0.0,0.0,0.0,0.0,0.0,0.0,0.0,0.0,0.0,0.0,0.0,0.0,0.0,0.0,0.0,0.0,0.0,0.0,0.0,-1.3175,0.0,-1.8418,0.0,-1.6644,-1.457,0.0,0.0,0.0,0.0,0.0,0.0,0.0,0.0,0.0,0.0,0.0,0.0,0.0,0.0,0.0,0.0,0.0,0.0,0.0,0.0,0.0,0.0,0.0,0.0,0.0,0.0,0.0,0.0,0.0,0.0,0.0,0.0,0.0,0.0,0.0,0.0,0.0,0.0,0.0,0.0,0.0,0.0,0.0,0.0,0.0,0.0,0.0,0.0,0.0,0.0,0.0,0.0,0.0,0.0,0.0,0.0,0.0,0.0,0.0,0.0,0.0,0.0,0.0,0.0,0.0,0.0,0.0,0.0,0.0,0.0,0.0,0.0,0.0,0.0,0.0,0.0,0.0,0.0,0.0,0.0,0.0,0.0,0.0,0.0,0.0,0.0,0.0,0.0,0.0,0.0,0.0,0.0,0.0,0.0,0.0,0.0,0.0,0.0,0.0,0.0,0.0,0.0,0.0,0.0,0.0,0.0,0.0,0.0,-0.9616,-1.3335,-1.5009,-1.6029,-1.622,-1.6536,-1.5381,0.0,0.0,0.0,0.0,0.0,0.0,0.0,0.0,0.0,0.0,0.0,0.0,0.0,0.0,0.0,0.0,0.0,0.0,0.0,0.0,0.0,0.0,0.0,0.0,0.0,0.0,0.0,0.0,0.0,0.0,0.0,0.0,0.0,0.0,0.0,0.0,0.0,0.0,0.0,0.0,0.0,0.0,0.0,0.0,0.0,0.0,0.0,0.0,0.0,0.0,0.0,0.0,0.0,0.0,0.0,0.0,0.0,0.0,0.0,0.0,0.0,0.0,0.0,0.0,0.0,0.0,0.0,0.0,0.0,0.0,0.0,0.0,0.0,0.0,0.0,0.0,0.0,0.0,0.0,0.0,0.0,0.0,0.0,0.0,0.0,0.0,0.0,0.0,0.0,0.0,0.0,0.0,0.0,0.0,0.0,0.0,0.0,0.0,0.0,0.0,0.0,0.0,0.0,0.0,0.0,0.0,0.0,0.0,0.0,-0.9217,-1.2925,-1.5387,-1.6607,-1.6724,-1.5936,0.0,0.0,0.0,0.0,0.0,0.0,0.0,0.0,0.0,0.0,0.0,0.0,0.0,0.0,0.0,0.0,0.0,0.0,0.0,0.0,0.0,0.0,0.0,0.0,0.0,0.0,0.0,0.0,0.0,0.0,0.0,0.0,0.0,0.0,0.0,0.0,0.0,0.0,0.0,0.0,0.0,0.0,0.0,0.0,0.0,0.0,0.0,0.0,0.0,0.0,0.0,0.0,0.0,0.0,0.0,0.0,0.0,0.0,0.0,0.0,0.0,0.0,0.0,0.0,0.0,0.0,0.0,0.0,0.0,0.0,0.0,0.0,0.0,0.0,0.0,0.0,0.0,0.0,0.0,0.0,0.0,0.0,0.0,0.0,0.0,0.0,0.0,0.0,0.0,0.0,0.0,0.0,0.0,0.0,0.0,0.0,0.0,0.0,0.0,0.0,0.0,0.0,0.0,0.0,0.0,0.0,0.0,0.0,0.0,-0.3569,-0.9264,-1.3366,-1.5838,-1.637,-1.6532,-1.6218,0.0,0.0,0.0,0.0,0.0,0.0,0.0,0.0,0.0,0.0,0.0,0.0,0.0,0.0,0.0,0.0,0.0,0.0,0.0,0.0,0.0,0.0,0.0,0.0,0.0,0.0,0.0,0.0,0.0,0.0,0.0,0.0,0.0,0.0,0.0,0.0,0.0,0.0,0.0,0.0,0.0,0.0,0.0,0.0,0.0,0.0,0.0,0.0,0.0,0.0,0.0,0.0,0.0,0.0,0.0,0.0,0.0,0.0,0.0,0.0,0.0,0.0,0.0,0.0,0.0,0.0,0.0,0.0,0.0,0.0,0.0,0.0,0.0,0.0,0.0,0.0,0.0,0.0,0.0,0.0,0.0,0.0,0.0,0.0,0.0,0.0,0.0,0.0,0.0,0.0,0.0,0.0,0.0,0.0,0.0,0.0,0.0,0.0,0.0,0.0,0.0,0.0,0.0,0.0,0.0,0.0,0.0,0.0,0.2844,-0.4501,-1.0215,-1.4053,-1.5623,-1.7087,0.0,0.0,0.0,0.0,0.0,0.0,0.0,0.0,0.0,0.0,0.0,0.0,0.0,0.0,0.0,0.0,0.0,0.0,0.0,0.0,0.0,0.0,0.0,0.0,0.0,0.0,0.0,0.0,0.0,0.0,0.0,0.0,0.0,0.0,0.0,0.0,0.0,0.0,0.0,0.0,0.0,0.0,0.0,0.0,0.0,0.0,0.0,0.0,0.0,0.0,0.0,0.0,0.0,0.0,0.0,0.0,0.0,0.0,0.0,0.0,0.0,0.0,0.0,0.0,0.0,0.0,0.0,0.0,0.0,0.0,0.0,0.0,0.0,0.0,0.0,0.0,0.0,0.0,0.0,0.0,0.0,0.0,0.0,0.0,0.0,0.0,0.0,0.0,0.0,0.0,0.0,0.0,0.0,0.0,0.0,0.0,0.0,0.0,0.0,0.0,0.0,0.0,0.0,0.0,0.0,0.0,0.0,0.0,0.0,0.4706,-0.177,-0.7829,-1.3274,-1.5611,-1.7476,0.0,0.0,0.0,0.0,0.0,0.0,0.0,0.0,0.0,0.0,0.0,0.0,0.0,0.0,0.0,0.0,0.0,0.0,0.0,0.0,0.0,0.0,0.0,0.0,0.0,0.0,0.0,0.0,0.0,0.0,0.0,0.0,0.0,0.0,0.0,0.0,0.0,0.0,0.0,0.0,0.0,0.0,0.0,0.0,0.0,0.0,0.0,0.0,0.0,0.0,0.0,0.0,0.0,0.0,0.0,0.0,0.0,0.0,0.0,0.0,0.0,0.0,0.0,0.0,0.0,0.0,0.0,0.0,0.0,0.0,0.0,0.0,0.0,0.0,0.0,0.0,0.0,0.0,0.0,0.0,0.0,0.0,0.0,0.0,0.0,0.0,0.0,0.0,0.0,0.0,0.0,0.0,0.0,0.0,0.0,0.0,0.0,0.0,0.0,0.0,0.0,0.0,0.0,0.0,0.0,0.0,0.0,0.0,0.9382,0.5337,-0.0168,-0.5705,-1.1325,-1.4682,-1.7296,0.0,0.0,0.0,0.0,0.0,0.0,0.0,0.0,0.0,0.0,0.0,0.0,0.0,0.0,0.0,0.0,0.0,0.0,0.0,0.0,0.0,0.0,0.0,0.0,0.0,0.0,0.0,0.0,0.0,0.0,0.0,0.0,0.0,0.0,0.0,0.0,0.0,0.0,0.0,0.0,0.0,0.0,0.0,0.0,0.0,0.0,0.0,0.0,0.0,0.0,0.0,0.0,0.0,0.0,0.0,0.0,0.0,0.0,0.0,0.0,0.0,0.0,0.0,0.0,0.0,0.0,0.0,0.0,0.0,0.0,0.0,0.0,0.0,0.0,0.0,0.0,0.0,0.0,0.0,0.0,0.0,0.0,0.0,0.0,0.0,0.0,0.0,0.0,0.0,0.0,0.0,0.0,0.0,0.0,0.0,0.0,0.0,0.0,0.0,0.0,0.0,0.0,0.0,0.0,0.0,0.0,0.0,0.0,0.9667,0.5118,0.0761,-0.3883,-0.8786,-1.3206,-1.6697,0.0,0.0,0.0,0.0,0.0,0.0,0.0,0.0,0.0,0.0,0.0,0.0,0.0,0.0,0.0,0.0,0.0,0.0,0.0,0.0,0.0,0.0,0.0,0.0,0.0,0.0,0.0,0.0,0.0,0.0,0.0,0.0,0.0,0.0,0.0,0.0,0.0,0.0,0.0,0.0,0.0,0.0,0.0,0.0,0.0,0.0,0.0,0.0,0.0,0.0,0.0,0.0,0.0,0.0,0.0,0.0,0.0,0.0,0.0,0.0,0.0,0.0,0.0,0.0,0.0,0.0,0.0,0.0,0.0,0.0,0.0,0.0,0.0,0.0,0.0,0.0,0.0,0.0,0.0,0.0,0.0,0.0,0.0,0.0,0.0,0.0,0.0,0.0,0.0,0.0,0.0,0.0,0.0,0.0,0.0,0.0,0.0,0.0,0.0,0.0,0.0,0.0,0.0,0.0,0.0,0.0,0.0,0.0,0.9839,0.5576,0.18,-0.2566,-0.7623,-1.2,-1.5634,0.0,0.0,0.0,0.0,0.0,0.0,0.0,0.0,0.0,0.0,0.0,0.0,0.0,0.0,0.0,0.0,0.0,0.0,0.0,0.0,0.0,0.0,0.0,0.0,0.0,0.0,0.0,0.0,0.0,0.0,0.0,0.0,0.0,0.0,0.0,0.0,0.0,0.0,0.0,0.0,0.0,0.0,0.0,0.0,0.0,0.0,0.0,0.0,-1.2307,0.0,0.0,0.0,0.0,0.0,0.0,0.0,0.0,0.0,0.0,0.0,0.0,0.0,0.0,0.0,0.0,0.0,0.0,0.0,0.0,0.0,0.0,0.0,0.0,0.0,0.0,0.0,0.0,0.0,0.0,0.0,0.0,0.0,0.0,0.0,0.0,0.0,0.0,0.0,0.0,0.0,0.0,0.0,0.0,0.0,0.0,0.0,0.0,0.0,0.0,0.0,0.0,0.0,0.0,0.0,0.0,0.0,0.0,0.0,0.9695,0.5794,0.2402,-0.1563,-0.623,-1.0321,-1.4053,0.0,0.0,0.0,0.0,0.0,0.0,0.0,0.0,0.0,0.0,0.0,0.0,0.0,0.0,0.0,0.0,0.0,0.0,0.0,0.0,0.0,0.0,0.0,0.0,0.0,0.0,0.0,0.0,0.0,0.0,0.0,0.0,0.0,0.0,0.0,0.0,0.0,0.0,0.0,0.0,0.0,0.0,0.0,0.0,0.0,0.0,0.0,0.0,0.0,0.0,0.0,0.0,0.0,0.0,0.0,0.0,0.0,0.0,0.0,0.0,0.0,0.0,0.0,0.0,0.0,0.0,0.0,0.0,0.0,0.0,0.0,0.0,0.0,0.0,0.0,0.0,0.0,0.0,0.0,0.0,0.0,0.0,0.0,0.0,0.0,0.0,0.0,0.0,0.0,0.0,0.0,0.0,0.0,0.0,0.0,0.0,0.0,0.0,0.0,0.0,0.0,0.0,0.0,0.0,0.0,0.0,0.0,1.1579,0.9159,0.5634,0.2641,-0.085,-0.4974,-0.8642,-1.2375,-1.6144,0.0,0.0,0.0,0.0,0.0,0.0,0.0,0.0,0.0,0.0,0.0,0.0,0.0,0.0,0.0,0.0,0.0,0.0,0.0,0.0,0.0,0.0,0.0,0.0,0.0,0.0,0.0,0.0,0.0,0.0,0.0,0.0,0.0,0.0,0.0,0.0,0.0,0.0,-1.0588,-1.1522,0.0,0.0,0.0,0.0,0.0,0.0,0.0,0.0,-1.7208,0.0,0.0,0.0,0.0,0.0,0.0,0.0,0.0,0.0,0.0,0.0,0.0,0.0,0.0,0.0,0.0,0.0,0.0,0.0,0.0,0.0,0.0,0.0,0.0,0.0,0.0,0.0,0.0,0.0,0.0,0.0,0.0,0.0,0.0,0.0,0.0,0.0,0.0,0.0,0.0,0.0,0.0,0.0,0.0,0.0,0.0,0.0,0.0,0.0,0.0,0.0,0.0,0.0,0.0,0.0,0.0,1.1728,0.9859,0.7478,0.4595,0.2424,-0.0606,-0.4517,-0.7774,-1.1194,-1.4829,0.0,0.0,0.0,0.0,0.0,0.0,0.0,0.0,0.0,0.0,0.0,0.0,0.0,0.0,0.0,0.0,0.0,0.0,0.0,0.0,0.0,0.0,0.0,0.0,0.0,0.0,0.0,0.0,0.0,0.0,0.0,0.0,0.0,0.0,0.0,0.0,0.0,0.0,0.0,-1.2634,-1.4118,0.0,0.0,0.0,0.0,0.0,0.0,0.0,0.0,-1.9271,0.0,0.0,0.0,0.0,0.0,0.0,0.0,0.0,0.0,0.0,0.0,0.0,0.0,0.0,0.0,0.0,0.0,0.0,0.0,0.0,0.0,0.0,0.0,0.0,0.0,0.0,0.0,0.0,0.0,0.0,0.0,0.0,0.0,0.0,0.0,0.0,0.0,0.0,0.0,0.0,0.0,0.0,0.0,0.0,0.0,0.0,0.0,0.0,0.0,0.0,0.0,0.0,0.0,0.0,0.0,0.9839,0.8149,0.6266,0.4195,0.2006,-0.0746,-0.4061,-0.7421,-1.0954,0.0,0.0,0.0,0.0,0.0,0.0,0.0,0.0,0.0,0.0,0.0,0.0,0.0,0.0,0.0,0.0,0.0,0.0,0.0,0.0,0.0,0.0,0.0,0.0,0.0,0.0,0.0,0.0,0.0,0.0,0.0,0.0,0.0,0.0,0.0,0.0,0.0,0.0,0.0,0.0,-1.2718,-1.4219,-1.6589,0.0,0.0,0.0,0.0,0.0,0.0,-1.9866,-2.0695,0.0,0.0,0.0,0.0,0.0,0.0,0.0,0.0,0.0,0.0,0.0,0.0,0.0,0.0,0.0,0.0,0.0,0.0,0.0,0.0,0.0,0.0,0.0,0.0,0.0,0.0,0.0,0.0,0.0,0.0,0.0,0.0,0.0,0.0,0.0,0.0,0.0,0.0,0.0,0.0,0.0,0.0,0.0,0.0,0.0,0.0,0.0,0.0,0.0,0.0,0.0,0.0,0.0,0.0,0.0,0.7976,0.6237,0.4717,0.3469,0.1146,-0.1326,-0.3889,-0.7324,-1.0777,0.0,0.0,0.0,0.0,0.0,0.0,0.0,0.0,0.0,0.0,0.0,0.0,0.0,0.0,0.0,0.0,0.0,0.0,0.0,0.0,0.0,0.0,0.0,0.0,0.0,0.0,0.0,0.0,0.0,0.0,0.0,0.0,0.0,0.0,0.0,0.0,0.0,0.0,0.0,0.0,0.0,-1.3834,-1.653,-1.8724,0.0,0.0,0.0,0.0,-2.034,-2.1073,0.0,0.0,0.0,0.0,0.0,0.0,0.0,0.0,0.0,0.0,0.0,0.0,0.0,0.0,0.0,0.0,0.0,0.0,0.0,0.0,0.0,0.0,0.0,0.0,0.0,0.0,0.0,0.0,0.0,0.0,0.0,0.0,0.0,0.0,0.0,0.0,0.0,0.0,0.0,0.0,0.0,0.0,0.0,0.0,0.0,0.0,0.0,0.0,0.0,0.0,0.0,0.0,0.0,0.0,0.0,0.0,0.6286,0.3693,0.2031,0.1393,-0.0614,-0.2588,-0.44,-0.7363,-1.0197,0.0,0.0,0.0,0.0,0.0,0.0,0.0,0.0,0.0,0.0,0.0,0.0,0.0,0.0,0.0,0.0,0.0,0.0,0.0,0.0,0.0,0.0,0.0,0.0,0.0,0.0,0.0,0.0,0.0,0.0,0.0,0.0,0.0,0.0,0.0,0.0,0.0,0.0,0.0,0.0,0.0,-1.2952,-1.8516,-1.9899,-2.0532,0.0,0.0,-2.0951,-2.1059,-2.1483,0.0,0.0,0.0,0.0,0.0,0.0,0.0,0.0,0.0,0.0,0.0,0.0,0.0,0.0,0.0,0.0,0.0,0.0,0.0,0.0,0.0,0.0,0.0,0.0,0.0,0.0,0.0,0.0,0.0,0.0,0.0,0.0,0.0,0.0,0.0,0.0,0.0,0.0,0.0,0.0,0.0,0.0,0.0,0.0,0.0,0.0,0.0,0.0,0.0,0.0,0.0,0.0,0.0,0.0,0.0,0.4402,0.4105,0.1677,0.0226,-0.0309,-0.2293,-0.3845,-0.4887,-0.7729,-1.036,0.0,0.0,0.0,0.0,0.0,0.0,0.0,0.0,0.0,0.0,0.0,0.0,0.0,0.0,0.0,0.0,0.0,0.0,0.0,0.0,0.0,0.0,0.0,0.0,0.0,0.0,0.0,0.0,0.0,0.0,0.0,0.0,0.0,0.0,0.0,0.0,0.0,0.0,0.0,0.0,0.0,0.0,-1.4364,-1.7854,0.0,0.0,0.0,-2.0304,-2.0815,0.0,0.0,0.0,0.0,0.0,0.0,0.0,0.0,0.0,0.0,0.0,0.0,0.0,0.0,0.0,0.0,0.0,0.0,0.0,0.0,0.0,0.0,0.0,0.0,0.0,0.0,0.0,0.0,0.0,0.0,0.0,0.0,0.0,0.0,0.0,0.0,0.0,0.0,0.0,0.0,0.0,0.0,0.0,0.0,0.0,0.0,0.0,0.0,0.0,0.0,0.0,0.0,0.0,0.0,0.0,0.0,0.0,0.1978,-0.0188,-0.1549,-0.2103,-0.3863,-0.5031,-0.5685,-0.8113,0.0,0.0,0.0,0.0,0.0,0.0,0.0,0.0,0.0,0.0,0.0,0.0,0.0,0.0,0.0,0.0,0.0,0.0,0.0,0.0,0.0,0.0,0.0,0.0,0.0,0.0,0.0,-0.7693,0.0,0.0,0.0,0.0,0.0,0.0,0.0,0.0,0.0,0.0,0.0,0.0,0.0,0.0,-1.1547,-1.0965,-1.5554,-1.9329,0.0,0.0,-1.9465,-2.0254,-2.0819,-2.1457,0.0,0.0,0.0,0.0,0.0,0.0,0.0,0.0,0.0,0.0,0.0,0.0,0.0,0.0,0.0,0.0,0.0,0.0,0.0,0.0,0.0,0.0,0.0,0.0,0.0,0.0,0.0,0.0,0.0,0.0,0.0,0.0,0.0,0.0,0.0,0.0,0.0,0.0,0.0,0.0,0.0,0.0,0.0,0.0,0.0,0.0,0.0,0.0,0.0,0.0,0.0,0.0,0.0,0.0,0.0,0.0132,-0.212,-0.358,-0.421,-0.5262,-0.6148,-0.6899,-0.8426,-1.006,0.0,0.0,0.0,0.0,0.0,0.0,0.0,0.0,0.0,0.0,0.0,0.0,0.0,0.0,0.0,0.0,0.0,0.0,0.0,0.0,0.0,0.0,0.0,0.0,0.0,0.0,0.0,0.0,0.0,0.0,0.0,0.0,0.0,0.0,0.0,0.0,0.0,0.0,0.0,0.0,0.0,-0.5739,-1.1223,-1.3918,-1.6301,0.0,0.0,-1.8779,-1.9384,-1.9322,-1.9834,-2.1739,0.0,0.0,0.0,0.0,0.0,0.0,0.0,0.0,0.0,0.0,0.0,0.0,0.0,0.0,0.0,0.0,0.0,0.0,0.0,0.0,0.0,0.0,0.0,0.0,0.0,0.0,0.0,0.0,0.0,0.0,0.0,0.0,0.0,0.0,0.0,0.0,0.0,0.0,0.0,0.0,0.0,0.0,0.0,0.0,0.0,0.0,0.0,0.0,0.0,0.0,0.0,0.0,0.0,-0.1762,-0.2645,-0.4439,-0.5621,-0.619,-0.7148,-0.7782,-0.8021,-0.923,-1.0508,0.0,0.0,0.0,0.0,0.0,0.0,0.0,0.0,0.0,0.0,0.0,0.0,0.0,0.0,0.0,0.0,0.0,0.0,0.0,0.0,0.0,0.0,0.0,0.0,0.0,0.0,0.0,0.0,-1.1685,-1.2499,-1.4438,0.0,0.0,0.0,0.0,0.0,0.0,0.0,0.0,0.0,0.0,-0.8246,-0.9473,-1.255,0.0,0.0,-1.835,-1.8329,-1.9203,-2.0043,-2.085,-2.1525,-2.2894,0.0,0.0,0.0,0.0,0.0,0.0,0.0,0.0,0.0,0.0,0.0,0.0,0.0,0.0,0.0,0.0,0.0,0.0,0.0,0.0,0.0,0.0,0.0,0.0,0.0,0.0,0.0,0.0,0.0,0.0,0.0,0.0,0.0,0.0,0.0,0.0,0.0,0.0,0.0,0.0,0.0,0.0,0.0,0.0,0.0,0.0,0.0,0.0,0.0,0.0,0.0,0.0,-0.4394,-0.5242,-0.6612,-0.7443,-0.7702,-0.8502,-0.8968,-0.9052,-0.9943,-1.0947,0.0,0.0,0.0,0.0,0.0,0.0,0.0,0.0,0.0,0.0,0.0,0.0,0.0,0.0,0.0,0.0,0.0,0.0,0.0,0.0,0.0,0.0,0.0,0.0,0.0,0.0,0.0,0.0,-1.3019,-1.3969,-1.645,0.0,0.0,0.0,0.0,0.0,0.0,0.0,0.0,0.0,0.0,-0.9328,-0.8419,-1.1383,-1.4603,-1.7049,-1.7383,-1.7689,-1.8776,-2.0135,-2.1146,-2.1498,0.0,0.0,0.0,0.0,0.0,0.0,0.0,0.0,0.0,0.0,0.0,0.0,0.0,0.0,0.0,0.0,0.0,0.0,0.0,0.0,0.0,0.0,0.0,0.0,0.0,0.0,0.0,0.0,0.0,0.0,-1.1312,0.0,0.0,0.0,0.0,0.0,0.0,0.0,0.0,0.0,0.0,0.0,0.0,0.0,0.0,0.0,0.0,0.0,0.0,0.0,0.0,0.0,0.0,-0.6927,-0.7471,-0.8577,-0.9028,-0.8716,-0.9193,-0.9588,-0.9784,-1.0378,-1.1235,-1.238,0.0,0.0,0.0,0.0,0.0,0.0,0.0,0.0,0.0,0.0,0.0,0.0,0.0,0.0,0.0,0.0,0.0,0.0,0.0,0.0,0.0,0.0,0.0,0.0,0.0,0.0,-1.4823,-1.4843,-1.5549,0.0,0.0,0.0,0.0,0.0,0.0,0.0,0.0,0.0,0.0,-0.7031,-0.7505,-0.8554,-1.0585,-1.2716,-1.4527,-1.5806,-1.6913,-1.7992,-1.9117,-2.0303,0.0,0.0,0.0,0.0,0.0,0.0,0.0,0.0,0.0,0.0,0.0,0.0,0.0,0.0,0.0,0.0,0.0,0.0,0.0,0.0,0.0,0.0,0.0,0.0,0.0,0.0,0.0,-1.4149,-1.363,0.0,0.0,0.0,0.0,0.0,0.0,0.0,0.0,0.0,0.0,0.0,-1.0723,-1.1545,0.0,0.0,0.0,0.0,0.0,0.0,0.0,0.0,0.0,0.0,0.0,0.0,-0.9825,-1.0344,-1.0927,-1.0827,-1.0125,-1.0484,-1.0636,-1.0552,-1.1086,-1.1916,-1.3104,0.0,0.0,0.0,0.0,0.0,0.0,0.0,0.0,0.0,0.0,0.0,0.0,0.0,0.0,0.0,0.0,0.0,0.0,0.0,0.0,0.0,0.0,0.0,0.0,0.0,-1.5634,0.0,0.0,0.0,0.0,0.0,0.0,0.0,0.0,0.0,0.0,0.0,-0.7448,-0.6818,-0.7532,-0.8461,-0.9314,-1.1211,-1.3199,0.0,0.0,0.0,0.0,0.0,0.0,0.0,0.0,0.0,0.0,0.0,0.0,0.0,0.0,-2.3585,-2.2932,-2.229,-2.1935,-2.2142,0.0,0.0,0.0,0.0,0.0,0.0,0.0,0.0,0.0,0.0,0.0,0.0,0.0,0.0,-1.5651,0.0,-1.3946,0.0,0.0,0.0,0.0,0.0,0.0,0.0,0.0,-1.0952,-1.1432,-1.1948,-1.2732,-1.3395,0.0,-1.4075,-1.3668,0.0,0.0,0.0,0.0,0.0,0.0,0.0,0.0,-1.2468,-1.2812,-1.3156,-1.2599,-1.1288,-1.1577,-1.156,-1.1073,-1.1741,-1.2599,-1.3615,-1.5007,-1.5848,0.0,0.0,0.0,0.0,0.0,0.0,0.0,0.0,0.0,0.0,0.0,0.0,0.0,0.0,0.0,0.0,0.0,0.0,0.0,0.0,0.0,0.0,0.0,-1.6025,0.0,0.0,0.0,0.0,0.0,0.0,0.0,0.0,0.0,-0.9162,-0.8346,-0.7875,-0.8035,-0.8944,-0.9749,-1.0223,0.0,0.0,0.0,0.0,0.0,0.0,0.0,-2.121,-2.1584,-2.2349,-2.3041,-2.3514,-2.3867,-2.3787,-2.2756,0.0,0.0,-2.24,-2.2011,-2.1706,-2.143,-2.1039,-2.061,-2.0174,-1.9882,-1.9697,0.0,0.0,0.0,0.0,0.0,0.0,0.0,0.0,-1.6614,-1.6497,0.0,-1.5587,0.0,0.0,0.0,0.0,0.0,0.0,0.0,0.0,-1.2834,-1.2868,-1.3338,-1.3859,-1.438,-1.4959,-1.5369,-1.5572,-1.5542,-1.419,0.0,0.0,0.0,0.0,0.0,0.0,-1.4819,-1.4733,-1.5148,-1.4309,-1.2013,-1.2428,-1.2262,-1.1429,-1.2384,-1.3218,-1.3926,-1.563,-1.6454,-1.6187,-1.7738,0.0,0.0,0.0,0.0,0.0,0.0,0.0,0.0,0.0,0.0,0.0,0.0,0.0,0.0,0.0,0.0,0.0,0.0,0.0,0.0,-1.5314,0.0,0.0,0.0,0.0,0.0,0.0,0.0,0.0,0.0,0.0,-0.9723,-0.9126,-0.9256,-1.0555,0.0,0.0,0.0,0.0,-1.3414,-1.4145,-1.5925,-1.7605,-1.8657,-1.9619,-2.0575,-2.1436,0.0,0.0,-2.3663,-2.4104,-2.3793,-2.1974,-2.2242,-2.2673,-2.2593,-2.237,-2.1961,-2.1221,-2.0967,-2.0634,-1.9945,-1.976,-1.9703,-1.7382,0.0,0.0,0.0,0.0,-1.8557,-1.8773,-1.8773,-1.8773,-1.8448,-1.7959,-1.7761,0.0,0.0,0.0,0.0,0.0,0.0,-1.4075,-1.3888,-1.3338,-1.3551,-1.4375,-1.4175,-1.4778,-1.6023,-1.579,-1.6053,-1.6767,-1.6389,-1.5579,-1.4435,0.0,0.0,0.0,0.0,-1.6364,-1.5887,-1.5982,-1.489,-1.2534,-1.2858,-1.2783,-1.223,-1.2855,-1.3423,-1.3904,-1.5773,-1.6883,-1.7054,-1.8668,0.0,0.0,0.0,0.0,0.0,0.0,0.0,0.0,0.0,0.0,0.0,0.0,0.0,0.0,0.0,0.0,0.0,0.0,0.0,-1.4386,-1.4132,-1.4887,0.0,0.0,0.0,0.0,0.0,0.0,0.0,0.0,0.0,-1.1778,-1.0868,-1.0348,0.0,0.0,-1.2359,-1.2354,-1.3798,-1.5087,-1.5641,0.0,0.0,0.0,-1.9449,-2.0174,-2.1023,-2.1911,-2.2534,-2.2699,-2.2835,-2.2755,-2.2194,-2.2266,-2.2417,-2.235,-2.1832,-2.1424,-2.1352,-2.0734,-2.0151,-2.0127,-1.9917,-1.9732,-1.8549,-1.8727,-1.8848,-1.8885,-1.893,-1.9493,-1.9697,-1.9697,-1.9697,-1.9465,-1.9099,-1.8865,-1.8417,-1.7791,-1.7605,0.0,0.0,0.0,-1.5701,-1.5638,-1.4859,-1.4815,-1.5353,-1.509,-1.5462,-1.6409,-1.6573,-1.7016,-1.7626,-1.7611,-1.7227,-1.6455,0.0,0.0,-1.7497,-1.7794,-1.7576,-1.6899,-1.6873,-1.5791,-1.3586,-1.331,-1.3038,-1.2779,-1.3176,-1.3561,-1.3988,-1.5952,-1.7165,-1.7473,-1.9097,-2.0087,0.0,0.0,0.0,0.0,0.0,0.0,0.0,0.0,0.0,0.0,0.0,-1.6672,-1.5672,0.0,0.0,0.0,-1.4212,-1.4281,-1.4882,-1.4717,0.0,0.0,0.0,0.0,0.0,0.0,0.0,-1.4125,-1.3227,-1.2882,-1.3454,-1.286,-1.2322,-1.2322,-1.3047,-1.3548,-1.3543,0.0,-1.6046,-1.6342,-1.7297,-1.8214,-1.8812,-1.9285,-1.9919,-2.0998,-2.1794,-2.2291,-2.2319,-2.2379,-2.2426,-2.2349,-2.2388,-2.2417,-2.233,-2.1857,-2.1507,-2.1582,-2.1158,-2.0751,-2.0634,-2.0487,-2.0356,-1.9244,-1.9639,-1.9169,-1.8968,-1.9013,-1.9493,-1.9697,-1.9697,-1.9697,-1.9697,-1.9682,-1.9169,-1.8968,-1.893,-1.8451,0.0,0.0,-1.8178,-1.8124,-1.8044,-1.6904,-1.6338,-1.6297,-1.631,-1.6332,-1.6395,-1.7509,-1.8097,-1.8145,-1.8145,-1.8423,-1.89,-1.8451,-1.8491,-1.8964,-1.8957,-1.8528,-1.7695,-1.7721,-1.6807,-1.4911,-1.3884,-1.3315,-1.3221,-1.3529,-1.3921,-1.4366,-1.6262,-1.7428,-1.7733,-1.9182,-2.0125,-2.0275,0.0,0.0,0.0,0.0,0.0,0.0,0.0,0.0,0.0,0.0,0.0,0.0,0.0,0.0,0.0,-1.456,0.0,-1.5811,-1.632,0.0,0.0,0.0,-1.6584,-1.6179,-1.5782,-1.5386,-1.4942,0.0,0.0,-1.4909,0.0,-1.4954,-1.4954,-1.4869,-1.4835,-1.4869,-1.5854,-1.6555,-1.6663,-1.7368,-1.8158,-1.8811,-1.9281,-1.998,-2.1163,-2.1907,-2.231,-2.2358,-2.2519,-2.2573,-2.2453,-2.2563,-2.2686,-2.2424,-2.2396,-2.224,-2.1841,-2.2006,-2.201,-2.1246,-2.1183,-2.1223,-1.9574,-1.9682,-1.9559,-1.9522,-1.9522,-1.9639,-1.9697,-1.9697,-1.9697,-1.9697,-1.969,-1.9559,-1.9522,-1.9486,-1.9361,-1.9088,-1.8727,-1.8688,-1.8489,-1.8057,-1.7377,-1.6782,-1.6303,-1.6417,-1.6627,-1.692,-1.7329,-1.7917,-1.8681,-1.874,-1.8771,-1.89,-1.9162,-1.9369,-1.9513,-1.95,-1.8935,-1.7712,-1.796,-1.7265,-1.5608,-1.5018,-1.4805,-1.498,-1.541,-1.583,-1.6234,-1.7531,-1.837,-1.8602,-1.9645,-2.0269,-2.036,-1.9615,0.0,0.0,0.0,0.0,0.0,0.0,0.0,0.0,0.0,-1.7882,-1.6076,0.0,-1.6703,0.0,-1.5205,-1.5195,-1.5965,-1.5785,0.0,0.0,-1.7469,-1.7455,-1.8113,-1.737,-1.6734,-1.6606,-1.6596,-1.6589,-1.6589,-1.7027,-1.73,-1.7294,-1.6543,-1.6151,-1.6547,-1.7246,-1.784,-1.8152,-1.8215,-1.8493,-1.9031,-1.9759,-2.0505,-2.1283,-2.189,-2.2386,-2.2685,-2.2712,-2.2755,-2.2931,-2.303,-2.3045,-2.2965,-2.2965,-2.294,-2.2814,-2.2543,-2.2141,-2.1584,-2.1436,-2.1344,-1.9697,-1.9697,-1.9697,-1.9818,-1.9937,-1.979,-1.9697,-1.9697,-1.9697,-1.9697,-1.9697,-1.9697,-1.9697,-1.9697,-1.9697,-1.9522,-1.9258,-1.9244,-1.9088,-1.8774,-1.8208,-1.7727,-1.7361,-1.7424,-1.7612,-1.7827,-1.8187,-1.8658,-1.9236,-1.9435,-1.9531,-1.9535,-2.0027,-2.0277,-2.0277,-2.007,-1.9456,-1.8462,-1.8212,-1.7387,-1.6037,-1.5879,-1.5817,-1.5803,-1.62,-1.6582,-1.6957,-1.8024,-1.8725,-1.9007,-1.9811,-2.0325,-2.0343,-1.9931,-1.9682,0.0,0.0,0.0,0.0,0.0,0.0,0.0,0.0,0.0,0.0,0.0,-1.7486,0.0,-1.6226,0.0,-1.6821,-1.6698,-1.698,-1.7986,-1.7845,-1.7887,-1.8493,-1.7985,-1.7605,-1.7612,-1.7619,-1.7599,-1.7619,-1.7887,-1.8138,-1.82,-1.7699,-1.7266,-1.7174,-1.7557,-1.7928,-1.8207,-1.8189,-1.83,-1.8756,-1.9783,-2.0709,-2.1376,-2.2038,-2.2616,-2.2976,-2.3105,-2.3165,-2.3198,-2.3314,-2.336,-2.3245,-2.3189,-2.3189,-2.3141,-2.2949,-2.2625,-2.2352,-2.2247,-2.2131,-1.9904,-1.9889,-1.9846,-2.0062,-2.0348,-2.0007,-1.9818,-1.9782,-1.9782,-1.9782,-1.9775,-1.979,-1.979,-1.979,-1.9711,-1.9718,-1.9782,-1.9718,-1.9697,-1.9696,-1.9091,-1.8785,-1.8717,-1.8792,-1.8826,-1.8842,-1.9474,-1.9841,-1.9897,-2.0205,-2.0395,-2.0431,-2.0782,-2.0982,-2.0991,-2.0649,-2.0107,-1.9408,-1.8473,-1.7501,-1.6489,-1.6728,-1.6701,-1.6422,-1.6724,-1.7046,-1.7377,-1.8369,-1.9059,-1.9427,-2.019,-2.0629,-2.0642,-2.0611,-2.0259,0.0,-1.9325,0.0,0.0,0.0,0.0,0.0,0.0,0.0,0.0,-1.9128,-1.8445,-1.7968,-1.7507,-1.7509,-1.8065,-1.8172,-1.8249,-1.8359,-1.8334,-1.8334,-1.8366,-1.8327,-1.8302,-1.8295,-1.8327,-1.8398,-1.8437,-1.843,-1.856,-1.8609,-1.8508,-1.8109,-1.7405,-1.7512,-1.7764,-1.7667,-1.779,-1.8189,-1.8631,-1.9707,-2.0818,-2.1529,-2.2277,-2.2855,-2.3221,-2.3491,-2.3619,-2.3423,-2.3597,-2.3671,-2.3392,-2.3346,-2.3355,-2.336,-2.3346,-2.3268,-2.3141,-2.3117,-2.3189,-2.0956,-2.0739,-2.0764,-2.0804,-2.087,-2.0804,-2.0532,-2.0193,-2.0185,-2.0193,-2.0185,-2.0185,-2.0177,-2.0158,-1.9839,-1.9866,-2.0151,-1.9839,-1.9697,-1.9682,-1.9591,-1.9226,-1.8755,-1.9256,-1.942,-1.9325,-2.0053,-2.0559,-2.0739,-2.0822,-2.0868,-2.0854,-2.0942,-2.0989,-2.1007,0.0,0.0,0.0,-1.8893,-1.8377,-1.7846,-1.8084,-1.8293,-1.843,-1.8508,0.0,-1.928,-2.0151,-2.0781,-2.1134,-2.1936,0.0,0.0,0.0,0.0,0.0,0.0,0.0,0.0,0.0,0.0,0.0,-2.1835,-2.0857,-2.0007,-2.0022,-1.9808,-1.9137,-1.9057,-1.9144,-1.9322,-1.8978,-1.9051,-1.9763,-1.9594,-1.9529,-1.9841,-1.9586,-1.9406,-1.9406,-1.9687,-1.9876,-1.9869,-2.0207,-2.0194,-1.9586,-1.9129,-1.8517,-1.777,-1.8124,-1.8517,-1.8576,-1.8477,-1.8657,-1.9053,-2.0067,-2.0987,-2.1819,-2.26,-2.3182,-2.3557,-2.3653,-2.3807,-2.3919,-2.4065,-2.4094,-2.4007,-2.4016,-2.3989,-2.3987,-2.4016,-2.3846,-2.3314,-2.3212,-2.3189,-2.1111,0.0,-2.0607,-2.058,0.0,-2.0549,-2.0447,-2.0408,-2.0565,-2.0657,-2.0649,-2.0505,-2.0497,-2.0665,-2.0559,-2.0585,-2.0616,-2.0431,-2.0337,-2.0345,-2.0345,-2.0159,-1.9834,-2.0182,-2.0301,-2.0217,-2.0603,-2.0852,-2.1023,-2.1183,-2.1316,-2.1314,-2.1541,-2.1705,-2.184,-2.2199,-2.1776,-2.0509,-2.0447,-1.9965,-1.9067,-1.9257,-1.9264,-1.902,0.0,0.0,0.0,0.0,0.0,0.0,0.0,0.0,0.0,0.0,0.0,-2.2545,-2.2405,-2.2407,-2.2667,-2.2613,-2.2898,-2.3628,-2.3042,-2.2017,-2.0559,-2.0809,-2.0823,-2.0257,-2.0254,-2.0299,-2.033,-2.0101,-2.0112,-2.0591,-2.0465,-2.0439,-2.0591,-2.0473,-2.0345,-2.0337,-2.0532,-2.0657,-2.0649,-2.0821,-2.0613,-1.9801,-1.9358,-1.8898,-1.8178,-1.8128,-1.8334,-1.8641,-1.8671,-1.8715,-1.8982,-1.9755,-2.077,-2.1659,-2.2556,-2.3369,-2.4118,-2.4237,-2.43,-2.4469,-2.4504,-2.4486,-2.4476,-2.4504,-2.4486,-2.4495,-2.4495,-2.4425,-2.4044,-2.3846,-2.3726,-2.0962,-2.0762,-2.0175,-2.0093,-2.0392,-2.0064,-2.0175,-2.0648,0.0,0.0,0.0,-2.0871,-2.0887,-2.1134,-2.1247,-2.1231,-2.1095,-2.1023,-2.0999,-2.0999,-2.0999,-2.0999,-2.0999,-2.1039,-2.1095,-2.1103,-2.1191,-2.1261,-2.1298,-2.1637,-2.1837,-2.1915,-2.2245,-2.2589,-2.2815,-2.3118,-2.2842,-2.2006,-2.2103,-2.1478,-2.0143,-2.0344,-2.0191,-1.9544,-2.0498,-2.1114,-2.1372,-2.2296,-2.2909,-2.3102,-2.3237,-2.3314,-2.3323,-2.3295,-2.3169,-2.2957,-2.2824,-2.2962,-2.3446,-2.334,-2.3529,-2.4153,-2.3896,-2.3052,-2.149,-2.1656,-2.1647,-2.1311,-2.1251,-2.1165,-2.1102,-2.107,-2.111,-2.1126,-2.1023,-2.0999,-2.1095,-2.1023,-2.0991,-2.107,-2.1165,-2.1212,-2.1319,-2.1403,-2.0955,-2.0007,-1.9906,-1.9529,-1.872,-1.825,-1.8134,-1.8559,-1.8713,-1.8743,-1.8887,-1.9586,-2.0456,-2.1394,-2.2256,-2.3251,-2.4213,-2.4573,-2.462,-2.4751,-2.4813,-2.479,-2.4799,-2.4784,-2.4813,-2.4813,-2.4813,-2.4813,-2.4784,-2.4545,-2.4357,-2.078,-2.0124,-2.0024,-2.0016,-2.0068,-2.0008,-2.0412,-2.1112,-2.1404,-2.1529,-2.1521,-2.1466,-2.1466,-2.1491,-2.1214,-2.1214,-2.1499,-2.1158,-2.0999,0.0,-2.0999,-2.0999,-2.1015,-2.1223,-2.1398,-2.1562,-2.1931,-2.2245,-2.2456,-2.251,-2.2687,-2.294,-2.3045,-2.3069,-2.3144,-2.345,-2.3558,-2.3404,-2.277,-2.2031,-2.1221,-2.1443,-2.1578,-2.1609,-2.1734,-2.2012,-2.2385,-2.319,-2.3723,-2.3937,-2.4591,-2.4966,-2.4947,-2.4777,-2.4698,-2.4646,-2.4523,-2.4497,-2.4572,-2.4381,-2.4254,-2.42,-2.3896,-2.345,-2.2944,-2.2659,-2.2495,-2.2382,-2.2101,-2.1803,-2.1483,-2.1453,-2.15,-2.1505,-2.1213,-2.1142,-2.1499,-2.1267,-2.1228,-2.1469,-2.1736,-2.2071,-2.2294,-2.26,-2.223,-2.1161,-2.105,-2.1207,-2.0064,-1.9097,-1.8614,-1.8744,-1.8974,-1.9139,-1.932,-2.0154,-2.0838,-2.1041,-2.182,-2.2745,-2.369,-2.3855,-2.4091,-2.47,-2.4856,-2.4851,-2.4842,-2.4813,-2.4842,-2.4856,-2.4865,-2.4851,-2.4865,-2.477,-2.474,-2.1309,-2.1353,-2.0566,-2.0328,-2.0498,-2.0489,-2.0917,-2.1664,-2.2237,-2.2286,-2.1995,-2.1966,-2.1966,-2.1966,-2.1781,-2.1811,-2.1966,-2.1789,-2.1713,-2.1721,-2.1836,-2.1861,-2.1743,-2.2169,-2.232,-2.2231,-2.2615,-2.2867,-2.2941,-2.2986,-2.3057,-2.3192,-2.336,-2.3539,-2.3663,-2.3976,-2.4191,-2.4281,-2.3841,-2.3216,-2.246,-2.2631,-2.2551,-2.2191,-2.2671,-2.3072,-2.3257,-2.4164,-2.4715,-2.4793,-2.5178,-2.539,-2.5351,-2.5271,-2.5158,-2.501,-2.4937,-2.4873,-2.4804,-2.4716,-2.4632,-2.4528,-2.4388,-2.4174,-2.3926,-2.3315,-2.2954,-2.2919,-2.2788,-2.2643,-2.2426,-2.2435,-2.2452,-2.2486,-2.2308,-2.2272,-2.2424,-2.2335,-2.2247,-2.2399,-2.2583,-2.2754,-2.2919,-2.3091,-2.284,-2.1781,-2.1819,-2.1633,-2.1131,-2.08,-2.024,-1.947,-1.9397,-1.9533,-1.9673,-2.0474,-2.1066,-2.1164,-2.1969,-2.2861,-2.3685,-2.3873,-2.4245,-2.4984,-2.5175,-2.5185,-2.5175,-2.5185,-2.5175,-2.5166,-2.5185,-2.5185,-2.5185,-2.5175,-2.5129,-2.1755,-2.2187,-2.104,-2.0679,-2.0921,-2.0921,-2.1343,-2.2069,-2.2675,-2.2767,-2.2517,-2.2508,-2.2499,-2.2508,-2.2508,-2.2516,-2.2508,-2.2516,-2.248,-2.2535,-2.2721,-2.2695,-2.2571,-2.2963,-2.3025,-2.2865,-2.3122,-2.3279,-2.3292,-2.331,-2.3385,-2.3516,-2.3808,-2.4015,-2.42,-2.4431,-2.4661,-2.479,-2.4685,-2.4304,-2.3674,-2.3743,-2.3491,-2.3026,-2.3665,-2.4118,-2.4191,-2.4994,-2.5428,-2.5416,-2.5473,-2.5482,-2.5424,-2.5428,-2.533,-2.5126,-2.5115,-2.5027,-2.4885,-2.4858,-2.4841,-2.4813,-2.4813,-2.4731,-2.4533,-2.3967,-2.3534,-2.345,-2.341,-2.3361,-2.3352,-2.3401,-2.3432,-2.3365,-2.3334,-2.3266,-2.327,-2.327,-2.3296,-2.3305,-2.3351,-2.3392,-2.3459,-2.3538,-2.3371,-2.2904,-2.2226,-2.189,-2.2092,-2.2304,-2.1699,-2.0797,-2.0228,-2.0208,-2.0232,-2.0831,-2.1311,-2.1397,-2.2221,-2.3158,-2.3912,-2.4209,-2.4539,-2.5231,-2.5482,-2.5463,-2.5492,-2.5492,-2.5473,-2.5453,-2.5453,-2.5482,-2.5463,-2.5463,-2.5438,-2.1688,-2.1191,-2.1045,-2.096,-2.1022,-2.1031,-2.1452,-2.2074,-2.2198,-2.2578,-2.3109,-2.312,-2.3111,-2.3135,-2.3102,-2.3087,-2.3087,-2.3093,-2.3102,-2.3078,-2.315,-2.315,-2.3069,-2.3,-2.3032,-2.3165,-2.3395,-2.3589,-2.3671,-2.3686,-2.3904,-2.4348,-2.4588,-2.4678,-2.4727,-2.4749,-2.4779,-2.4804,-2.4891,-2.4853,-2.4681,-2.4657,-2.4718,-2.4767,-2.4876,-2.5082,-2.5187,-2.5399,-2.5499,-2.5486,-2.5497,-2.5493,-2.5486,-2.5495,-2.5486,-2.5457,-2.5447,-2.534,-2.5109,-2.5022,-2.4952,-2.4828,-2.4818,-2.4818,-2.4799,-2.4702,-2.4491,-2.4173,-2.3994,-2.3939,-2.3949,-2.4072,-2.4053,-2.3802,-2.3783,-2.3657,-2.3557,-2.3482,-2.3527,-2.3653,-2.3848,-2.4016,-2.4255,-2.442,-2.4529,-2.4295,-2.3228,-2.2693,-2.3177,-2.3041,-2.2825,-2.2355,-2.1784,-2.1321,-2.1416,-2.1478,-2.1751,-2.1832,-2.2435,-2.3335,-2.4022,-2.431,-2.4549,-2.5278,-2.5512,-2.5512,-2.5522,-2.5512,-2.5512,-2.5541,-2.5551,-2.5561,-2.5532,-2.5513,-2.5481,-2.2299,-2.2551,-2.209,-2.1713,-2.156,-2.1978,-2.2339,-2.2663,-2.3146,-2.3526,-2.3759,-2.3795,-2.3557,-2.3189,-2.3189,-2.3189,-2.3189,-2.3189,-2.3189,-2.3212,-2.3392,-2.3401,-2.3236,-2.3556,-2.3608,-2.3548,-2.3912,-2.4126,-2.4174,-2.4275,-2.4463,-2.4657,-2.4757,-2.4842,-2.4904,-2.4908,-2.4987,-2.516,-2.5214,-2.5233,-2.5212,-2.518,-2.5174,-2.523,-2.5315,-2.538,-2.5447,-2.5511,-2.5562,-2.5565,-2.5603,-2.56,-2.5561,-2.5561,-2.5541,-2.5511,-2.5511,-2.5461,-2.5341,-2.5313,-2.5282,-2.5227,-2.5218,-2.517,-2.5044,-2.5006,-2.486,-2.4657,-2.4515,-2.4468,-2.4484,-2.4539,-2.4526,-2.44,-2.4393,-2.4351,-2.4286,-2.4269,-2.4287,-2.436,-2.4428,-2.4519,-2.4651,-2.4736,-2.4804,-2.478,-2.4163,-2.4046,-2.4363,-2.4328,-2.4311,-2.4235,-2.3625,-2.2921,-2.2589,-2.2908,-2.2912,-2.2759,-2.3194,-2.3978,-2.4171,-2.4293,-2.4553,-2.5365,-2.5497,-2.5546,-2.557,-2.56,-2.5619,-2.5619,-2.5629,-2.5648,-2.5609,-2.558,-2.5562,-2.3118,-2.3719,-2.3253,-2.2905,-2.2689,-2.3228,-2.3487,-2.3543,-2.4107,-2.4357,-2.4357,-2.4357,-2.4108,-2.3666,-2.353,-2.3468,-2.3468,-2.3477,-2.3486,-2.3586,-2.3821,-2.3815,-2.3707,-2.408,-2.4201,-2.4108,-2.4413,-2.4604,-2.4601,-2.4752,-2.4856,-2.486,-2.4924,-2.4997,-2.5094,-2.512,-2.5239,-2.5399,-2.5418,-2.5457,-2.5482,-2.5476,-2.5447,-2.5444,-2.5495,-2.5521,-2.5538,-2.5599,-2.5624,-2.5631,-2.5666,-2.5684,-2.5635,-2.5625,-2.5616,-2.5554,-2.5544,-2.5541,-2.5524,-2.5517,-2.5507,-2.5508,-2.5519,-2.5451,-2.5307,-2.524,-2.5168,-2.5073,-2.5022,-2.497,-2.4913,-2.4945,-2.5002,-2.4993,-2.4974,-2.4932,-2.4866,-2.4877,-2.4828,-2.4818,-2.4808,-2.4926,-2.498,-2.5015,-2.5015,-2.5013,-2.5077,-2.5143,-2.5201,-2.5283,-2.5381,-2.5464,-2.4958,-2.4306,-2.3606,-2.3723,-2.3897,-2.3852,-2.4064,-2.4599,-2.4622,-2.4633,-2.4668,-2.5444,-2.5531,-2.5564,-2.5548,-2.5608,-2.5657,-2.5647,-2.5637,-2.5657,-2.5637,-2.5603,-2.558,-2.4143,-2.4181,-2.4337,-2.4425,-2.4638,-2.4647,-2.4685,-2.4614,-2.4717,-2.477,-2.4746,-2.4746,-2.4741,-2.4623,-2.4293,-2.4133,-2.4133,-2.4114,-2.4229,-2.4372,-2.4416,-2.4559,-2.4717,-2.4638,-2.4633,-2.4648,-2.477,-2.4851,-2.4809,-2.4914,-2.4992,-2.5013,-2.5234,-2.535,-2.536,-2.5408,-2.5485,-2.5495,-2.5493,-2.5492,-2.5521,-2.5559,-2.5548,-2.5512,-2.5551,-2.5581,-2.5595,-2.5655,-2.5692,-2.5692,-2.5693,-2.5693,-2.5693,-2.5693,-2.5683,-2.5674,-2.5625,-2.5586,-2.5575,-2.5533,-2.551,-2.5517,-2.5522,-2.5503,-2.5493,-2.5454,-2.5441,-2.5466,-2.5408,-2.5346,-2.5241,-2.5311,-2.5418,-2.5399,-2.5379,-2.5264,-2.5099,-2.5057,-2.4943,-2.4888,-2.4996,-2.5151,-2.5398,-2.5466,-2.5409,-2.5399,-2.5447,-2.5457,-2.5435,-2.5473,-2.5486,-2.5497,-2.5388,-2.5144,-2.444,-2.4394,-2.4386,-2.4375,-2.4756,-2.534,-2.5419,-2.5459,-2.5452,-2.5457,-2.5488,-2.5511,-2.5512,-2.5527,-2.5556,-2.5556,-2.5547,-2.5556,-2.5595,-2.5547,-2.5515,-2.4494,-2.4584,-2.4654,-2.474,-2.4804,-2.4813,-2.4813,-2.4813,-2.4813,-2.4813,-2.4785,-2.471,-2.4728,-2.4808,-2.4701,-2.4613,-2.4575,-2.4584,-2.4623,-2.4695,-2.4685,-2.4731,-2.479,-2.4757,-2.4747,-2.4818,-2.4896,-2.5024,-2.5179,-2.5231,-2.5282,-2.5322,-2.5409,-2.5464,-2.5483,-2.5483,-2.5524,-2.5551,-2.5531,-2.5519,-2.5553,-2.5539,-2.5517,-2.5513,-2.5572,-2.5579,-2.5546,-2.5563,-2.558,-2.5564,-2.5567,-2.5567,-2.5567,-2.5577,-2.5577,-2.5567,-2.5548,-2.5538,-2.5544,-2.5542,-2.5565,-2.5567,-2.5603,-2.5633,-2.5623,-2.558,-2.5572,-2.5601,-2.558,-2.553,-2.5519,-2.551,-2.5515,-2.5506,-2.5486,-2.5444,-2.5389,-2.534,-2.5306,-2.5267,-2.5312,-2.5398,-2.546,-2.5515,-2.5485,-2.5432,-2.5447,-2.5447,-2.5431,-2.5437,-2.5458,-2.5491,-2.5498,-2.5414,-2.5167,-2.5064,-2.5085,-2.512,-2.5343,-2.5374,-2.5441,-2.5405,-2.538,-2.5341,-2.5389,-2.5428,-2.5425,-2.5471,-2.5485,-2.5505,-2.5488,-2.5483,-2.5543,-2.5422,-2.5382,-2.4577,-2.4524,-2.4755,-2.4748,-2.4607,-2.4863,-2.4958,-2.4958,-2.4958,-2.4968,-2.4939,-2.4863,-2.4873,-2.4949,-2.5009,-2.5006,-2.4974,-2.487,-2.4832,-2.485,-2.485,-2.4896,-2.4958,-2.4977,-2.5006,-2.5022,-2.5099,-2.5269,-2.5409,-2.5434,-2.545,-2.5477,-2.5514,-2.5517,-2.5517,-2.5515,-2.5554,-2.5561,-2.5518,-2.5524,-2.5563,-2.5517,-2.5483,-2.5482,-2.5511,-2.5516,-2.5509,-2.5511,-2.5522,-2.5511,-2.5512,-2.5512,-2.5512,-2.5512,-2.5512,-2.5518,-2.5512,-2.5518,-2.5515,-2.5536,-2.5576,-2.5574,-2.5605,-2.5644,-2.5636,-2.5614,-2.5622,-2.5646,-2.5657,-2.5651,-2.5673,-2.5619,-2.5561,-2.5558,-2.5544,-2.5527,-2.5513,-2.5479,-2.5444,-2.5428,-2.5435,-2.546,-2.5482,-2.5506,-2.5477,-2.5431,-2.5437,-2.5457,-2.5437,-2.5434,-2.543,-2.5453,-2.5466,-2.5445,-2.5274,-2.5173,-2.5224,-2.5283,-2.5283,-2.5351,-2.534,-2.531,-2.527,-2.5241,-2.5252,-2.5301,-2.536,-2.5399,-2.5418,-2.5418,-2.5409,-2.5378,-2.5341,-2.5262,-2.5182,-2.4413,-2.4071,-2.4665,-2.4707,-2.4408,-2.4965,-2.5283,-2.5253,-2.5273,-2.5262,-2.5233,-2.5264,-2.5234,-2.5283,-2.5291,-2.5322,-2.5298,-2.5009,-2.493,-2.5008,-2.503,-2.5128,-2.5282,-2.5321,-2.5341,-2.5351,-2.5438,-2.5486,-2.5502,-2.5496,-2.5503,-2.5507,-2.5558,-2.5552,-2.5517,-2.5547,-2.5548,-2.5511,-2.5505,-2.5495,-2.5505,-2.5495,-2.5457,-2.5409,-2.5398,-2.5427,-2.5495,-2.5495,-2.5486,-2.5486,-2.5505,-2.5486,-2.5486,-2.5495,-2.5486,-2.5486,-2.5505,-2.5505,-2.5495,-2.5504,-2.5495,-2.5511,-2.5508,-2.5527,-2.5532,-2.5569,-2.5594,-2.5591,-2.5644,-2.5696,-2.5688,-2.5664,-2.5654,-2.5683,-2.5615,-2.5572,-2.5503,-2.5447,-2.54,-2.543,-2.5429,-2.5419,-2.5479,-2.5511,-2.5493,-2.5498,-2.5514,-2.5492,-2.5423,-2.5404,-2.5428,-2.537,-2.531,-2.5258,-2.52,-2.5153,-2.5213,-2.5261,-2.5251,-2.525,-2.5166,-2.5124,-2.5077,-2.5037,-2.5046,-2.5099,-2.5155,-2.5185,-2.5198,-2.5209,-2.5221,-2.521,-2.5124,-2.5024,-2.4889,-2.4309,-2.4829,-2.5078,-2.5119,-2.4966,-2.5197,-2.5303,-2.5313,-2.5341,-2.5361,-2.5351,-2.5322,-2.5361,-2.5428,-2.5438,-2.5447,-2.5467,-2.5328,-2.5308,-2.5331,-2.5339,-2.535,-2.5418,-2.5447,-2.5481,-2.5479,-2.5499,-2.5517,-2.5512,-2.5512,-2.5509,-2.5509,-2.5517,-2.5523,-2.5505,-2.5511,-2.5515,-2.5487,-2.5457,-2.5438,-2.5428,-2.539,-2.5361,-2.5332,-2.5332,-2.5341,-2.5361,-2.5361,-2.537,-2.536,-2.5361,-2.537,-2.537,-2.537,-2.5361,-2.537,-2.537,-2.5361,-2.5361,-2.539,-2.5428,-2.5441,-2.5468,-2.5498,-2.5516,-2.5519,-2.5521,-2.5527,-2.5559,-2.5567,-2.5563,-2.5571,-2.5593,-2.5638,-2.5613,-2.5575,-2.5506,-2.5485,-2.5479,-2.5479,-2.5479,-2.5483,-2.5484,-2.5497,-2.545,-2.5429,-2.5428,-2.5388,-2.5217,-2.5176,-2.5108,-2.5003,-2.499,-2.5038,-2.4997,-2.4943,-2.4949,-2.5025,-2.505,-2.5087,-2.5022,-2.4888,-2.4845,-2.486,-2.486,-2.491,-2.4949,-2.4997,-2.5012,-2.4997,-2.5,-2.4951,-2.4892,-2.4785,-2.4644,-2.4053,-2.4495,-2.513,-2.5178,-2.4995,-2.5226,-2.537,-2.538,-2.5409,-2.5427,-2.5429,-2.5435,-2.5445,-2.5493,-2.5522,-2.5529,-2.5511,-2.5514,-2.5515,-2.5518,-2.5512,-2.5483,-2.546,-2.5457,-2.5473,-2.5494,-2.5511,-2.5517,-2.5515,-2.5509,-2.5512,-2.5516,-2.551,-2.5495,-2.5457,-2.5476,-2.5457,-2.5418,-2.5399,-2.5361,-2.5341,-2.5243,-2.5203,-2.5183,-2.5134,-2.5111,-2.5124,-2.5108,-2.5141,-2.5161,-2.5183,-2.5183,-2.5194,-2.5264,-2.5303,-2.5303,-2.5303,-2.5303,-2.5303,-2.5341,-2.5361,-2.538,-2.5409,-2.5428,-2.5428,-2.5438,-2.5453,-2.5452,-2.5493,-2.5515,-2.5515,-2.5509,-2.5528,-2.5515,-2.5544,-2.5522,-2.5483,-2.5443,-2.5428,-2.5399,-2.5351,-2.5319,-2.5309,-2.5262,-2.5241,-2.5191,-2.5201,-2.516,-2.4978,-2.4892,-2.4822,-2.479,-2.4861,-2.4861,-2.4809,-2.4756,-2.4682,-2.4746,-2.4823,-2.487,-2.4874,-2.4657,-2.4554,-2.4638,-2.4666,-2.4756,-2.4814,-2.4861,-2.4874,-2.4823,-2.4789,-2.4732,-2.4685,-2.4544,-2.4426,-2.3621,-2.3295,-2.4745,-2.5031,-2.4605,-2.5205,-2.5485,-2.5486,-2.5486,-2.5501,-2.5517,-2.5548,-2.5541,-2.551,-2.5557,-2.5542,-2.5517,-2.5515,-2.5517,-2.5515,-2.5507,-2.5475,-2.542,-2.5418,-2.5451,-2.5492,-2.5513,-2.5489,-2.5493,-2.5488,-2.5505,-2.5465,-2.5475,-2.5447,-2.5389,-2.538,-2.5321,-2.5283,-2.5253,-2.5234,-2.5233,-2.5086,-2.5008,-2.4998,-2.4902,-2.4834,-2.4861,-2.483,-2.486,-2.4959,-2.4977,-2.4996,-2.5032,-2.5182,-2.5243,-2.5223,-2.5264,-2.5244,-2.5264,-2.5283,-2.5274,-2.5273,-2.5293,-2.5303,-2.5332,-2.5331,-2.5351,-2.537,-2.5409,-2.5457,-2.5476,-2.5447,-2.5418,-2.5379,-2.5368,-2.5399,-2.5379,-2.5302,-2.5251,-2.5212,-2.5109,-2.4989,-2.5005,-2.4919,-2.4884,-2.4865,-2.4908,-2.4889,-2.4795,-2.4718,-2.469,-2.4674,-2.4654,-2.4648,-2.4584,-2.4536,-2.4486,-2.4512,-2.4561,-2.4601,-2.4654,-2.4468,-2.4348,-2.4422,-2.4441,-2.4556,-2.4639,-2.4623,-2.4664,-2.4642,-2.4598,-2.4548,-2.4463,-2.4362,-2.4312,-2.2412,-2.3902,-2.4377,-2.4787,-2.5168,-2.5434,-2.5511,-2.5512,-2.5559,-2.5541,-2.551,-2.5572,-2.5564,-2.5513,-2.5527,-2.5524,-2.5504,-2.5498,-2.5515,-2.5506,-2.5517,-2.5489,-2.5469,-2.5461,-2.5466,-2.5488,-2.5497,-2.5481,-2.5423,-2.5409,-2.5389,-2.5361,-2.5341,-2.5341,-2.5312,-2.518,-2.5098,-2.5065,-2.4975,-2.4945,-2.4932,-2.4896,-2.4846,-2.4855,-2.4818,-2.479,-2.4775,-2.4651,-2.467,-2.4837,-2.4836,-2.4855,-2.486,-2.491,-2.4958,-2.4962,-2.5039,-2.503,-2.499,-2.5149,-2.5214,-2.5111,-2.5192,-2.5293,-2.5303,-2.5172,-2.5191,-2.5253,-2.5221,-2.5189,-2.5291,-2.523,-2.5101,-2.5,-2.5063,-2.5134,-2.5094,-2.5009,-2.4932,-2.4932,-2.4892,-2.486,-2.4832,-2.4799,-2.4784,-2.4784,-2.4779,-2.4759,-2.4623,-2.4566,-2.4522,-2.4373,-2.433,-2.4358,-2.4339,-2.4303,-2.4284,-2.4284,-2.4303,-2.4284,-2.433,-2.4275,-2.4248,-2.4275,-2.4145,-2.4192,-2.4275,-2.4303,-2.4339,-2.4338,-2.4319,-2.4237,-2.4275,-2.4238,-2.4229,-2.2784,-2.3825,-2.4527,-2.5111,-2.5511,-2.5549,-2.5536,-2.5514,-2.5527,-2.5535,-2.5517,-2.5563,-2.5579,-2.5507,-2.5511,-2.5485,-2.5461,-2.5455,-2.5447,-2.5409,-2.5409,-2.5418,-2.5438,-2.5428,-2.5409,-2.5409,-2.5418,-2.535,-2.5241,-2.5221,-2.5175,-2.5099,-2.5091,-2.5091,-2.507,-2.5,-2.492,-2.4904,-2.4837,-2.4813,-2.4813,-2.4716,-2.466,-2.4664,-2.4617,-2.4561,-2.4528,-2.4426,-2.4426,-2.4536,-2.4632,-2.467,-2.4685,-2.4751,-2.4813,-2.4804,-2.4873,-2.4877,-2.4851,-2.4997,-2.5024,-2.4965,-2.5037,-2.5061,-2.507,-2.4978,-2.499,-2.5046,-2.4968,-2.4981,-2.5037,-2.4968,-2.4877,-2.4837,-2.4795,-2.4818,-2.4904,-2.4855,-2.4818,-2.4799,-2.474,-2.467,-2.4689,-2.4601,-2.4543,-2.4536,-2.4512,-2.4461,-2.4374,-2.4356,-2.4302,-2.4153,-2.4113,-2.4162,-2.4181,-2.4143,-2.4018,-2.4007,-2.3908,-2.3917,-2.4036,-2.4065,-2.4065,-2.4045,-2.3887,-2.3816,-2.3917,-2.3946,-2.3869,-2.3862,-2.3901,-2.4008,-2.4084,-2.4065,-2.4054,-2.3886,-2.3339,-2.4911,-2.5563,-2.5566,-2.5572,-2.5551,-2.5515,-2.5513,-2.5518,-2.5517,-2.5567,-2.5524,-2.5476,-2.5466,-2.5447,-2.538,-2.539,-2.5331,-2.5292,-2.5273,-2.5282,-2.5268,-2.5252,-2.5232,-2.5221,-2.5234,-2.5139,-2.503,-2.4984,-2.492,-2.4876,-2.4847,-2.4827,-2.485,-2.4793,-2.4784,-2.476,-2.4691,-2.467,-2.4648,-2.4545,-2.4425,-2.4337,-2.4238,-2.4219,-2.4219,-2.419,-2.4153,-2.4163,-2.4347,-2.4461,-2.4486,-2.4639,-2.47,-2.4716,-2.4712,-2.4741,-2.4755,-2.4764,-2.4799,-2.4799,-2.4808,-2.4808,-2.4842,-2.4795,-2.4785,-2.4861,-2.479,-2.4756,-2.479,-2.4775,-2.4731,-2.467,-2.4552,-2.4575,-2.4676,-2.4736,-2.4746,-2.4731,-2.4568,-2.4504,-2.4374,-2.4266,-2.4114,-2.3994,-2.4002,-2.3963,-2.3932,-2.3912,-2.3921,-2.3919,-2.3937,-2.4007,-2.4007,-2.4016,-2.3837,-2.3701,-2.3513,-2.3491,-2.3744,-2.3816,-2.3837,-2.3795,-2.3685,-2.3611,-2.3619,-2.3575,-2.345,-2.3594,-2.3757,-2.388,-2.3965,-2.3855,-2.3804,-2.3893,-2.399,-2.4355,-2.4904,-2.5457,-2.5511,-2.5505,-2.5492,-2.5501,-2.549,-2.5502,-2.5457,-2.5399,-2.5351,-2.5322,-2.5341,-2.5292,-2.5292,-2.5234,-2.5077,-2.5077,-2.5003,-2.4971,-2.4993,-2.5005,-2.4949,-2.4919,-2.4883,-2.4842,-2.4813,-2.4818,-2.4761,-2.4671,-2.4789,-2.4726,-2.4535,-2.4578,-2.4545,-2.4401,-2.4312,-2.4302,-2.4266,-2.4106,-2.3912,-2.3828,-2.3976,-2.4103,-2.3955,-2.3817,-2.3874,-2.4062,-2.421,-2.4229,-2.4275,-2.4302,-2.4329,-2.4442,-2.4459,-2.4419,-2.4541,-2.471,-2.4526,-2.4589,-2.4807,-2.4784,-2.4614,-2.4629,-2.4716,-2.4679,-2.4533,-2.4474,-2.4552,-2.4442,-2.4302,-2.4248,-2.4238,-2.4303,-2.4321,-2.433,-2.4321,-2.4266,-2.4144,-2.393,-2.3881,-2.3714,-2.3491,-2.3446,-2.3423,-2.3477,-2.3522,-2.3566,-2.364,-2.361,-2.3653,-2.3631,-2.3619,-2.3477,-2.335,-2.3168,-2.3038,-2.3294,-2.3401,-2.3387,-2.3431,-2.3462,-2.3403,-2.3286,-2.3159,-2.3029,-2.3324,-2.3601,-2.3647,-2.3652,-2.3585,-2.3477,-2.4314,-2.4036,-2.4576,-2.5047,-2.5418,-2.5456,-2.5438,-2.5409,-2.5409,-2.5399,-2.536,-2.5242,-2.5172,-2.5152,-2.5027,-2.501,-2.5058,-2.5068,-2.5012,-2.4917,-2.4904,-2.4809,-2.4672,-2.4732,-2.4761,-2.4775,-2.4813,-2.476,-2.4648,-2.4504,-2.4336,-2.4255,-2.417,-2.3995,-2.4055,-2.3985,-2.3885,-2.3846,-2.3801,-2.3744,-2.3732,-2.3723,-2.3692,-2.3513,-2.3468,-2.3566,-2.3671,-2.3566,-2.3482,-2.3521,-2.3635,-2.3729,-2.3735,-2.3741,-2.3735,-2.3756,-2.3812,-2.3855,-2.384,-2.389,-2.3963,-2.3906,-2.3992,-2.4136,-2.422,-2.4174,-2.4183,-2.4238,-2.4165,-2.4051,-2.3906,-2.3877,-2.3794,-2.3759,-2.3735,-2.3753,-2.3756,-2.3867,-2.3976,-2.3946,-2.3816,-2.3662,-2.3522,-2.3468,-2.3432,-2.3277,-2.3277,-2.3286,-2.3291,-2.3346,-2.3291,-2.3314,-2.3268,-2.3236,-2.3212,-2.3174,-2.3072,-2.2941,-2.2824,-2.2695,-2.2747,-2.2833,-2.2857,-2.3001,-2.3135,-2.2976,-2.2856,-2.2744,-2.2709,-2.2905,-2.3118,-2.3261,-2.328,-2.3097,-2.3026,-2.486,-2.4024,-2.5043,-2.5438,-2.539,-2.539,-2.5341,-2.5253,-2.5244,-2.5232,-2.5212,-2.4984,-2.4933,-2.4898,-2.4765,-2.4728,-2.4799,-2.4818,-2.4814,-2.4751,-2.476,-2.4614,-2.4476,-2.4407,-2.4405,-2.4607,-2.4544,-2.4446,-2.4208,-2.4023,-2.3833,-2.363,-2.3381,-2.3396,-2.3274,-2.3224,-2.3302,-2.3334,-2.3333,-2.3303,-2.3289,-2.3271,-2.3268,-2.3268,-2.3141,-2.3198,-2.3245,-2.3206,-2.3131,-2.3124,-2.3084,-2.3073,-2.3082,-2.3179,-2.3189,-2.3212,-2.3293,-2.3338,-2.3337,-2.3294,-2.328,-2.3206,-2.3236,-2.336,-2.3579,-2.3665,-2.3665,-2.3674,-2.3653,-2.3548,-2.3245,-2.3319,-2.3296,-2.3236,-2.3212,-2.3189,-2.3245,-2.3437,-2.3491,-2.3588,-2.35,-2.3346,-2.3212,-2.3109,-2.3102,-2.3087,-2.3096,-2.3096,-2.3111,-2.3063,-2.2998,-2.2924,-2.2857,-2.2841,-2.2815,-2.2815,-2.273,-2.2695,-2.2552,-2.2479,-2.2413,-2.2497,-2.2624,-2.2704,-2.2764,-2.2651,-2.2581,-2.2501,-2.252,-2.2574,-2.2635,-2.2782,-2.2728,-2.259,-2.2631,-2.5216,-2.5062,-2.5255,-2.5332,-2.5322,-2.5303,-2.5203,-2.5067,-2.5055,-2.5031,-2.4953,-2.4861,-2.4761,-2.4696,-2.4762,-2.4771,-2.4746,-2.4731,-2.466,-2.4568,-2.451,-2.4391,-2.421,-2.3972,-2.3874,-2.3862,-2.3876,-2.3744,-2.3572,-2.335,-2.3343,-2.3271,-2.3188,-2.3135,-2.3111,-2.3185,-2.3121,-2.3068,-2.3097,-2.3107,-2.3103,-2.31,-2.3102,-2.3078,-2.2906,-2.294,-2.3054,-2.2914,-2.278,-2.2779,-2.2563,-2.249,-2.2555,-2.2881,-2.3069,-2.3109,-2.31,-2.3077,-2.3093,-2.3161,-2.3193,-2.3185,-2.315,-2.3165,-2.3259,-2.3291,-2.3291,-2.3268,-2.3277,-2.3212,-2.3212,-2.3102,-2.3165,-2.3165,-2.3126,-2.3126,-2.3102,-2.3063,-2.3038,-2.3159,-2.3135,-2.3087,-2.2915,-2.2789,-2.2764,-2.2738,-2.2695,-2.2677,-2.2651,-2.2606,-2.2543,-2.2462,-2.2407,-2.2415,-2.2396,-2.2451,-2.2424,-2.247,-2.2413,-2.2413,-2.2347,-2.2319,-2.2405,-2.2516,-2.2543,-2.2443,-2.2377,-2.233,-2.2369,-2.2428,-2.2392,-2.2328,-2.2398,-2.2444,-2.2425,-2.5153,-2.496,-2.509,-2.5107,-2.5037,-2.5034,-2.4987,-2.4894,-2.4891,-2.4888,-2.4818,-2.471,-2.4611,-2.4551,-2.4482,-2.4486,-2.4486,-2.4495,-2.4436,-2.433,-2.4164,-2.4049,-2.3908,-2.3597,-2.3346,-2.3236,-2.3174,-2.3221,-2.3162,-2.3028,-2.2959,-2.2902,-2.2824,-2.2731,-2.2716,-2.2718,-2.2755,-2.2737,-2.2738,-2.2738,-2.2728,-2.2738,-2.273,-2.2669,-2.259,-2.2607,-2.2651,-2.2634,-2.2492,-2.2483,-2.2371,-2.218,-2.2098,-2.2181,-2.2485,-2.2669,-2.2737,-2.2728,-2.2738,-2.2755,-2.2711,-2.2721,-2.2756,-2.2807,-2.2898,-2.293,-2.2956,-2.2931,-2.2764,-2.2721,-2.2695,-2.2738,-2.273,-2.2738,-2.2756,-2.2747,-2.2704,-2.2589,-2.266,-2.2781,-2.2712,-2.2642,-2.2563,-2.2472,-2.2434,-2.2369,-2.2319,-2.2319,-2.2319,-2.2319,-2.2319,-2.2319,-2.2302,-2.2237,-2.2274,-2.2282,-2.2194,-2.2194,-2.2291,-2.2291,-2.2282,-2.2245,-2.2282,-2.2366,-2.2319,-2.2217,-2.2319,-2.231,-2.2319,-2.2319,-2.2321,-2.2332,-2.233,-2.2319,-2.2319,-2.4977,-2.4662,-2.4869,-2.4904,-2.4818,-2.4813,-2.4766,-2.4746,-2.4746,-2.4691,-2.4664,-2.4528,-2.4436,-2.4383,-2.422,-2.4122,-2.4103,-2.4056,-2.4007,-2.4027,-2.3768,-2.3619,-2.3513,-2.3259,-2.2988,-2.2839,-2.2695,-2.2764,-2.2873,-2.2749,-2.2627,-2.2598,-2.2375,-2.2319,-2.2355,-2.2411,-2.2319,-2.2319,-2.2319,-2.2282,-2.218,-2.2077,-2.2049,-2.204,-2.2057,-2.2011,-2.1986,-2.211,-2.2056,-2.2031,-2.2027,-2.1953,-2.1587,-2.1485,-2.1667,-2.1974,-2.2084,-2.2178,-2.2302,-2.2338,-2.2411,-2.2405,-2.2338,-2.2462,-2.2545,-2.2617,-2.2625,-2.2573,-2.2482,-2.2349,-2.2405,-2.2338,-2.2338,-2.2366,-2.2366,-2.2319,-2.2386,-2.2358,-2.2377,-2.2405,-2.2319,-2.2338,-2.2377,-2.2377,-2.2349,-2.2349,-2.2319,-2.2319,-2.2319,-2.2319,-2.2319,-2.2319,-2.2282,-2.2209,-2.2209,-2.2237,-2.2078,-2.1913,-2.2099,-2.2237,-2.22,-2.2163,-2.2209,-2.2254,-2.2077,-2.2011,-2.2152,-2.2291,-2.2319,-2.2319,-2.2319,-2.2319,-2.2319,-2.2319,-2.2319,-2.4837,-2.4785,-2.4799,-2.4809,-2.4799,-2.4784,-2.4685,-2.4536,-2.4536,-2.4426,-2.4275,-2.4256,-2.4209,-2.4114,-2.3878,-2.3765,-2.3683,-2.3544,-2.3566,-2.3683,-2.3414,-2.3268,-2.3189,-2.2923,-2.2764,-2.2617,-2.2455,-2.236,-2.248,-2.2438,-2.2383,-2.2345,-2.2307,-2.2271,-2.2219,-2.214,-2.2319,-2.2282,-2.2274,-2.2077,-2.1705,-2.1385,-2.1252,-2.1221,-2.1221,-2.1268,-2.137,-2.1546,-2.1579,-2.1319,-2.1554,-2.1478,-2.1144,-2.1062,-2.107,-2.1241,-2.1485,-2.1849,-2.213,-2.216,-2.2152,-2.2123,-2.2189,-2.2302,-2.2315,-2.2379,-2.2388,-2.2349,-2.231,-2.231,-2.2319,-2.2319,-2.2319,-2.2319,-2.2319,-2.2319,-2.2319,-2.2319,-2.2319,-2.2319,-2.2319,-2.2319,-2.2338,-2.2319,-2.2319,-2.2319,-2.2291,-2.2291,-2.2254,-2.2217,-2.2152,-2.2115,-2.1953,-2.1848,-2.1811,-2.1907,-2.1822,-2.1609,-2.1774,-2.2032,-2.1986,-2.1957,-2.2143,-2.2115,-2.1907,-2.1802,-2.1915,-2.2057,-2.2225,-2.2319,-2.2319,-2.2319,-2.2319,-2.2319,-2.2319,-2.4109,-2.4452,-2.4575,-2.4568,-2.447,-2.447,-2.4428,-2.4348,-2.4321,-2.4163,-2.3958,-2.3908,-2.3816,-2.3649,-2.3468,-2.3414,-2.3374,-2.3236,-2.3268,-2.3314,-2.3102,-2.2931,-2.2856,-2.2643,-2.249,-2.2472,-2.2377,-2.233,-2.2291,-2.2291,-2.2319,-2.2242,-2.2027,-2.187,-2.1895,-2.1689,-2.1574,-2.1541,-2.1536,-2.1469,-2.126,-2.1095,-2.0967,-2.0967,-2.0967,-2.0967,-2.0999,-2.1126,-2.1186,-2.1042,-2.1201,-2.1039,-2.0704,-2.0613,-2.0624,-2.0601,-2.0742,-2.106,-2.146,-2.1554,-2.1623,-2.1584,-2.1593,-2.1645,-2.1869,-2.2106,-2.2282,-2.2319,-2.2319,-2.2291,-2.2254,-2.2319,-2.2319,-2.2291,-2.2189,-2.2217,-2.2225,-2.2291,-2.2319,-2.2319,-2.2262,-2.2189,-2.2123,-2.2152,-2.2152,-2.2209,-2.2209,-2.2217,-2.2115,-2.1974,-2.1936,-2.1853,-2.1637,-2.1385,-2.1354,-2.1385,-2.1346,-2.1222,-2.1262,-2.1477,-2.1582,-2.165,-2.1802,-2.1751,-2.1477,-2.1485,-2.1623,-2.1751,-2.1907,-2.2086,-2.2319,-2.2282,-2.2254,-2.2319,-2.2319,-2.3482,-2.3958,-2.4108,-2.4089,-2.3946,-2.3955,-2.3937,-2.3928,-2.3946,-2.3795,-2.364,-2.3557,-2.3392,-2.315,-2.3093,-2.3069,-2.3061,-2.3005,-2.303,-2.2931,-2.2789,-2.2625,-2.2545,-2.2388,-2.2338,-2.2291,-2.231,-2.2217,-2.211,-2.2104,-2.2071,-2.2103,-2.164,-2.148,-2.1392,-2.1255,-2.1113,-2.1098,-2.0951,-2.086,-2.078,-2.0698,-2.064,-2.0648,-2.0681,-2.0689,-2.0698,-2.0789,-2.0799,-2.0637,-2.0742,-2.0603,-2.0265,-2.0166,-2.0174,-2.0166,-2.0215,-2.0333,-2.069,-2.087,-2.0967,-2.0999,-2.0999,-2.1221,-2.1415,-2.1811,-2.1982,-2.1886,-2.1886,-2.1915,-2.1982,-2.1924,-2.1857,-2.1857,-2.1894,-2.1953,-2.1991,-2.1924,-2.1827,-2.173,-2.1721,-2.1819,-2.1789,-2.1886,-2.1953,-2.2069,-2.2106,-2.2106,-2.1907,-2.1675,-2.1568,-2.1469,-2.1337,-2.1055,-2.0894,-2.0854,-2.0821,-2.0821,-2.087,-2.0926,-2.1062,-2.1188,-2.1306,-2.1181,-2.1047,-2.1118,-2.1221,-2.1407,-2.156,-2.1802,-2.2003,-2.2172,-2.2209,-2.2254,-2.2282,-2.3212,-2.3277,-2.3273,-2.3296,-2.3291,-2.3259,-2.3291,-2.336,-2.3323,-2.3282,-2.3236,-2.3198,-2.3005,-2.2806,-2.2764,-2.2746,-2.2721,-2.2472,-2.2581,-2.2599,-2.249,-2.2388,-2.2349,-2.2293,-2.2254,-2.2254,-2.2123,-2.1907,-2.1706,-2.1549,-2.1619,-2.1597,-2.1207,-2.1077,-2.0995,-2.0883,-2.0789,-2.0727,-2.053,-2.0354,-2.0254,-2.0104,-1.9925,-1.9897,-1.9869,-1.9826,-1.9811,-2.0166,-2.0261,-1.9997,-2.0212,-2.0243,-1.9906,-1.9841,-1.9854,-1.9854,-1.9854,-1.9917,-2.0085,-2.0473,-2.087,-2.0967,-2.0967,-2.0926,-2.1015,-2.1063,-2.1134,-2.1229,-2.1331,-2.126,-2.1197,-2.1095,-2.1291,-2.1354,-2.1432,-2.1432,-2.1424,-2.1331,-2.1229,-2.1134,-2.1197,-2.1362,-2.1393,-2.1493,-2.1554,-2.1645,-2.1667,-2.1637,-2.1385,-2.1189,-2.1086,-2.1023,-2.0983,-2.0756,-2.0491,-2.0424,-2.0431,-2.0439,-2.0447,-2.0465,-2.0509,-2.0649,-2.0756,-2.0789,-2.0723,-2.0756,-2.0789,-2.0829,-2.1015,-2.143,-2.1726,-2.1966,-2.2106,-2.218,-2.218,-2.2651,-2.2642,-2.2642,-2.2875,-2.3189,-2.3189,-2.3189,-2.3189,-2.3189,-2.3069,-2.2881,-2.2712,-2.2598,-2.2499,-2.248,-2.2463,-2.2436,-2.2369,-2.2379,-2.2398,-2.2349,-2.2319,-2.2245,-2.2032,-2.1869,-2.184,-2.1653,-2.1462,-2.1259,-2.1034,-2.0831,-2.0723,-2.0631,-2.0609,-2.0512,-2.04,-2.0281,-2.0204,-2.0071,-1.9965,-1.9891,-1.9818,-1.9697,-1.9697,-1.9697,-1.9697,-1.9762,-1.9854,-1.9826,-1.979,-1.9866,-1.9803,-1.9747,-1.9733,-1.9697,-1.9697,-1.969,-1.969,-1.9697,-2.005,-2.0181,-2.0269,-2.0398,-2.0591,-2.0591,-2.0804,-2.0967,-2.0999,-2.0934,-2.0862,-2.0959,-2.0999,-2.1063,-2.0999,-2.0967,-2.0902,-2.087,-2.0804,-2.0804,-2.0772,-2.0902,-2.1095,-2.1063,-2.1063,-2.1126,-2.1213,-2.1213,-2.115,-2.0894,-2.0698,-2.0632,-2.0532,-2.0499,-2.0405,-2.0112,-2.0077,-2.0085,-2.0085,-2.0058,-2.0104,-2.0151,-2.0035,-2.0112,-2.0235,-2.0303,-2.0277,-2.0216,-2.0224,-2.0473,-2.1007,-2.146,-2.1832,-2.1936,-2.2011,-2.1945,-2.1915,-2.1924,-2.1924,-2.2292,-2.2899,-2.2933,-2.2941,-2.2924,-2.2899,-2.2807,-2.2555,-2.2396,-2.2319,-2.2319,-2.2319,-2.231,-2.233,-2.2319,-2.2319,-2.2245,-2.2172,-2.2115,-2.1953,-2.1776,-2.1542,-2.1362,-2.1101,-2.0895,-2.0781,-2.0464,-2.0312,-2.0224,-2.0104,-2.0108,-2.0057,-1.9867,-1.9697,-1.9697,-1.9697,-1.9697,-1.9726,-1.9733,-1.9697,-1.9697,-1.9697,-1.9697,-1.9697,-1.9762,-1.9762,-1.9733,-1.9726,-1.9733,-1.9697,-1.9697,-1.9697,-1.9646,-1.9559,-1.9522,-1.9654,-1.9733,-1.9726,-1.9854,-1.998,-2.0097,-2.0227,-2.0447,-2.0473,-2.0522,-2.0573,-2.0624,-2.0632,-2.0506,-2.0481,-2.0387,-2.0413,-2.0379,-2.0405,-2.0371,-2.0439,-2.0439,-2.054,-2.0514,-2.0514,-2.0447,-2.064,-2.0632,-2.0532,-2.0499,-2.0405,-2.0243,-2.0166,-2.007,-2.0007,-1.9889,-1.9733,-1.9826,-1.9925,-1.9889,-1.9889,-1.9909,-1.9902,-1.9747,-1.9718,-1.9945,-1.9952,-1.9762,-1.9797,-1.9932,-2.0243,-2.0649,-2.1078,-2.1477,-2.1507,-2.1515,-2.1485,-2.1063,-2.1023,-2.1063,-2.1546,-2.2268,-2.2302,-2.2313,-2.2279,-2.2268,-2.2276,-2.2195,-2.218,-2.2189,-2.2189,-2.2094,-2.2086,-2.2086,-2.2143,-2.2152,-2.202,-2.1781,-2.1645,-2.1548,-2.1396,-2.1135,-2.0967,-2.0685,-2.0446,-2.0306,-2.0252,-2.0035,-1.9808,-1.9756,-1.9742,-1.9697,-1.9741,-1.9697,-1.9697,-1.9697,-1.9697,-1.9617,-1.9589,-1.956,-1.945,-1.9413,-1.9376,-1.9376,-1.9369,-1.9361,-1.9361,-1.9398,-1.9391,-1.9442,-1.9435,-1.9486,-1.9486,-1.9125,-1.9169,-1.9581,-1.9654,-1.9617,-1.9654,-1.9775,-1.9696,-1.9754,-1.9826,-1.9889,-2.0065,-1.996,-1.9897,-1.9826,-1.9818,-1.9897,-1.9932,-1.996,-1.9987,-2.0015,-2.005,-2.012,-2.0154,-1.9925,-1.9762,-1.9797,-1.9826,-2.005,-2.0042,-1.9882,-1.9854,-1.9917,-1.9917,-1.9874,-1.9846,-1.9782,-1.9754,-1.9697,-1.9697,-1.9733,-1.9697,-1.9726,-1.9782,-1.9775,-1.9726,-1.9726,-1.9754,-1.9754,-1.9733,-1.9697,-1.9733,-2.005,-2.033,-2.0698,-2.1031,-2.1023,-2.1015,-2.0983,-2.0999,-2.0999,-2.0999,-2.1158,-2.1424,-2.1424,-2.1424,-2.1424,-2.1424,-2.1454,-2.1424,-2.1462,-2.1454,-2.1424,-2.1493,-2.1485,-2.1462,-2.1432,-2.1432,-2.1432,-2.126,-2.1229,-2.1111,-2.0861,-2.0646,-2.0465,-2.0234,-2.0035,-1.9909,-1.9962,-1.9872,-1.9667,-1.9479,-1.9406,-1.961,-1.9697,-1.9697,-1.9697,-1.969,-1.9566,-1.9214,-1.9153,-1.904,-1.8741,-1.8727,-1.8727,-1.8772,-1.8772,-1.8774,-1.8769,-1.8767,-1.8774,-1.8731,-1.8745,-1.8688,-1.8688,-1.8412,-1.8451,-1.8612,-1.8657,-1.9006,-1.9295,-1.9376,-1.9325,-1.9617,-1.9697,-1.9733,-1.9654,-1.9574,-1.9574,-1.9733,-1.9718,-1.9754,-1.9762,-1.9797,-1.9797,-1.979,-1.9797,-1.9833,-1.9826,-1.9733,-1.9697,-1.9697,-1.9697,-1.9861,-1.9889,-1.979,-1.9762,-1.9797,-1.9797,-1.9754,-1.9762,-1.9726,-1.9733,-1.9697,-1.9574,-1.9574,-1.9566,-1.9654,-1.9726,-1.9733,-1.9697,-1.9733,-1.9726,-1.9733,-1.9697,-1.9697,-1.9733,-1.9754,-1.998,-2.0337,-2.0673,-2.0804,-2.069,-2.0542,-2.0362,-2.054,-2.054,-2.0532,-2.0607,-2.0862,-2.0999,-2.0999,-2.0999,-2.0999,-2.0999,-2.0999,-2.1031,-2.1031,-2.0999,-2.0999,-2.0999,-2.0999,-2.1007,-2.0967,-2.0789,-2.0789,-2.0616,-2.0322,-2.0147,-2.0,-1.9882,-1.9733,-1.9754,-1.9733,-1.9726,-1.9639,-1.9339,-1.9328,-1.9388,-1.9219,-1.9046,-1.9031,-1.8979,-1.8914,-1.8707,-1.8574,-1.8492,-1.8252,-1.8178,-1.8138,-1.8138,-1.8085,-1.8078,-1.8083,-1.809,-1.8085,-1.809,-1.809,-1.8066,-1.8099,-1.8115,-1.8011,-1.792,-1.7853,-1.8292,-1.893,-1.8772,-1.8817,-1.9058,-1.9013,-1.905,-1.9088,-1.9207,-1.9288,-1.9369,-1.9406,-1.9406,-1.9413,-1.9413,-1.9413,-1.9177,-1.9132,-1.914,-1.9214,-1.9457,-1.9493,-1.9654,-1.9697,-1.9762,-1.9733,-1.9733,-1.9697,-1.9697,-1.9697,-1.9697,-1.969,-1.953,-1.9413,-1.9369,-1.9325,-1.9325,-1.9406,-1.9486,-1.9537,-1.9697,-1.9697,-1.9697,-1.9697,-1.9697,-1.9697,-1.9697,-1.9733,-1.9762,-1.9782,-1.9937,-2.0235,-2.0506,-2.0398,-2.0193,-1.9019,-1.9571,-1.9645,-1.9637,-1.9803,-2.0366,-2.0789,-2.0902,-2.0934,-2.0902,-2.0902,-2.0829,-2.0804,-2.0862,-2.0902,-2.0837,-2.0804,-2.0837,-2.0804,-2.0731,-2.0431,-2.0356,-2.0193,-1.9937,-1.9854,-1.9762,-1.9697,-1.9697,-1.9697,-1.9697,-1.9697,-1.969,-1.9486,-1.9219,-1.8885,-1.8485,-1.8295,-1.8372,-1.8384,-1.8317,-1.8099,-1.8057,-1.7963,-1.7821,-1.778,-1.778,-1.778,-1.778,-1.7848,-1.7902,-1.7935,-1.7983,-1.8016,-1.8055,-1.8047,-1.8018,-1.7954,-1.7652,-1.7389,-1.7287,-1.7491,-1.7973,-1.802,-1.8027,-1.8224,-1.8373,-1.8451,-1.8451,-1.8451,-1.865,-1.8772,-1.881,-1.8885,-1.8893,-1.8885,-1.8688,-1.8373,-1.8295,-1.8295,-1.8458,-1.8848,-1.9088,-1.945,-1.9566,-1.9632,-1.9697,-1.9697,-1.9697,-1.9697,-1.9697,-1.969,-1.961,-1.9406,-1.9006,-1.8968,-1.8961,-1.8885,-1.8885,-1.9132,-1.9258,-1.9457,-1.9493,-1.9258,-1.9214,-1.9537,-1.9654,-1.969,-1.9697,-1.9733,-1.9754,-1.976,-1.9846,-2.0154,-2.0058,-1.9854,-1.7455,-1.7982,-1.7989,-1.8207,-1.8576,-1.8835,-1.9324,-2.0007,-2.0077,-2.0085,-2.0077,-2.0085,-2.0139,-2.0085,-2.0042,-2.0085,-2.0077,-2.0077,-2.0042,-2.0007,-2.0042,-1.9902,-1.9846,-1.979,-1.9697,-1.969,-1.969,-1.9697,-1.969,-1.969,-1.969,-1.9697,-1.9266,-1.8839,-1.8327,-1.7808,-1.7868,-1.7881,-1.7955,-1.7767,-1.7585,-1.7529,-1.7345,-1.7208,-1.7118,-1.7118,-1.7118,-1.7076,-1.7086,-1.7038,-1.6989,-1.6967,-1.696,-1.6976,-1.6951,-1.6951,-1.6954,-1.687,-1.6788,-1.6727,-1.6841,-1.7028,-1.7076,-1.7504,-1.778,-1.798,-1.798,-1.79,-1.786,-1.8059,-1.8217,-1.8295,-1.8341,-1.8341,-1.8302,-1.8138,-1.79,-1.778,-1.782,-1.8059,-1.8412,-1.8772,-1.9125,-1.9442,-1.9501,-1.9632,-1.9654,-1.9566,-1.9654,-1.9654,-1.9574,-1.9486,-1.9243,-1.8815,-1.8605,-1.8545,-1.8405,-1.8373,-1.8619,-1.8779,-1.8696,-1.8696,-1.8612,-1.8734,-1.8975,-1.9332,-1.9682,-1.961,-1.9376,-1.9603,-1.966,-1.9682,-1.9705,-1.972,-1.9712,-1.6584,-1.7265,-1.7306,-1.763,-1.8037,-1.8099,-1.8528,-1.9043,-1.9288,-1.9376,-1.9398,-1.9413,-1.9486,-1.9675,-1.9551,-1.9515,-1.9762,-1.9797,-1.979,-1.979,-1.9654,-1.9726,-1.9733,-1.9654,-1.953,-1.9522,-1.9522,-1.9566,-1.945,-1.9376,-1.9332,-1.8986,-1.8668,-1.8282,-1.7838,-1.7511,-1.7353,-1.7391,-1.7365,-1.7248,-1.7115,-1.6993,-1.6759,-1.6601,-1.6528,-1.6528,-1.6528,-1.6528,-1.6528,-1.6528,-1.6528,-1.6528,-1.6528,-1.6522,-1.6522,-1.6601,-1.6595,-1.6588,-1.6565,-1.6565,-1.6528,-1.6528,-1.6528,-1.6837,-1.7111,-1.7305,-1.7305,-1.7305,-1.7388,-1.7504,-1.7666,-1.778,-1.7787,-1.7794,-1.7747,-1.7666,-1.7544,-1.7429,-1.7544,-1.774,-1.8059,-1.8412,-1.8755,-1.9116,-1.9272,-1.9177,-1.8962,-1.8693,-1.9044,-1.945,-1.9369,-1.9244,-1.895,-1.8634,-1.8369,-1.8018,-1.7806,-1.778,-1.8178,-1.8217,-1.8059,-1.8099,-1.8256,-1.8334,-1.8412,-1.8786,-1.9169,-1.902,-1.8885,-1.9103,-1.9229,-1.9256,-1.9427,-1.9729,-1.9707,-1.5951,-1.6913,-1.7129,-1.7352,-1.7877,-1.7859,-1.794,-1.8059,-1.8503,-1.881,-1.881,-1.8848,-1.9088,-1.9207,-1.9006,-1.9088,-1.9214,-1.9332,-1.9413,-1.9617,-1.9332,-1.9369,-1.9486,-1.9522,-1.9125,-1.9095,-1.9124,-1.9123,-1.8921,-1.8803,-1.8639,-1.8093,-1.8152,-1.7925,-1.7484,-1.7377,-1.7181,-1.6827,-1.678,-1.6701,-1.6645,-1.6571,-1.6528,-1.6528,-1.6528,-1.6528,-1.6528,-1.6528,-1.6528,-1.6528,-1.6528,-1.6528,-1.6528,-1.6528,-1.6528,-1.6528,-1.6528,-1.6528,-1.6528,-1.6528,-1.6528,-1.6528,-1.6528,-1.6601,-1.6759,-1.6837,-1.6879,-1.6879,-1.6957,-1.7034,-1.7146,-1.7229,-1.7229,-1.7236,-1.7229,-1.7111,-1.7034,-1.6951,-1.7034,-1.7277,-1.7551,-1.7907,-1.827,-1.8546,-1.8791,-1.8636,-1.8605,-1.8292,-1.8282,-1.8939,-1.8961,-1.8841,-1.8493,-1.8095,-1.7713,-1.741,-1.7124,-1.7179,-1.7599,-1.77,-1.7504,-1.7659,-1.794,-1.794,-1.7987,-1.8208,-1.8471,-1.8415,-1.8391,-1.8303,-1.8472,-1.8683,-1.8998,-1.9269,-1.9642,-1.3925,-1.4298,-1.5556,-1.6162,-1.6323,-1.6687,-1.6902,-1.6915,-1.7476,-1.794,-1.8256,-1.8295,-1.8373,-1.8535,-1.8352,-1.8391,-1.8535,-1.8727,-1.8772,-1.881,-1.8772,-1.8885,-1.893,-1.881,-1.8489,-1.8383,-1.84,-1.8495,-1.8337,-1.8286,-1.8274,-1.8068,-1.7973,-1.7639,-1.7253,-1.7242,-1.6978,-1.6552,-1.6528,-1.6528,-1.6528,-1.6528,-1.6528,-1.6528,-1.6528,-1.6528,-1.6528,-1.6528,-1.6528,-1.6528,-1.6528,-1.6528,-1.6528,-1.6528,-1.6528,-1.6528,-1.6528,-1.6528,-1.6528,-1.6528,-1.6528,-1.6528,-1.6528,-1.6528,-1.6528,-1.6528,-1.6528,-1.6528,-1.6522,-1.6637,-1.6674,-1.6716,-1.6752,-1.6752,-1.6752,-1.6637,-1.6515,-1.6565,-1.6607,-1.6844,-1.7124,-1.7442,-1.7794,-1.8001,-1.8166,-1.8372,-1.852,-1.8375,-1.7932,-1.8154,-1.8182,-1.8039,-1.7827,-1.7483,-1.712,-1.6954,-1.676,-1.6689,-1.6986,-1.6999,-1.6951,-1.7111,-1.7305,-1.7435,-1.753,-1.7727,-1.7888,-1.8126,-1.8032,-1.7746,-1.774,-1.7997,-1.8124,-1.8365,-1.8989,-1.3366,-1.3742,-1.4831,-1.5335,-1.5469,-1.5919,-1.6158,-1.6231,-1.6728,-1.7111,-1.7449,-1.77,-1.7948,-1.7906,-1.7632,-1.7806,-1.7959,-1.8099,-1.8334,-1.8373,-1.8256,-1.8334,-1.8295,-1.8178,-1.798,-1.7861,-1.776,-1.7773,-1.7731,-1.774,-1.7706,-1.751,-1.7401,-1.7288,-1.698,-1.6928,-1.6837,-1.6503,-1.6522,-1.6528,-1.6528,-1.6528,-1.6528,-1.6528,-1.6528,-1.6528,-1.6528,-1.6528,-1.6528,-1.6528,-1.6528,-1.6528,-1.6528,-1.6528,-1.6528,-1.6528,-1.6528,-1.6528,-1.6528,-1.6528,-1.6528,-1.6528,-1.6528,-1.6528,-1.6528,-1.6528,-1.6528,-1.6528,-1.6528,-1.6601,-1.6558,-1.6601,-1.6601,-1.6601,-1.6601,-1.6565,-1.6522,-1.6528,-1.6723,-1.7076,-1.7353,-1.7666,-1.7867,-1.7747,-1.7914,-1.7954,-1.8176,-1.7753,-1.7463,-1.7437,-1.7416,-1.7395,-1.7271,-1.7083,-1.6824,-1.6704,-1.6588,-1.6522,-1.6528,-1.6607,-1.6716,-1.6637,-1.6637,-1.6879,-1.7041,-1.7041,-1.7236,-1.751,-1.7429,-1.7127,-1.7175,-1.7338,-1.7435,-1.7551,-1.8043,-1.3467,-1.4035,-1.4576,-1.4802,-1.489,-1.536,-1.5593,-1.5655,-1.6076,-1.6264,-1.6426,-1.7109,-1.7639,-1.7444,-1.7073,-1.7383,-1.7565,-1.7572,-1.778,-1.794,-1.782,-1.786,-1.786,-1.782,-1.751,-1.7312,-1.7221,-1.7213,-1.7202,-1.7174,-1.6999,-1.6607,-1.6528,-1.6534,-1.6528,-1.6522,-1.6522,-1.6522,-1.6528,-1.6528,-1.6528,-1.6528,-1.6528,-1.6528,-1.6528,-1.6528,-1.6528,-1.6528,-1.6528,-1.6528,-1.6528,-1.6528,-1.6528,-1.6528,-1.6528,-1.6528,-1.6528,-1.6528,-1.6528,-1.6528,-1.6528,-1.6528,-1.6528,-1.6528,-1.6528,-1.6528,-1.6528,-1.6528,-1.6528,-1.6528,-1.6528,-1.6528,-1.6528,-1.6479,-1.6479,-1.6479,-1.6479,-1.6479,-1.6795,-1.7146,-1.7504,-1.782,-1.79,-1.774,-1.7666,-1.774,-1.7409,-1.6896,-1.6618,-1.6811,-1.6938,-1.6986,-1.7005,-1.6765,-1.6558,-1.6565,-1.6528,-1.6528,-1.6528,-1.6528,-1.6528,-1.6522,-1.6522,-1.6522,-1.6644,-1.6723,-1.668,-1.6844,-1.668,-1.6637,-1.6759,-1.6928,-1.6886,-1.7012,-1.7164,-1.3254,-1.3427,-1.4009,-1.4242,-1.4324,-1.4828,-1.5067,-1.5079,-1.518,-1.5224,-1.5491,-1.6241,-1.6781,-1.6782,-1.6685,-1.6818,-1.6973,-1.6993,-1.7194,-1.7401,-1.7153,-1.7229,-1.7271,-1.7229,-1.6844,-1.6765,-1.6759,-1.6675,-1.682,-1.6731,-1.6637,-1.6528,-1.6528,-1.6528,-1.6528,-1.6528,-1.6528,-1.6528,-1.6528,-1.6528,-1.6528,-1.6528,-1.6528,-1.6528,-1.6528,-1.6528,-1.6528,-1.6528,-1.6528,-1.6528,-1.6528,-1.6528,-1.6528,-1.6528,-1.6528,-1.6528,-1.6528,-1.6528,-1.6528,-1.6528,-1.6528,-1.6528,-1.6528,-1.6528,-1.6528,-1.6528,-1.6528,-1.6528,-1.6528,-1.6528,-1.6528,-1.6528,-1.6485,-1.6429,-1.638,-1.6337,-1.6287,-1.6417,-1.6667,-1.7021,-1.7429,-1.782,-1.8256,-1.8059,-1.782,-1.7666,-1.716,-1.6703,-1.6509,-1.6522,-1.6528,-1.6614,-1.6699,-1.6656,-1.6528,-1.6522,-1.6528,-1.6528,-1.6528,-1.6528,-1.6528,-1.6528,-1.6528,-1.6528,-1.6528,-1.6565,-1.6528,-1.6528,-1.6528,-1.6565,-1.6522,-1.6565,-1.6553,-1.6634,-1.6955]}]]